[[{"header":{"parameterUnit":"m.s-1","parameterCategory":1,"la1":30.6,"la2":29.2853,"lo1":-89.7004,"lo2":-87.6739,"dy":0.0162,"dx":0.0183,"nx":112,"ny":82,"refTime":"2026-03-19T12:00:00:Z","depth":0,"parameterNumber":2,"parameterNumberName":"U-component_of_WINDS"},"data":[0.0,0.0,0.0,0.0,0.0,0.0,0.0,0.0,0.0,0.0,0.0,0.0,0.0,0.0,0.0,0.0,0.0,0.0,0.0,0.0,0.0,0.0,0.0,0.0,0.0,0.0,0.0,0.0,0.0,0.0,0.0,0.0,0.0,0.0,0.0,0.0,0.0,0.0,0.0,0.0,0.0,0.0,0.0,0.0,0.0,0.0,0.0,0.0,0.0,0.0,0.0,0.0,0.0,0.0,0.0,0.0,0.0,0.0,0.0,0.0,0.0,0.0,0.0,0.0,0.0,0.0,0.0,0.0,0.0,0.0,0.0,0.0,0.0,0.0,0.0,0.0,0.0,0.0,0.0,0.0,0.0,0.0,0.0,0.0,0.0,0.0,0.0,0.0,0.0,0.0,0.0,0.0052,0.0,0.0,0.0,0.0,-0.0088,-0.036,0.0,0.0,0.0,0.0,0.0,0.0,0.0,0.0,0.0,0.0,0.0,0.0,0.0,0.0,0.0,0.0,0.0,0.0,0.0,0.0,0.0,0.0,0.0,0.0,0.0,0.0,0.0,0.0,0.0,0.0,0.0,0.0,0.0,0.0,0.0,0.0,0.0,0.0,0.0,0.0,0.0,0.0,0.0,0.0,0.0,0.0,0.0,0.0,0.0,0.0,0.0,0.0,0.0,0.0,0.0,0.0,0.0,0.0,0.0,0.0,0.0,0.0,0.0,0.0,0.0,0.0,0.0,0.0,0.0,0.0,0.0,0.0,0.0,0.0,0.0,0.0,0.0,0.0,0.0,0.0,0.0,0.0,0.0,0.0,0.0,0.0,0.0,0.0,0.0,0.0,0.0,0.0,0.0,0.0,0.0,0.0,0.0,0.0,0.0,0.0,0.0,0.0,0.0,0.0,0.0631,0.0061,0.0,0.0,0.0,0.0,-0.0095,-0.0294,0.0,0.0,0.0,0.0,0.0,0.0,0.0,0.0,0.0,0.0,0.0,0.0,0.0,0.0,0.0,0.0,0.0,0.0,0.0,0.0,0.0,0.0,0.0,0.0,0.0,0.0,0.0,0.0,0.0,0.0,0.0,0.0,0.0,0.0,0.0,0.0,0.0,0.0,0.0,0.0,0.0,0.0,0.0,0.0,0.0,0.0,0.0,0.0,0.0,0.0,0.0,0.0,0.0,0.0,0.0,0.0,0.0,0.0,0.0,0.0,0.0,0.0,0.0,0.0,0.0,0.0,0.0,0.0,0.0,0.0,0.0,0.0,0.0,0.0,0.0,0.0,0.0,0.0,0.0,0.0,0.0,0.0,0.0,0.0,0.0,0.0,0.0,0.0,0.0,0.0,0.0,0.0,0.0,0.0,0.0,0.0,0.0,0.0,0.0,0.0,0.0,0.0,0.0,0.061,0.0295,0.0,0.0,0.0,0.0,0.0,-0.0049,-0.017,-0.0385,0.0,0.0,0.0,0.0,0.0,0.0,0.0,0.0,0.0,0.0,0.0,0.0,0.0,0.0,0.0,0.0,0.0,0.0,0.0,0.0,0.0,0.0,0.0,0.0,0.0,0.0,0.0,0.0,0.0,0.0,0.0,0.0,0.0,0.0,0.0,0.0,0.0,0.0,0.0,0.0,0.0,0.0,0.0,0.0,0.0,0.0,0.0,0.0,0.0,0.0,0.0,0.0,0.0,0.0,0.0,0.0,0.0,0.0,0.0,0.0,0.0,0.0,0.0,0.0,0.0,0.0,0.0,0.0,0.0,0.0,0.0,0.0,0.0,0.0,0.0,0.0,0.0,0.0,0.0,0.0,0.0,0.0,0.0,0.0,0.0,0.0,0.0,0.0,0.0,0.0,0.0,0.0,0.0,0.0,0.0,0.0,0.0,0.0,0.0,0.0,0.0,0.0,0.0409,0.0,0.0,0.0,0.0,0.0,0.0,0.0,-0.0087,-0.0176,0.0,0.0,0.0,0.0,0.0,0.0,0.0,0.0,0.0,0.0,0.0,0.0,0.0,0.0,0.0,0.0,0.0,0.0,0.0,0.0,0.0,0.0,0.0,0.0,0.0,0.0,0.0,0.0,0.0,0.0,0.0,0.0,0.0,0.0,0.0,0.0,0.0,0.0,0.0,0.0,0.0,0.0,0.0,0.0,0.0,0.0,0.0,0.0,0.0,0.0,0.0,0.0,0.0,0.0,0.0,0.0,0.0,0.0,0.0,0.0,0.0,0.0,0.0,0.0,0.0,0.0,0.0,0.0,0.0,0.0,0.0,0.0,0.0,0.0,0.0,0.0,0.0,0.0,0.0,0.0,0.0,0.0,0.0,0.0,0.0,0.0,0.0,0.0,0.0,0.0,0.0,0.0,0.0,0.0,0.0,0.0,0.0,0.0,0.0,0.0,0.0,0.0,0.0436,0.0,0.0,0.0,0.0,0.0,0.0,0.0,0.0,0.0,0.0,0.0,0.0,0.0,0.0,0.0,0.0,0.0,0.0,0.0,0.0,0.0,0.0,0.0,0.0,0.0,0.0,0.0,0.0,0.0,0.0,0.0,0.0,0.0,0.0,0.0,0.0,0.0,0.0,0.0,0.0,0.0,0.0,0.0,0.0,0.0,0.0,0.0,0.0,0.0,0.0,0.0,0.0,0.0,0.0,0.0,0.0,0.0,0.0,0.0,0.0,0.0,0.0,0.0,0.0,0.0,0.0,0.0,0.0,0.0,0.0,0.0,0.0,0.0,0.0,0.0,0.0,0.0,0.0,0.0,0.0,0.0,0.0,0.0,0.0,0.0,0.0,0.0,0.0,0.0,0.0,0.0,0.0,0.0,0.0,0.0,0.0,0.0,0.0,0.0,0.0,0.0,0.0,0.0,0.0,0.0,0.0,0.0,0.0,0.0,0.0,0.0,0.0439,0.0,0.0,0.0,0.0,0.0,0.0,0.0,0.0,0.0,0.0,0.0,0.0,0.0,0.0,0.0,0.0,0.0,0.0,0.0,0.0,0.0,0.0,0.0,0.0,0.0,0.0,0.0,0.0,0.0,0.0,0.0,0.0,0.0,0.0,0.0,0.0,0.0,0.0,0.0,0.0,0.0,0.0,0.0,0.0,0.0,0.0,0.0,0.0,0.0,0.0,0.0,0.0,0.0,0.0,0.0,0.0,0.0,0.0,0.0,0.0,0.0,0.0,0.0,0.0,0.0,0.0,0.0,0.0,0.0,0.0,0.0,0.0,0.0,0.0,0.0,0.0,0.0,0.0,0.0,0.0,0.0,0.0,0.0,0.0,0.0,0.0,0.0,0.0,0.0,0.0,0.0,0.0,0.0,0.0,0.0,0.0,0.0,0.0,0.0,0.0,0.0,0.0,0.0,0.0,0.0,0.0,0.0,0.0,0.0,0.0,0.1021,0.0433,0.0,0.0,0.0,0.0,0.0,0.0,0.0,0.0,0.0,0.0,0.0,0.0,0.0,0.0,0.0,0.0,0.0,0.0,0.0,0.0,0.0,0.0,0.0,0.0,0.0,0.0,0.0,0.0,0.0,0.0,0.0,0.0,0.0,0.0,0.0,0.0,0.0,0.0,0.0,0.0,0.0,0.0,0.0,0.0,0.0,0.0,0.0,0.0,0.0,0.0,0.0,0.0,0.0,0.0,0.0,0.0,0.0,0.0,0.0,0.0,0.0,0.0,0.0,0.0,0.0,0.0,0.0,0.0,0.0,0.0,0.0,0.0,0.0,0.0,0.0,0.0,0.0,0.0,0.0,0.0,0.0,0.0,0.0,0.0,0.0,0.0,0.0,0.0,0.0,0.0,0.0,0.0,0.0,0.0,0.0,0.0,0.0,0.0,0.0,0.0,0.0,0.0,0.0,0.0,0.0,0.0,0.0,0.0,0.0,0.0,0.088,0.0359,0.0,0.0,0.0,0.0,0.0,0.0,0.0,0.0,0.0,0.0,0.0,0.0,0.0,0.0,0.0,0.0,0.0,0.0,0.0,0.0,0.0,0.0,0.0,0.0,0.0,0.0,0.0,0.0,0.0,0.0,0.0,0.0,0.0,0.0,0.0,0.0,0.0,0.0,0.0,0.0,0.0,0.0,0.0,0.0,0.0,0.0,0.0,0.0,0.0,0.0,0.0,0.0,0.0,0.0,0.0,0.0,0.0,0.0,0.0,0.0,0.0,0.0,0.0,0.0,0.0,0.0,0.0,0.0,0.0,0.0,0.0,0.0,0.0,0.0,0.0,0.0,0.0,0.0,0.0,0.0,0.0,0.0,0.0,0.0,0.0,0.0,0.0,0.0,0.0,0.0,0.0,0.0,0.0,0.0,0.0,0.0,0.0,0.0,0.0,0.0,0.0,0.0,0.0,0.0,0.0,0.0,0.0,0.0,0.0,0.0,0.0899,0.0347,0.0,0.0,0.0,0.0,0.0,0.0,0.0,0.0,0.0,0.0,0.0,0.0,0.0,0.0,0.0,0.0,0.0,0.0,0.0,0.0,0.0,0.0,0.0,0.0,0.0,0.0,0.0,0.0,0.0,0.0,0.0,0.0,0.0,0.0,0.0,0.0,0.0,0.0,0.0,0.0,0.0,0.0,0.0,0.0,0.0,0.0,0.0,0.0,0.0,0.0,0.0,0.0,0.0,0.0,0.0,0.0,0.0,0.0,0.0,0.0,0.0,0.0,0.0,0.0,0.0,0.0,0.0,0.0,0.0,0.0,0.0,0.0,0.0,0.0,0.0,0.0,0.0,0.0,0.0,0.0,0.0,0.0,0.0,0.0,0.0,0.0,0.0,0.0,0.0,0.0,0.0,0.0,0.0,0.0,0.0,0.0,0.0,0.0,0.0,0.0,0.0,0.0,0.0,0.0,0.0,0.0,0.0,0.0,0.0,0.0,0.0865,0.0335,0.0,0.0,0.0,0.0,0.0,0.0,0.0,0.0,0.0,0.0,0.0,0.0,0.0,0.0,0.0,0.0,0.0,0.0,0.0,0.0,0.0,0.0,0.0,0.0,0.0,0.0,0.0,0.0,0.0,0.0,0.0,0.0,0.0,0.0,0.0,0.0,0.0,0.0,0.0,0.0,0.0,0.0,0.0,0.0,0.0,0.0,0.0,0.0,0.0,0.0,0.0,0.0,0.0,0.0,0.0,0.0,0.0,0.0,0.0,0.0,0.0,0.0,0.0,0.0,0.0,0.0,0.0,0.0,0.0,0.0,0.0,0.0,0.0,0.0,0.0,0.0,0.0,0.0,0.0,0.0,0.0,0.0,0.0,0.0,0.0,0.0,0.0,0.0,0.0,0.0,0.0,0.0,0.0,0.0,0.0,0.0,0.0,0.0,0.0,0.0,0.0,0.0,0.0,0.0,0.0,0.0,0.0,0.0,0.0,0.0,0.0835,0.0325,0.0,0.0,0.0,-0.0064,-0.0057,-0.0054,-0.005,-0.0086,0.0,0.0,0.0,0.0,0.0,0.0,0.0,0.0,0.0,0.0,0.0,0.0,0.0,0.0,0.0,0.0,0.0,0.0,0.0,0.0,0.0,0.0,0.0,0.0,0.0,0.0,0.0,0.0,0.0,0.0,0.0,0.0,0.0,0.0,0.0,0.0,0.0,0.0,0.0,0.0,0.0,0.0,0.0,0.0,0.0,0.0,0.0,0.0,0.0,0.0,0.0,0.0,0.0,0.0,0.0,0.0,0.0,0.0,0.0,0.0,1.4952,0.0,0.0,0.0,0.0,0.0,0.0,0.0,0.0,0.0,0.0,0.0,0.0,0.0,0.0,0.0,0.0,0.0,0.0,0.0,0.0,0.0,0.0,0.0,0.0,0.0,0.0,0.0,0.0,0.0,0.0,0.0,0.0,0.0,0.0,0.0,0.0,0.0,0.0,0.0,0.0,0.0,0.0885,0.0379,-0.0059,-0.0119,-0.0246,-0.037,-0.0527,-0.0592,-0.0646,-0.0653,0.0,0.0,0.0,0.0,0.0,0.0,0.0,0.0,0.0,0.0,0.0,0.0,0.0,0.0,0.0,0.0,0.0,0.0,0.0,0.0,0.0,0.0,0.0,0.0,0.0,0.0,0.0,0.0,0.0,0.0,0.0,0.0,0.0,0.0,0.0,0.0,0.0,0.0,0.0,0.0,0.0,0.0,0.0,0.0,0.0,0.0,0.0,0.0,0.0,0.0,0.0,0.0,0.0,0.0,0.0,0.0,0.0,0.0,0.0,0.0,0.0,1.7329,0.0,0.0,0.0,0.0,0.0,0.0,0.0,0.0,0.0,0.0,0.0,0.0,0.0,0.0,0.0,0.0,0.0,0.0,0.0,0.0,0.0,0.0,0.0,0.0,0.0,0.0,0.0,0.0,0.0,0.0,0.0,0.0,0.0,0.0,0.0,0.0,0.0,0.0,0.0,0.0,0.0885,0.0374,-0.0058,-0.0288,-0.0533,-0.0828,-0.1127,-0.1334,-0.1451,-0.1391,-0.1292,0.0,0.0,0.0,0.0,0.0,0.0,0.0,0.0,0.0,0.0,0.0,0.0,0.0,0.0,0.0,0.0,0.0,0.0,0.0,0.0,0.0,0.0,0.0,0.0,0.0,0.0,0.0,0.0,0.0,0.0,0.0,0.0,0.0,0.0,0.0,0.0,0.0,0.0,0.0,0.0,0.0,0.0,0.0,0.0,0.0,0.0,0.0,0.0,0.0,0.0,0.0,0.0,0.0,2.4838,2.6052,2.7043,2.7048,2.7362,2.7774,2.4832,2.2639,2.113,0.0,0.0,0.0,0.0,0.0,0.0,0.0,0.0,0.0,0.0,0.0,0.0,0.0,0.0,0.0,0.0,0.0,0.0,0.0,0.0,0.0,0.0,0.0,0.0,0.0,0.5155,0.4938,0.0,0.0,0.0,0.0,0.0,0.0,0.0,0.0,0.0,0.0,0.0,0.0,0.085,0.0371,-0.0113,-0.0393,-0.0928,-0.1326,-0.1671,-0.2141,-0.2305,-0.2159,-0.2134,-0.2045,0.0,0.0,0.0,0.0,0.0,0.0,0.0,0.0,0.0,0.0,0.0,0.0,0.0,0.0,0.0,0.0,0.0,0.0,0.0,0.0,0.0,0.0,0.0,0.0,0.0,0.0,0.0,0.0,0.0,0.0,0.0,0.0,1.3103,1.3145,0.0,0.0,0.0,0.0,0.0,0.0,0.0,0.0,0.0,0.0,0.0,0.0,0.0,1.9825,2.317,2.4304,2.6468,2.9626,2.9857,3.0816,3.2377,3.238,3.2419,3.2446,3.2477,0.0,2.5241,2.318,0.0,0.0,0.0,0.0,0.0,0.0,0.0,0.0,0.0,0.0,0.0,0.0,0.0,0.0,0.0,0.0,0.0,0.0,0.0,0.0,0.0,0.0,0.5438,0.5373,0.5477,0.5652,0.0,0.5649,0.5147,0.4874,0.4478,0.0,0.0,0.0,0.0,0.0,0.0,0.0,0.0742,0.0275,-0.0174,-0.0619,-0.1302,-0.1791,-0.2069,-0.2779,-0.3013,-0.2735,-0.259,-0.2555,-0.2577,-0.2576,0.0,0.0,0.0,0.0,0.0,0.0,0.0,0.0,0.0,0.0,0.0,0.0,0.0,0.0,0.0,0.0,0.0,0.0,0.0,0.0,0.0,0.0,0.0,0.0,0.0,0.0,0.0,0.0,0.0,1.2428,1.3774,1.4615,1.4574,1.4469,0.0,0.0,0.0,0.0,0.0,0.0,0.0,0.0,0.0,2.0199,2.1244,2.3447,2.6986,2.89,3.1098,3.3575,3.5018,3.6098,3.6845,3.7339,3.7553,3.758,3.7809,3.5986,3.2501,2.8338,2.5814,2.4289,0.0,0.0,0.0,0.0,1.7264,1.6736,1.5799,1.524,0.0,1.3959,0.0,0.0,0.0,0.0,0.0,0.0,0.0,0.0,0.0,0.0,0.0,0.5847,0.5918,0.6155,0.6684,0.6931,0.6744,0.0,0.5373,0.4616,0.3379,0.0,0.0,0.0,0.0,0.0,0.0618,0.022,-0.023,-0.0807,-0.1653,-0.2371,-0.2711,-0.3564,-0.3965,-0.3591,-0.3524,-0.3465,-0.334,-0.3315,-0.3224,0.0,0.0,0.0,0.0,0.0,0.0,0.0,0.0,0.0,0.0,0.0,0.0,0.0,0.0,0.0,0.0,0.0,0.0,0.0,0.0,0.0,0.0,0.0,0.0,0.0,0.0,0.0,0.0,1.3579,1.4941,1.6251,1.6029,1.5925,0.0,0.0,0.0,0.0,0.0,0.0,1.9722,2.0557,2.1815,2.3632,2.4841,2.7038,3.0267,3.287,3.5014,3.6768,3.8877,4.0,4.0246,4.0896,4.1272,4.1388,4.1354,4.0468,3.8622,3.3461,3.0295,2.8464,2.6304,2.4914,2.3928,2.2322,2.1327,2.0577,1.9261,1.8343,1.7599,1.6719,0.0,1.4124,1.4003,0.0,0.0,0.0,0.0,0.8428,0.7981,0.7066,0.624,0.6396,0.6461,0.6687,0.7244,0.7891,0.8069,0.0,0.6026,0.5036,0.3445,0.0,0.0,0.0,0.0,0.0413,0.033,0.0057,-0.0413,-0.1157,-0.2145,-0.2934,-0.3435,-0.4267,-0.466,-0.4324,-0.4214,-0.4076,-0.3863,-0.3849,-0.371,-0.3373,0.0,0.0,0.0,0.0,0.0,0.0,0.0,0.0,0.0,0.0,0.0,0.0,0.0,0.0,0.0,0.0,0.0,0.0,0.0,0.0,0.0,0.0,0.0,0.0,0.0,0.0,0.0,0.0,0.0,1.8,1.8721,0.0,0.0,0.0,0.0,2.1062,2.2008,2.2923,2.3953,2.4166,2.5064,2.6812,2.8591,3.0728,3.3251,3.5757,3.787,3.9604,4.0501,4.1359,4.2142,4.22,4.2409,4.27,4.2776,4.2422,4.1482,3.7441,3.4343,3.2045,3.0959,2.9491,2.7807,2.6196,2.5036,2.3942,2.1763,2.0603,1.9791,1.8075,1.6251,1.472,1.461,1.4126,0.0,0.0,1.0988,0.9176,0.8566,0.7541,0.6705,0.6858,0.6997,0.7224,0.7911,0.8702,0.8747,0.0,0.6217,0.5202,0.3572,0.0,0.1058,0.0765,0.0583,0.0354,0.0,-0.0378,-0.0908,-0.1866,-0.287,-0.3666,-0.4121,-0.4731,-0.4921,-0.4536,-0.4324,-0.4123,-0.4016,-0.4009,-0.387,-0.3575,-0.3366,0.0,0.0,0.0,0.0,0.0,0.0,0.0,0.0,0.0,0.0,0.0,0.0,0.0,0.0,0.0,0.0,0.0,0.0,0.0,0.0,0.0,0.0,0.0,0.0,0.0,0.0,0.0,0.0,1.9612,2.0873,0.0,0.0,2.2187,2.2803,2.446,2.5408,2.6082,2.6534,2.6655,2.7233,2.8408,2.9997,3.2219,3.508,3.6786,3.8469,4.0142,4.0979,4.1566,4.1864,4.2377,4.2938,4.3453,4.3748,4.3685,4.3312,4.2122,3.9383,3.5848,3.4778,3.3252,3.1465,2.9987,2.8709,2.7476,2.5577,2.4117,2.2614,2.0114,1.85,1.7435,1.6691,1.6042,1.5314,1.3999,1.2062,1.0152,0.9349,0.8001,0.6997,0.7051,0.718,0.7365,0.7681,0.8158,0.8197,0.6781,0.6046,0.5004,0.327,0.1593,0.0361,0.0274,0.0198,0.0,-0.0401,-0.1099,-0.1846,-0.274,-0.3947,-0.4755,-0.4808,-0.5192,-0.5237,-0.4785,-0.4524,-0.4362,-0.4307,-0.4304,-0.4165,-0.387,-0.371,-0.3412,0.0,0.0,0.0,0.0,0.0,0.0,0.0,0.0,0.0,0.0,0.0,0.0,0.0,0.0,0.0,0.0,0.0,0.0,0.0,0.0,0.0,0.0,0.0,0.0,0.0,0.0,2.0052,2.1547,2.2832,2.3909,2.4638,2.4668,2.519,2.647,2.7562,2.8093,2.7944,2.8287,2.885,2.9697,3.1195,3.3268,3.597,3.7525,3.8941,4.0221,4.0996,4.1393,4.1504,4.2066,4.2719,4.3423,4.3825,4.4154,4.4421,4.4793,4.3042,4.004,3.8898,3.7461,3.5834,3.4126,3.2578,3.0973,2.83,2.6294,2.4494,2.189,2.0371,1.9356,1.8127,1.7296,1.6373,1.4719,1.2741,1.0814,0.9841,0.841,0.7231,0.7282,0.7373,0.7499,0.7437,0.7624,0.7492,0.634,0.5636,0.4592,0.2959,0.1221,0.0,0.0,0.0,-0.021,-0.0726,-0.1638,-0.254,-0.3553,-0.4876,-0.5653,-0.5514,-0.5643,-0.5471,-0.502,-0.4657,-0.4519,-0.4519,-0.4519,-0.4321,-0.4026,-0.3771,-0.3446,-0.3049,0.0,0.0,0.0,0.0,0.0,0.0,0.0,0.0,0.0,0.0,0.0,0.0,0.0,0.0,0.0,0.0,0.0,0.0,0.0,0.0,0.0,0.0,0.0,1.6431,1.9519,2.2264,2.3801,2.469,2.5443,2.6117,2.6183,2.6458,2.7092,2.8478,2.8969,2.8309,2.908,2.9909,3.0661,3.2259,3.3996,3.5987,3.8011,3.9328,3.9965,4.0509,4.0902,4.1136,4.1261,4.1753,4.2537,4.3023,4.3812,4.4786,4.52,4.5071,4.4491,4.3243,4.2046,4.0769,3.8522,3.6561,3.4384,2.9807,2.7107,2.5338,2.3366,2.1752,2.0259,1.8868,1.7573,1.6338,1.4917,1.2922,1.1099,1.008,0.8578,0.7414,0.756,0.76,0.7563,0.7404,0.7255,0.6789,0.5897,0.4995,0.3943,0.2696,0.1073,0.0,0.0,0.0,0.0,-0.0939,-0.2006,-0.3063,-0.4243,-0.5489,-0.6288,-0.6215,-0.6006,-0.562,-0.5165,-0.4711,-0.4519,-0.4519,-0.4519,-0.4321,-0.4026,-0.3544,-0.3179,-0.2924,0.0,0.0,0.0,0.0,0.0,0.0,0.0,0.0,0.0,0.0,0.0,0.0,0.0,0.0,0.0,0.0,0.0,0.0,0.0,0.0,0.0,0.0,1.7859,1.851,2.1414,2.4082,2.5691,2.7538,2.8578,2.8223,2.8251,2.8294,2.8335,2.8561,2.8903,2.9337,2.8969,2.9372,3.0791,3.1706,3.3289,3.5685,3.6793,3.7886,3.888,3.8727,3.8809,3.911,3.9425,4.0082,4.0993,4.1677,4.2665,4.3765,4.4402,4.4873,4.5109,4.4253,4.302,4.1581,4.0395,3.8034,3.511,3.2248,2.9986,2.7993,2.5606,2.3473,2.1471,1.9762,1.7959,1.6237,1.478,1.2888,1.1064,0.9917,0.8582,0.7519,0.7451,0.7597,0.7682,0.7428,0.7336,0.7005,0.5916,0.4623,0.3345,0.2418,0.1015,0.0,0.0,0.0,0.0,-0.1146,-0.264,-0.3982,-0.5076,-0.659,-0.7282,-0.692,-0.6454,-0.5895,-0.5332,-0.4831,-0.4519,-0.4519,-0.4519,-0.4321,-0.4026,-0.3788,-0.3524,0.0,0.0,0.0,0.0,0.0,0.0,0.0,0.0,0.0,0.0,0.0,0.0,0.0,0.0,0.0,0.0,0.0,0.0,0.0,0.0,0.0,0.0,1.7756,1.9958,2.1116,2.3317,2.5259,2.6549,2.8161,2.9059,2.8669,2.8448,2.8364,2.854,2.8708,2.904,2.9472,2.9265,2.9659,3.0876,3.1824,3.3363,3.5499,3.6645,3.767,3.846,3.8336,3.842,3.8777,3.921,3.9726,0.0,4.1168,4.2085,4.3018,4.4127,4.5016,0.0,0.0,0.0,0.0,0.0,3.923,3.6538,3.4448,3.2401,3.0198,2.7519,2.4788,2.2108,2.0018,1.7596,1.5342,1.4052,1.222,1.0474,0.9664,0.8422,0.7417,0.7458,0.7645,0.7729,0.7434,0.7319,0.6979,0.5911,0.4347,0.0,0.235,0.0947,0.0,0.0,0.0,-0.0314,-0.1251,-0.2961,-0.4357,-0.539,-0.6979,-0.7821,-0.7282,-0.6749,0.0,0.0,0.0,-0.4596,-0.4522,-0.4406,0.0,0.0,0.0,0.0,0.0,0.0,0.0,0.0,-0.5531,-0.61,0.0,0.0,0.0,0.0,0.0,0.0,0.0,0.0,0.0,0.0,0.0,0.0,0.0,0.0,0.0,0.0,1.9421,2.1563,2.3559,2.4882,2.595,2.6759,2.7487,2.7963,2.8049,2.7536,2.7466,2.8152,2.887,2.9261,2.9285,0.0,0.0,0.0,0.0,3.3647,3.5261,3.6982,3.8003,3.8276,3.8589,3.8916,3.9235,3.9688,3.9978,4.0183,4.1018,4.1708,4.2343,4.397,4.5312,4.6262,4.5858,4.5452,4.4806,4.2538,4.0504,3.8591,3.6703,0.0,0.0,2.9139,2.5854,2.264,2.0024,1.7186,1.4469,1.3305,1.1556,0.9955,0.9352,0.8251,0.7288,0.758,0.776,0.7787,0.7506,0.7326,0.6853,0.5941,0.4351,0.2985,0.2364,0.096,0.0,0.0,0.0,-0.032,-0.1253,-0.2961,-0.4357,-0.539,0.0,0.0,-0.7434,-0.6983,-0.6478,-0.5888,-0.5281,-0.4813,-0.458,-0.4392,-0.4261,-0.4244,-0.4488,-0.4841,-0.5326,-0.6137,-0.7083,-0.8077,-0.7329,-0.7555,0.0,0.0,0.0,0.0,0.0,0.0,0.0,0.0,0.0,0.0,0.0,0.0,0.0,0.0,0.0,1.8231,2.0426,2.2178,2.318,2.4901,2.6356,2.709,2.738,2.7597,2.7748,2.7375,2.7444,2.8289,2.8783,2.9482,3.0432,3.0294,0.0,3.1736,3.2192,3.307,3.4355,3.5962,3.7002,3.7461,0.0,0.0,3.8213,3.8691,3.892,3.8996,3.9867,4.0544,4.1171,4.3005,4.499,4.698,4.735,4.7035,4.6222,4.5021,4.3429,4.1562,3.9479,3.7142,3.4438,3.1105,2.7635,2.4287,2.1443,1.8506,0.0,1.441,1.2604,1.0904,1.021,0.9158,0.8207,0.8203,0.8268,0.8133,0.795,0.779,0.7361,0.6222,0.4742,0.3408,0.2479,0.0978,0.0,0.0,0.0,-0.032,-0.1253,-0.2961,-0.4357,-0.539,-0.6979,-0.7909,-0.7584,-0.7143,-0.6681,-0.6203,-0.5491,-0.5013,-0.484,-0.4806,-0.4731,-0.4606,-0.5199,-0.5892,-0.6537,-0.7655,-0.876,-0.9708,-0.8482,-0.8289,0.0,0.0,0.0,0.0,0.0,0.0,0.0,0.0,0.0,0.0,0.0,1.2802,0.0,0.0,1.7034,1.9074,2.1045,2.2564,2.336,2.4566,2.5742,2.68,2.6972,2.7243,2.7796,2.7502,2.763,2.8566,2.8987,2.9715,3.083,3.0593,3.1045,3.2526,3.2902,3.3779,3.5229,3.6646,3.7525,3.7962,3.8232,3.8547,3.8825,3.9207,3.9423,3.9471,4.0399,4.1083,4.1675,4.4074,4.6229,4.8079,4.8793,4.8069,4.6598,4.6098,4.4853,4.3083,4.0915,3.8464,3.5737,3.241,2.8757,2.5186,2.2501,1.9389,1.6513,1.5144,1.323,1.1495,1.0931,0.992,0.9013,0.8973,0.8617,0.8248,0.817,0.8035,0.7609,0.6466,0.5023,0.3526,0.2549,0.1007,0.0,0.0,0.0,-0.032,-0.1253,-0.2846,-0.4306,-0.5383,-0.6915,-0.7865,-0.7719,-0.7227,-0.6766,-0.639,-0.58,-0.5403,-0.526,-0.5307,-0.5251,-0.5218,-0.5998,-0.6865,-0.7637,-0.8484,-0.9405,-1.045,-0.9472,-0.9177,0.0,0.0,0.0,0.0,0.0,0.0,0.0,0.0,1.1613,1.3429,1.3728,1.4294,1.6289,1.7028,1.7939,1.9826,2.1539,2.2883,2.3616,2.4158,2.497,2.6107,2.6284,2.6681,2.7731,2.7569,2.787,2.9011,2.9401,3.0064,3.114,3.1069,3.1605,3.3052,3.3789,3.4799,3.6211,3.7547,3.8349,3.8632,3.9167,3.9481,3.961,3.995,4.0055,4.0141,4.1171,4.2052,4.2877,4.5329,4.7236,4.872,4.9572,4.8768,4.7075,4.703,4.6049,4.4493,4.239,3.993,3.7142,3.3846,3.0096,2.6419,2.3832,2.0464,1.7346,1.6058,1.4097,1.2349,1.188,1.0817,0.987,0.9774,0.9072,0.8357,0.8357,0.8235,0.7815,0.6776,0.5253,0.3889,0.278,0.1217,0.0091,0.0,0.0,-0.0323,-0.1262,-0.2837,-0.4273,-0.538,-0.6879,-0.7868,-0.7899,-0.7407,-0.697,-0.6664,-0.6224,-0.5911,-0.5769,-0.5859,-0.5896,-0.6025,-0.6888,-0.7841,-0.8713,-0.9101,-0.9777,-1.0624,-1.0272,-1.0054,1.1745,1.1902,0.0,1.2223,1.2334,1.2609,0.0,0.0,1.4112,1.5934,1.6199,1.6676,1.859,1.8902,1.9336,2.0792,2.2235,2.3268,2.3626,2.4221,2.4771,2.5287,2.503,2.544,2.693,2.7365,2.8123,2.9643,3.0099,3.0799,3.1921,3.2101,3.2508,3.3161,3.456,3.5394,3.5619,3.7413,3.8387,3.8462,3.9095,3.9409,3.9409,3.9481,3.9531,3.9663,4.0864,4.2408,4.4229,4.5,4.623,4.7684,4.8855,4.9108,4.8857,4.9143,4.837,4.6951,4.4937,4.2633,3.9998,3.6542,3.2816,2.9138,2.5797,2.2375,1.9343,1.7779,1.5988,1.4282,1.3453,1.2209,1.0999,1.0408,0.9511,0.8662,0.8662,0.854,0.8183,0.7232,0.5872,0.456,0.336,0.1779,0.0547,0.0087,0.0,-0.0337,-0.1295,-0.2813,-0.4252,-0.5388,-0.6964,-0.8069,-0.8208,-0.7909,-0.7587,-0.7288,-0.6848,-0.6532,-0.638,-0.6482,-0.6749,-0.73,-0.7983,-0.8921,-0.9975,-1.0135,-1.022,-1.0121,-1.0477,-1.0661,1.282,0.0,0.0,0.0,1.3805,1.4144,1.5229,1.6007,1.69,1.8333,1.8809,1.9293,2.035,2.0224,2.0368,0.0,2.2614,2.3468,2.3858,2.4304,2.4708,2.5077,2.449,2.4747,2.6726,2.7498,2.8352,2.9472,3.0203,3.1068,3.2144,3.2213,3.2959,3.4607,3.5183,3.6043,3.718,3.7988,3.8601,3.899,3.929,3.9424,3.9424,3.9424,3.9868,4.0704,4.1714,4.3096,4.4627,4.5396,4.6351,4.7482,4.8795,4.9449,4.964,4.9731,4.901,4.7688,4.5953,4.3851,4.1421,3.8248,3.4607,3.0886,2.7742,2.4002,2.0377,1.9087,1.7344,1.571,1.4779,1.3469,1.202,1.1285,0.985,0.871,0.871,0.8591,0.8252,0.7562,0.661,0.5487,0.4261,0.2684,0.1391,0.0802,0.0341,-0.0331,-0.1254,-0.2722,-0.4506,-0.6508,-0.7395,-0.8004,-0.8248,-0.8072,-0.7892,-0.777,-0.7424,-0.7156,-0.7,-0.7213,-0.757,-0.7985,-0.8556,-0.9312,-1.0168,-0.997,-0.9867,-0.9979,-1.0343,-1.0856,1.3487,0.0,0.0,1.4585,1.4964,1.5417,1.6638,1.7705,1.8741,1.9853,2.0384,2.0817,2.1143,2.1004,0.0,2.1872,2.2891,2.3733,2.4189,2.4518,2.4747,2.5009,2.4264,2.4477,2.6264,2.721,2.8225,2.9312,3.017,3.1137,3.2318,3.2631,3.3653,3.5608,3.6079,3.6971,3.8377,3.8571,3.8931,3.9424,3.9424,3.9424,3.9424,3.9496,4.0216,4.1311,4.2157,4.3213,4.4395,4.5425,4.6377,4.7355,4.8763,4.9657,5.0152,5.0145,4.9465,4.8303,4.6643,4.4664,4.2376,3.9267,3.5631,3.1846,2.8967,2.5082,2.1362,2.0302,1.8629,1.6994,1.5958,1.4522,1.2966,1.2068,1.0373,0.8988,0.8882,0.8793,0.8488,0.7915,0.7263,0.6327,0.5069,0.3526,0.2171,0.1445,0.0598,-0.0329,-0.115,-0.2856,-0.4927,-0.7406,-0.7787,-0.8014,-0.8364,-0.8252,-0.818,-0.8221,-0.795,-0.7733,-0.7624,-0.7894,-0.8205,-0.8549,-0.9033,-0.9569,-1.0045,-0.9653,-0.9503,-0.963,-1.017,-1.1229,0.0,0.0,1.4488,1.5068,1.562,1.6266,1.7001,1.7958,1.8995,2.0072,2.0361,2.0489,2.0788,2.1093,2.1394,2.1654,2.3058,2.4245,2.4632,2.4896,2.4995,2.4809,2.4429,2.4515,0.0,2.618,2.749,2.9454,3.0173,3.1061,3.2407,3.3756,3.4726,3.5474,3.733,3.8332,3.8392,3.905,3.9394,3.9424,3.9424,3.9424,3.9409,3.9783,4.0216,4.0758,4.1509,4.2427,4.3469,4.4719,4.595,4.7132,4.8572,4.9655,5.0512,5.0694,5.0164,4.9126,4.7474,4.5373,4.294,3.965,3.5911,3.2068,2.9125,2.5527,2.2265,2.1167,1.9635,1.808,1.6929,1.5417,1.3804,1.263,1.1004,0.9699,0.9482,0.9147,0.8773,0.8412,0.7834,0.7063,0.5583,0.406,0.2686,0.172,0.0692,-0.0336,-0.1176,-0.3481,-0.5759,-0.7564,-0.794,-0.8211,-0.8659,-0.8557,-0.853,-0.8679,-0.8414,-0.8248,-0.8245,-0.8347,-0.8649,-0.9291,-0.9419,-0.9608,-0.9847,-0.963,-0.9268,-0.8933,-1.0135,-1.1753,0.0,0.0,1.5486,1.6435,1.7093,1.7682,1.8459,1.9759,2.0721,2.0713,2.1006,2.1289,2.121,2.1311,2.1661,2.2321,2.3458,2.4343,2.4666,2.4681,2.4668,2.477,2.4181,0.0,0.0,0.0,0.0,2.943,3.0163,3.1285,3.3066,3.3589,3.4741,3.6701,3.7404,3.8167,3.9065,3.9305,3.9424,3.9424,3.9553,3.9696,3.9783,4.0066,4.0385,4.082,4.144,4.219,4.3092,4.465,4.6023,4.7325,4.8796,4.9917,5.0713,5.0828,5.0377,4.9504,4.7905,4.5705,4.3039,3.992,3.5913,3.1944,2.9444,2.62,2.3085,2.1988,2.0459,1.8916,1.7877,1.6274,1.4669,1.3501,1.1982,1.057,1.0033,0.9375,0.8813,0.8763,0.853,0.7985,0.662,0.5084,0.3184,0.0874,-0.0084,-0.0993,-0.2179,-0.3655,-0.5212,-0.7042,-0.733,-0.7766,-0.8513,-0.8425,-0.8404,-0.855,-0.8465,-0.837,-0.8275,-0.8575,-0.8921,-0.9299,-0.9322,-0.9438,-0.9649,-0.9399,-0.9169,-0.8937,-1.0143,-1.1762,0.0,1.5494,1.6324,1.7256,1.7855,1.8337,1.8717,1.9883,2.0725,2.0113,2.0223,2.0407,2.0344,2.05,2.0961,2.1941,2.3093,2.3997,2.4425,2.4633,2.4751,2.4648,2.4455,0.0,0.0,0.0,0.0,2.8757,2.9684,3.1046,3.3036,3.3589,3.4936,3.733,3.7644,3.8302,3.9409,3.9424,3.9424,3.9424,3.9711,3.9965,4.0231,4.0385,4.0578,4.0752,4.1307,4.1868,4.2675,4.4419,4.6076,4.7529,4.9028,5.0126,5.0908,5.0906,5.0477,4.9679,4.8142,4.5881,4.3193,3.9957,3.5976,3.1956,2.9647,2.6611,2.38,2.2702,2.1175,1.9642,1.8499,1.681,1.5108,1.383,1.2309,1.0899,1.0249,0.9485,0.894,0.894,0.894,0.853,0.711,0.5175,0.2919,0.0351,-0.0426,-0.1096,-0.235,-0.3295,-0.4461,-0.6312,-0.6741,-0.7327,-0.836,-0.8323,-0.833,-0.8472,-0.8482,-0.8465,-0.8428,-0.873,-0.8969,-0.9126,-0.9129,-0.9208,-0.9366,-0.9254,-0.9165,-0.9096,-1.0324,-1.197,1.5357,1.6317,1.7117,1.7533,1.7905,1.8133,1.7824,1.8435,1.8963,1.8405,1.8061,1.7963,0.0,0.0,1.9359,2.0638,2.1988,2.3166,2.3923,2.4807,2.5087,0.0,0.0,0.0,0.0,0.0,0.0,2.7575,0.0,3.0447,3.2467,3.3754,3.534,3.7345,3.8018,3.8691,3.9409,3.9424,3.9424,3.9409,3.9783,4.0301,4.0758,4.0836,4.082,4.0758,4.1158,4.1607,4.2157,4.4185,4.6017,4.7721,4.9183,5.0308,5.1053,5.0933,5.0472,4.9711,4.8194,4.6015,4.3287,3.9884,3.6011,3.2166,2.9738,2.6958,2.4332,2.3229,2.1802,2.0269,1.8805,1.7028,1.5131,1.3722,1.2209,1.0907,1.0033,0.9375,0.894,0.894,0.883,0.8446,0.71,0.4497,0.1974,0.0274,-0.0181,-0.0622,-0.1608,-0.2573,-0.3737,-0.5568,-0.6178,-0.7009,-0.8231,-0.8272,-0.833,-0.8472,-0.8489,-0.856,-0.8706,-0.8716,-0.8791,-0.8937,-0.894,-0.9008,-0.9144,-0.915,-0.9228,-0.9371,-1.0643,-1.2343,1.6182,1.7588,1.8655,1.8248,1.819,1.8121,1.7606,1.7549,1.7448,1.6778,1.6454,1.641,0.0,0.0,0.0,1.9825,2.1075,0.0,2.3225,2.3933,0.0,0.0,0.0,2.6861,2.684,2.76,0.0,0.0,2.9101,3.0657,3.311,3.3559,3.4876,3.733,3.7569,3.8227,3.9409,3.9424,3.9424,3.9424,3.9895,4.0462,4.108,4.1292,4.1425,4.1509,4.1964,4.2206,4.2488,4.4326,4.5892,4.7266,4.8712,4.9787,5.0538,5.0757,5.0552,5.0028,4.8965,4.6398,4.316,4.0008,3.5962,3.2029,3.0131,2.762,2.5137,2.4134,2.2593,2.1049,1.9428,1.7219,1.5108,1.3938,1.2309,1.0895,1.0249,0.9485,0.894,0.894,0.8269,0.7114,0.5462,0.3735,0.2058,0.0291,0.0,-0.0377,-0.1155,-0.2126,-0.3364,-0.5108,-0.5917,-0.6911,-0.8241,-0.8272,-0.833,-0.8472,-0.8587,-0.8669,-0.871,-0.8818,-0.8899,-0.894,-0.894,-0.8957,-0.8994,-0.91,-0.9171,-0.9329,-1.0356,-1.1885,1.7333,1.8642,1.9625,1.8774,1.8363,1.7912,1.6987,1.6623,1.6255,1.556,1.5122,0.0,0.0,0.0,0.0,0.0,0.0,0.0,2.2799,2.3659,2.4528,0.0,2.6532,0.0,2.7598,2.8473,2.9146,0.0,2.952,3.0597,3.2946,3.3619,3.4996,3.7345,3.7689,3.8347,3.9409,3.9424,3.9424,3.9424,4.0021,4.0737,4.1543,4.1868,4.219,4.249,0.0,4.2834,4.2953,4.441,4.5621,4.6729,4.8034,4.9003,4.9716,5.0216,5.0298,5.0051,4.9428,4.7636,4.4995,4.1275,3.7215,3.3342,3.1113,2.843,2.5907,2.4627,2.2994,2.1245,1.9517,1.7002,1.4674,1.3393,1.1941,1.0683,1.0028,0.9532,0.9133,0.9133,0.8109,0.6706,0.4914,0.3518,0.2139,0.0304,0.0,-0.0198,-0.0571,-0.1491,-0.2722,-0.4428,-0.5401,-0.6552,-0.8143,-0.8272,-0.836,-0.857,-0.8662,-0.8767,-0.8899,-0.8988,-0.9066,-0.913,-0.9066,-0.9066,-0.9133,-0.9147,-0.9222,-0.9354,-1.0255,-1.1427,1.8672,1.9574,2.0074,1.9125,1.836,1.7505,1.6107,1.5526,1.506,1.4441,0.0,0.0,1.4323,0.0,1.5973,1.7918,0.0,2.1377,2.2613,2.37,2.4641,2.5295,2.6489,2.753,2.8254,2.9263,3.0058,3.0597,3.0148,3.0657,3.2542,3.3814,3.5479,3.7548,3.8252,3.8953,3.9553,3.9553,3.9553,3.9553,4.0316,4.1142,4.2062,4.2553,4.3003,4.3426,0.0,0.0,4.3469,4.4495,4.5406,4.6269,4.7419,4.8293,4.8983,4.9702,5.0004,5.0018,4.9905,4.9302,4.7789,4.3305,3.9189,3.5391,3.2566,2.9477,2.6658,2.5011,2.3185,2.1237,1.9295,1.6573,1.404,1.2668,1.1274,1.0168,0.9628,0.9516,0.9381,0.9381,0.8347,0.6917,0.5081,0.3643,0.2219,0.0317,0.0,0.0,0.0,-0.0888,-0.2149,-0.3831,-0.4988,-0.631,-0.8173,-0.8319,-0.8445,-0.8723,-0.8757,-0.8893,-0.9171,-0.9184,-0.9245,-0.9381,-0.9252,-0.9249,-0.9381,-0.9269,-0.9351,-0.9608,-1.022,-1.1129,1.996,2.0165,1.9993,1.8988,1.8002,1.6895,1.5222,1.4137,0.0,0.0,0.0,1.1838,1.2994,0.0,0.0,1.6782,0.0,0.0,0.0,0.0,2.4807,0.0,0.0,0.0,0.0,0.0,0.0,0.0,0.0,3.1824,3.3245,3.4053,3.5819,3.8637,3.9488,4.0039,4.0316,4.0316,4.0316,4.0316,4.1055,4.1738,4.2458,4.3125,4.3663,4.4054,4.4202,0.0,4.4112,4.5054,4.5833,4.6454,4.7674,4.863,4.9467,5.0152,5.0546,5.0796,5.1258,5.0888,4.9452,4.5089,4.0855,3.7026,3.4299,3.0696,2.7115,2.5577,2.3475,2.1237,1.908,1.6025,1.3212,1.2192,1.0587,0.9412,0.9428,0.9364,0.9381,0.9381,0.8416,0.6931,0.5004,0.3768,0.2306,0.0334,0.0,0.0,0.0,-0.0933,-0.2265,-0.3985,-0.5137,-0.6503,-0.8334,-0.856,-0.871,-0.8889,-0.9011,-0.9157,-0.9334,-0.934,-0.9354,-0.9381,-0.9354,-0.9354,-0.9381,-0.9483,-0.9557,-0.9612,-1.0088,-1.0759,2.0514,2.0868,2.0773,1.9171,1.8014,1.6783,1.4892,0.0,0.0,0.0,0.0,1.1212,1.1932,0.0,0.0,0.0,0.0,0.0,0.0,0.0,0.0,0.0,0.0,0.0,0.0,0.0,0.0,0.0,0.0,0.0,3.3425,3.5277,3.7415,3.984,4.0415,4.0909,4.126,4.126,4.126,4.126,4.1787,4.2364,4.2909,4.3604,4.4282,4.4858,4.5035,0.0,4.493,4.558,4.6028,4.6347,4.7547,4.8457,4.9164,4.9976,5.0506,5.0912,5.1699,5.1481,5.0391,4.7543,4.3595,3.9289,3.6289,3.2362,2.8572,2.6923,2.4592,2.222,1.9901,1.6761,1.3734,1.2524,1.0815,0.9432,0.9578,0.9608,0.9608,0.9608,0.8585,0.7173,0.5104,0.382,0.2328,0.0338,0.0,0.0,0.0,-0.0853,-0.2251,-0.4137,-0.5452,-0.6893,-0.8716,-0.8899,-0.9042,-0.9273,-0.9354,-0.9456,-0.9605,-0.9608,-0.9608,-0.9608,-0.9537,-0.95,-0.95,-0.9493,-0.9534,-0.9612,-0.9799,-1.0112,2.1002,2.1475,2.1431,1.9556,1.8189,1.6796,1.4791,1.3336,0.0,0.0,0.0,0.0,0.0,0.0,0.0,0.0,0.0,0.0,0.0,0.0,0.0,0.0,0.0,0.0,0.0,0.0,0.0,0.0,0.0,0.0,3.3858,3.6542,3.8892,4.0779,4.1162,4.1674,4.2205,4.2205,4.2205,4.2269,4.2599,4.297,4.3426,4.4071,4.4838,4.5614,4.5666,0.0,0.0,4.6165,4.6342,4.6507,4.7581,4.8439,4.9164,4.9952,5.0497,5.0967,5.2012,5.19,5.1046,4.976,4.5997,4.1334,3.8032,3.3916,3.0014,2.8145,2.59,2.3394,2.1025,1.7799,1.4579,1.251,1.0828,0.9686,0.9795,0.9822,0.9822,0.9822,0.8723,0.7253,0.5286,0.3841,0.2328,0.0338,0.0,0.0,0.0,-0.0758,-0.199,-0.3815,-0.5284,-0.6899,-0.8843,-0.9087,-0.932,-0.9591,-0.9608,-0.9673,-0.9815,-0.9822,-0.9822,-0.9822,-0.971,-0.9656,-0.9656,-0.9534,-0.9537,-0.9656,-0.9656,-0.9713,2.1757,2.181,2.1342,2.0207,1.8509,1.6631,1.4885,0.0,0.0,0.0,1.0056,0.9721,1.0367,0.0,0.0,0.0,0.0,0.0,0.0,0.0,0.0,0.0,0.0,0.0,0.0,0.0,0.0,0.0,0.0,0.0,3.525,3.7203,3.9159,4.11,4.1738,4.2349,4.2974,4.2974,4.2974,4.3035,4.3323,4.3578,4.3756,4.4575,4.5249,4.585,4.607,0.0,0.0,4.6799,4.7122,4.7393,4.841,4.9337,5.0195,5.0602,5.0913,5.1356,5.2787,5.2643,5.1695,5.0733,4.6872,4.2019,3.9087,3.4704,3.05,2.8953,2.672,2.4333,2.1663,1.8543,1.5019,1.0821,0.9816,0.9805,0.9819,0.9822,0.9822,0.9822,0.8723,0.7253,0.5286,0.3841,0.2328,0.0338,0.0,0.0,0.0,-0.0652,-0.1463,-0.2511,-0.4462,-0.6334,-0.8296,-0.8778,-0.9082,-0.9598,-0.9608,-0.9673,-0.9815,-0.9822,-0.9822,-0.9822,-0.9808,-0.9802,-0.9802,-0.9788,-0.9788,-0.9802,-0.9802,-0.9808,2.0282,2.0935,2.1144,1.9381,1.8046,1.6691,1.4969,0.0,0.0,1.1113,1.0363,0.9852,1.0155,0.0,0.0,0.0,0.0,0.0,0.0,0.0,0.0,0.0,0.0,0.0,0.0,0.0,0.0,0.0,0.0,0.0,3.5148,3.7216,3.9392,4.1627,4.238,4.3096,4.3964,4.4023,4.4023,4.4023,4.4138,4.4212,4.4327,4.4961,4.558,4.6209,4.6554,0.0,0.0,4.7591,4.7931,4.8216,4.9192,5.0064,5.0798,5.1024,5.1181,5.1447,5.2317,5.1855,5.0732,4.9934,4.6479,4.2215,3.9782,3.5618,3.1362,2.9659,2.7036,2.4273,2.1739,1.7736,1.362,1.043,0.9781,0.9822,0.9822,0.9822,0.9822,0.9822,0.8723,0.7253,0.5286,0.3841,0.2328,0.0338,0.0,0.0,0.0,-0.0427,-0.0994,-0.1831,-0.3619,-0.5698,-0.7581,-0.8321,-0.8951,-0.9734,-0.9737,-0.9764,-0.9819,-0.9822,-0.9822,-0.9822,-0.9822,-0.9822,-0.9822,-0.9822,-0.9822,-0.9822,-0.9822,-0.9822,1.9151,2.023,2.0836,1.8946,1.7891,1.6888,0.0,0.0,1.1758,1.1686,1.0906,1.0325,1.052,1.1131,1.1965,0.0,0.0,0.0,0.0,0.0,0.0,0.0,0.0,0.0,0.0,0.0,0.0,0.0,0.0,0.0,0.0,3.7358,3.9597,4.1772,4.2766,4.3654,4.457,4.4587,4.4587,4.4587,4.4626,4.4682,4.4737,4.5336,4.5935,4.656,0.0,0.0,0.0,4.8251,4.8618,4.8896,4.9771,5.0509,5.1121,5.1257,5.1328,5.1427,5.208,5.1461,5.018,4.9337,4.6246,4.2393,3.9943,3.5956,3.1814,2.9745,2.6281,2.2422,1.978,1.6082,1.2337,1.0301,0.9822,0.9822,0.9822,0.9822,0.9822,0.9822,0.8723,0.7253,0.5286,0.3841,0.2328,0.0338,0.0,0.0,0.0,-0.021,-0.0434,-0.1022,-0.2581,-0.4572,-0.6862,-0.7861,-0.872,-0.97,-0.9822,-0.9822,-0.9822,-0.9822,-0.9822,-0.9822,-0.9822,-0.9822,-0.9822,-0.9822,-0.9822,-0.9822,-0.9822,-0.9846,1.8817,1.9986,2.0469,1.9446,1.8358,1.7169,0.0,1.3723,1.2055,1.2255,1.1532,1.1028,1.1504,1.1389,1.1666,0.0,0.0,0.0,0.0,0.0,0.0,0.0,0.0,0.0,0.0,0.0,0.0,0.0,0.0,0.0,0.0,3.755,3.9566,4.1419,4.2867,4.3889,4.457,4.4587,4.4587,4.4587,4.472,4.4886,4.5032,4.5684,4.6297,0.0,0.0,0.0,0.0,4.873,4.9126,4.9361,5.0119,5.0682,5.1136,5.126,5.1257,5.1356,5.2413,5.1888,5.0525,4.9451,4.6502,4.2786,3.9585,3.5668,3.1803,2.9255,2.4082,1.85,1.529,1.3347,1.1856,1.0179,0.9822,0.9822,0.9822,0.9822,0.9822,0.9822,0.8723,0.7253,0.5286,0.3841,0.2328,0.0338,0.0,0.0,0.0,0.0,0.0,0.0,-0.127,-0.3214,-0.613,-0.7378,-0.848,-0.9697,-0.9822,-0.9822,-0.9822,-0.9822,-0.9822,-0.9822,-0.9822,-0.9822,-0.9822,-0.9822,-0.9822,-0.9822,-0.9822,-0.99,1.6631,1.7875,1.8757,1.7817,1.7079,1.6308,1.5053,1.3533,1.2262,1.2061,1.1573,1.1179,1.1194,1.1575,1.2068,1.267,0.0,0.0,0.0,0.0,0.0,0.0,0.0,0.0,0.0,0.0,0.0,0.0,0.0,0.0,0.0,3.7608,3.9772,4.1901,4.2626,4.3487,4.457,4.4587,4.4587,4.457,4.4831,4.5069,4.5372,4.5935,0.0,0.0,0.0,0.0,0.0,4.915,4.9541,4.9892,5.037,5.0756,5.1097,5.1154,5.1024,5.0922,5.1348,5.0411,4.8932,4.8002,4.5242,4.1685,3.9198,3.5503,3.1127,2.5251,2.0856,1.7137,1.3836,1.22,1.1265,1.0061,0.9822,0.9822,0.9822,0.9822,0.9822,0.9822,0.8967,0.7617,0.5898,0.4438,0.2909,0.1014,0.0436,0.0211,0.0,0.0,0.0,0.0,-0.1023,-0.2708,-0.5145,-0.6517,-0.7989,-0.97,-0.9822,-0.9822,-0.9822,-0.9822,-0.9822,-0.9822,-0.9822,-0.9822,-0.9822,-0.9822,-0.9822,-0.9822,-0.9927,-1.0059,0.0,1.6291,1.7148,1.6463,1.6066,1.5519,1.4516,1.3317,1.233,1.2119,1.177,1.1502,1.1514,1.1784,1.2223,1.2811,0.0,0.0,0.0,0.0,0.0,0.0,0.0,0.0,0.0,0.0,0.0,0.0,0.0,0.0,0.0,3.767,3.9747,4.2142,4.2679,4.344,4.457,4.4587,4.4587,4.457,4.4923,4.5249,4.5648,4.631,0.0,0.0,0.0,0.0,0.0,4.9569,4.9903,5.0249,5.0548,5.0863,5.1111,5.1101,5.0909,5.0664,5.1072,5.0071,4.8534,4.7663,4.4211,3.9815,3.6909,3.3221,2.8735,2.2354,1.8474,1.5515,1.2209,1.1023,1.0547,0.994,0.9822,0.9822,0.9822,0.9822,0.9822,0.9822,0.9089,0.8111,0.6752,0.5298,0.3753,0.1818,0.11,0.0638,0.0103,0.0,0.0,0.0,-0.0785,-0.209,-0.3886,-0.5515,-0.7375,-0.9335,-0.9579,-0.97,-0.9822,-0.9822,-0.9822,-0.9822,-0.9822,-0.9822,-0.9822,-0.9822,-0.9849,-0.991,-1.0063,-1.0215,0.0,1.5124,1.5666,1.5433,1.5212,1.486,1.4156,1.3068,0.0,1.2332,1.2051,1.1896,1.2284,1.2038,1.2156,0.0,0.0,0.0,0.0,0.0,0.0,0.0,0.0,0.0,0.0,0.0,0.0,0.0,0.0,0.0,0.0,3.7734,3.9511,4.2151,4.2804,4.358,4.457,4.4587,4.4587,4.457,4.5032,4.5459,4.595,4.6753,0.0,0.0,0.0,0.0,0.0,4.994,5.0255,5.0459,5.0699,5.0932,5.1097,5.1093,5.083,5.0562,5.1315,5.0528,4.8996,4.781,4.3319,3.7573,3.3557,2.9528,2.5295,2.043,1.6967,1.3889,1.066,0.9822,0.9822,0.9822,0.9822,0.9822,0.9822,0.9822,0.9822,0.9822,0.9335,0.8601,0.7609,0.6306,0.4758,0.2884,0.2012,0.1191,0.0105,0.0,0.0,0.0,-0.0555,-0.1372,-0.2393,-0.4506,-0.6634,-0.8604,-0.9092,-0.9457,-0.9822,-0.9822,-0.9822,-0.9822,-0.9832,-0.9836,-0.9836,-0.9846,-0.9927,-1.007,-1.0222,-1.0368,1.1356,0.0,1.4902,1.4287,1.4361,1.4267,0.0,1.2638,1.226,0.0,0.0,0.0,0.0,0.0,0.0,0.0,0.0,0.0,0.0,0.0,0.0,0.0,0.0,0.0,0.0,0.0,0.0,0.0,0.0,0.0,0.0,3.7716,3.914,4.1699,4.1989,4.289,4.4553,4.4587,4.4587,4.4643,4.514,4.5683,4.6288,4.7124,0.0,0.0,0.0,0.0,4.9987,5.0217,5.0438,5.0663,5.0808,5.0967,5.1092,5.0972,5.0555,5.0088,5.0341,4.9331,4.7452,4.4118,4.0937,3.7573,3.3557,2.9528,2.5295,2.043,1.6967,1.3889,1.066,0.9822,0.9822,0.9822,0.9822,0.9822,0.9822,0.9822,0.9822,0.9822,0.9457,0.897,0.823,0.704,0.5497,0.3515,0.2389,0.1328,0.0108,0.0,0.0,0.0,-0.0333,-0.091,-0.165,-0.3596,-0.5585,-0.7604,-0.823,-0.8967,-0.9819,-0.9822,-0.9822,-0.9822,-0.9934,-0.9995,-0.9995,-1.0114,-1.0192,-1.0229,-1.0375,-1.046,1.0439,1.2089,1.3406,1.3321,1.3475,1.3483,1.2838,0.0,0.0,0.0,0.0,0.0,0.0,0.0,0.0,0.0,0.0,0.0,0.0,0.0,0.0,0.0,0.0,0.0,0.0,0.0,0.0,0.0,0.0,0.0,0.0,3.7669,3.9037,4.1209,4.1816,4.2839,4.4394,4.4412,4.4582,4.4978,4.5529,4.6084,4.6671,4.747,4.8272,0.0,0.0,0.0,5.0245,5.0421,5.0586,5.0758,5.0902,5.1029,5.1145,5.0996,5.0511,4.9908,4.9987,4.8688,4.6411,4.2762,3.9981,3.7143,3.3128,2.8985,2.4749,2.0323,1.6967,1.3889,1.066,0.9822,0.9822,0.9822,0.9822,0.9822,0.9822,0.9822,0.9822,0.9822,0.97,0.9457,0.9089,0.7936,0.6422,0.4444,0.3159,0.183,0.0227,0.0,0.0,0.0,-0.0112,-0.0455,-0.0822,-0.2029,-0.3873,-0.6379,-0.725,-0.8233,-0.9335,-0.9457,-0.9734,-0.9924,-1.0008,-1.0086,-1.0154,-1.0239,-1.0314,-1.0378,-1.0456,-1.0527,1.0324,1.1221,1.1954,1.2636,1.2951,1.3086,1.2996,0.0,0.0,0.0,0.0,0.0,0.0,0.0,0.0,0.0,0.0,0.0,0.0,0.0,0.0,0.0,0.0,0.0,0.0,0.0,0.0,0.0,0.0,0.0,0.0,3.7729,3.9044,4.0741,4.1789,4.2857,4.4073,4.4248,4.4681,4.539,4.6017,4.6537,4.6981,4.7797,4.8549,0.0,0.0,0.0,5.0459,5.0567,5.0701,5.0829,5.0956,5.1092,5.1175,5.1055,5.0519,4.986,4.9533,4.7921,4.5456,4.231,3.9464,3.6491,3.2449,2.817,2.3997,1.9877,1.6739,1.3765,1.066,0.9822,0.9822,0.9822,0.9822,0.9822,0.9822,0.9822,0.9822,0.9822,0.9822,0.9822,0.9822,0.8741,0.7278,0.5179,0.3858,0.2252,0.0237,0.0,0.0,0.0,0.0,0.0,0.0,-0.0598,-0.2062,-0.4671,-0.5904,-0.7141,-0.876,-0.9268,-0.9585,-1.0083,-1.0107,-1.0181,-1.0314,-1.0337,-1.0409,-1.0527,-1.0527,-1.0595,0.968,1.0907,1.1954,1.2636,1.3645,1.4333,0.0,0.0,0.0,0.0,0.0,0.0,0.0,0.0,0.0,0.0,0.0,0.0,0.0,0.0,0.0,0.0,0.0,0.0,0.0,0.0,0.0,0.0,0.0,0.0,0.0,0.0,3.8984,4.028,4.1323,4.2405,4.3509,4.4569,4.51,4.5223,4.6276,4.6981,4.736,4.8059,4.876,0.0,0.0,5.0283,5.0663,5.0739,5.0816,5.0894,5.1037,5.1125,5.1175,5.1042,5.053,4.9626,4.7638,4.591,4.3984,4.0888,3.8274,3.5527,3.0954,2.7151,2.3213,1.8538,1.5708,1.3526,1.0539,0.9822,0.9822,0.9822,0.9822,0.9822,0.9822,0.9822,0.9822,0.9822,0.9822,0.9822,0.9822,0.882,0.7269,0.5256,0.3829,0.2325,0.0245,0.0,0.0,0.0,0.0,0.0,0.0,-0.0359,-0.0971,-0.2093,-0.3816,-0.5937,-0.8516,-0.9635,-1.0219,-1.0246,-1.0365,-1.0436,-1.046,-1.0588,-1.0663,-1.0683,-1.0683,-1.0697,1.0039,1.1087,1.2044,1.3077,1.4079,1.4707,0.0,0.0,0.0,0.0,0.0,0.0,0.0,0.0,0.0,0.0,0.0,0.0,0.0,0.0,0.0,0.0,0.0,0.0,0.0,0.0,0.0,0.0,0.0,0.0,0.0,0.0,3.8903,3.9876,4.1279,4.2365,4.3014,4.4026,4.4839,4.5534,4.6239,4.6938,4.7632,4.8271,4.8915,4.9504,0.0,5.0325,5.0721,5.0812,5.0887,5.0966,5.1101,5.123,5.1231,5.0635,4.9966,4.9145,4.7295,4.5943,4.4496,4.1355,3.8552,3.5491,3.0687,2.6533,2.2456,1.7664,1.515,1.3297,1.0543,0.9822,0.9822,0.9822,0.9822,0.9822,0.9822,0.9822,0.9822,0.9822,0.9822,0.9846,0.993,0.8883,0.7333,0.526,0.3944,0.2399,0.0253,0.0,0.0,0.0,0.0,0.0,0.0,-0.0122,-0.0868,-0.2244,-0.3988,-0.5767,-0.7504,-0.8583,-0.9291,-0.9494,-0.9812,-1.0012,-1.0353,-1.0555,-1.0721,-1.0721,-1.0721,-1.0721,1.0439,1.1156,1.1939,1.3436,0.0,1.5052,1.5216,0.0,0.0,0.0,0.0,0.0,0.0,0.0,0.0,0.0,0.0,0.0,0.0,0.0,0.0,0.0,0.0,0.0,0.0,0.0,0.0,0.0,0.0,0.0,0.0,0.0,3.8903,3.9775,4.1316,4.2251,4.2537,4.317,4.4114,4.5362,4.6038,4.6835,4.7642,4.8403,4.9034,4.9504,4.9922,5.0325,5.0702,5.0829,5.0955,5.1029,5.1167,5.1265,5.1199,5.0258,4.9555,4.8828,4.7482,4.6395,4.5097,4.1845,3.8866,3.5474,3.028,2.5838,2.1579,1.7008,1.4589,1.2946,1.0422,0.9822,0.9822,0.9822,0.9822,0.9822,0.9822,0.9822,0.9822,0.9822,0.9822,0.9869,1.0022,0.8952,0.7524,0.5622,0.4168,0.2591,0.0519,0.0126,0.0123,0.0,0.0,0.0,0.0,0.0,-0.0632,-0.228,-0.3936,-0.511,-0.5943,-0.6873,-0.7704,-0.8314,-0.8839,-0.9416,-0.9921,-1.0455,-1.0721,-1.0721,-1.0721,-1.0721,1.0439,1.0842,1.1335,1.3316,0.0,0.0,1.6443,0.0,0.0,0.0,0.0,0.0,0.0,0.0,0.0,0.0,0.0,0.0,0.0,0.0,0.0,0.0,0.0,0.0,0.0,0.0,0.0,0.0,0.0,0.0,0.0,0.0,0.0,4.0295,4.1174,4.1788,4.2074,4.2163,4.2834,4.4065,4.5842,4.6843,4.7186,4.8381,4.9104,4.9504,4.9922,5.0325,5.0702,5.0844,5.0967,5.1111,5.1228,5.1211,5.1026,5.0217,4.9604,4.9014,4.7809,4.6513,4.4891,4.1664,3.841,3.4645,2.8894,2.4744,2.0907,1.6099,1.378,1.2354,1.0304,0.9822,0.9822,0.9822,0.9822,0.9822,0.9822,0.9822,0.9822,0.9822,0.9822,0.9869,1.0022,0.9283,0.8127,0.6421,0.4991,0.3416,0.1316,0.0642,0.0374,0.0,0.0,0.0,0.0,0.0,-0.0254,-0.0644,-0.2084,-0.3146,-0.3938,-0.5046,-0.5884,-0.6556,-0.7621,-0.8429,-0.9117,-1.0183,-1.0721,-1.0721,-1.0721,-1.0721,1.1191,1.1431,1.1805,1.3406,0.0,0.0,0.0,0.0,0.0,0.0,0.0,0.0,0.0,0.0,0.0,0.0,0.0,0.0,0.0,0.0,0.0,0.0,0.0,0.0,0.0,0.0,0.0,0.0,0.0,0.0,0.0,0.0,0.0,4.0018,4.0791,4.1265,4.1331,4.1534,4.198,4.2608,4.4809,4.6275,4.715,4.8344,4.9137,4.9504,4.9922,5.0325,5.0702,5.0825,5.0983,5.1106,5.1297,5.1255,5.1,5.0207,4.9634,4.9127,4.8043,4.7055,4.5788,4.2404,3.9246,3.5734,3.0109,2.5927,2.2173,1.8068,1.5537,1.354,1.0543,0.9822,0.9822,0.9822,0.9822,0.9822,0.9822,0.9822,0.9822,0.9822,0.9822,0.99,1.0148,0.9475,0.8674,0.7549,0.6119,0.4513,0.237,0.1541,0.087,0.0119,0.0,0.0,0.0,0.0,0.0,-0.0131,-0.1313,-0.2247,-0.2799,-0.3617,-0.4433,-0.5101,-0.6168,-0.7107,-0.7784,-0.8853,-0.9519,-0.9649,-0.9918,-1.0183,1.1565,1.1655,1.1865,0.0,0.0,0.0,0.0,0.0,0.0,0.0,0.0,0.0,0.0,0.0,0.0,0.0,0.0,0.0,0.0,0.0,0.0,0.0,0.0,0.0,0.0,0.0,0.0,0.0,0.0,0.0,0.0,0.0,0.0,0.0,4.059,4.0913,4.0938,4.1283,4.1622,4.1973,4.3989,4.5455,4.6379,4.7585,4.837,4.873,4.939,4.9924,5.0317,5.0728,5.1,5.1183,5.1343,5.1277,5.1,5.0207,4.9663,4.9239,4.8272,4.7458,4.6215,4.2831,3.9788,3.6508,3.0908,2.7043,2.3842,2.0338,1.772,1.5403,1.2059,1.0646,1.0061,0.9822,0.9822,0.9822,0.9822,0.9822,0.9822,0.9822,0.9822,0.9903,1.0164,0.9697,0.9003,0.8298,0.7169,0.5578,0.3554,0.2577,0.162,0.0355,0.0116,0.0,0.0,0.0,0.0,0.0,-0.0654,-0.1193,-0.1479,-0.1883,-0.2555,-0.3226,-0.4296,-0.5233,-0.6044,-0.7111,-0.7777,-0.831,-0.8842,-0.938,1.1461,1.1326,0.0,0.0,0.0,0.0,0.0,0.0,0.0,0.0,0.0,0.0,0.0,0.0,0.0,0.0,0.0,0.0,0.0,0.0,0.0,0.0,0.0,0.0,0.0,0.0,0.0,0.0,0.0,0.0,0.0,0.0,0.0,0.0,4.068,4.0776,4.1024,4.1408,4.1788,4.2216,4.3565,4.4363,4.4727,4.5938,4.6688,4.7078,4.8277,4.9048,4.949,5.0477,5.1066,5.1308,5.1363,5.1277,5.1,5.0188,4.9711,4.9386,4.8568,4.7581,4.6044,4.2655,3.9831,3.6724,3.1016,2.7969,2.5775,2.2417,1.9967,1.7689,1.5061,1.264,1.0668,0.9943,0.9822,0.9822,0.9822,0.9822,0.9822,0.9822,0.9822,0.9869,1.0022,0.9679,0.9349,0.8852,0.7938,0.6697,0.4865,0.3768,0.2518,0.0711,0.0229,0.0,0.0,0.0,0.0,0.0,0.0,0.0,0.0,0.0,-0.0404,-0.1077,-0.215,-0.3089,-0.3762,-0.483,-0.5765,-0.6433,-0.7498,-0.8435,1.1565,0.0,0.0,0.0,0.0,0.0,0.0,0.0,0.0,0.0,0.0,0.0,0.0,0.0,0.0,0.0,0.0,0.0,0.0,0.0,0.0,0.0,0.0,0.0,0.0,0.0,0.0,0.0,0.0,0.0,0.0,0.0,0.0,0.0,4.0419,4.0693,4.0938,4.1428,4.1966,4.2577,4.3232,4.4051,4.4955,4.6164,4.688,4.7269,4.8438,4.9133,4.949,5.059,5.1144,5.1308,5.1363,5.1285,5.1035,5.0408,4.9922,4.9456,4.8639,4.7677,4.6255,4.3377,4.077,3.782,3.283,2.9912,2.766,2.487,2.2189,1.98,1.7677,1.5376,1.2813,1.0422,0.9822,0.9822,0.9822,0.9822,0.9822,0.9822,0.9822,0.9869,1.0022,0.9925,0.985,0.9875,0.9157,0.7829,0.5537,0.3842,0.241,0.1374,0.0442,0.0,0.0,0.0,0.0,0.0,0.0,0.0,0.0,0.0,-0.0269,-0.0673,-0.1479,-0.215,-0.2688,-0.3493,-0.4164,-0.4967,-0.6034,-0.6973,1.188,0.0,0.0,0.0,0.0,0.0,0.0,0.0,0.0,0.0,0.0,0.0,0.0,0.0,0.0,0.0,0.0,0.0,0.0,0.0,0.0,0.0,0.0,0.0,0.0,0.0,0.0,0.0,0.0,0.0,0.0,0.0,0.0,0.0,4.046,4.0896,4.1196,4.1803,4.236,4.2921,4.3389,4.4017,4.4823,4.5533,4.6081,4.6478,4.7649,4.8683,4.9541,5.0278,5.086,5.1308,5.1363,5.1294,5.1074,5.0561,5.0064,4.9514,4.8563,4.7486,4.6082,4.3547,4.1163,3.8422,3.3866,3.1308,2.9528,2.6886,2.448,2.2212,2.0102,1.7817,1.5171,1.1619,1.0668,1.0547,1.0547,1.0547,1.0304,1.0183,1.0061,0.9971,0.9944,0.9958,0.9988,1.0083,0.9437,0.8281,0.635,0.463,0.3088,0.218,0.0987,0.0322,0.0219,0.0112,0.0,0.0,0.0,0.0,0.0,0.0,-0.0135,-0.0269,-0.0673,-0.1076,-0.1345,-0.1749,-0.2286,-0.3093,-0.4185,-0.5007,0.0,0.0,0.0,0.0,0.0,0.0,0.0,0.0,0.0,0.0,0.0,0.0,0.0,0.0,0.0,0.0,0.0,0.0,0.0,0.0,0.0,0.0,0.0,0.0,0.0,0.0,0.0,0.0,0.0,0.0,0.0,0.0,0.0,3.9303,4.0522,4.1348,4.1796,4.244,4.2958,0.0,4.3886,4.4279,4.4565,4.4546,4.4814,4.5333,4.6436,4.794,4.964,4.9749,5.0394,5.1313,5.1385,5.1316,5.1146,5.069,5.0176,4.953,4.8379,4.7126,4.5641,4.3468,4.127,3.8655,3.4405,3.242,3.124,2.8438,2.6537,2.4701,2.224,1.9988,1.7505,1.3531,1.2354,1.2113,1.2113,1.1752,1.139,1.1027,1.0668,1.0304,0.9822,0.9822,0.9822,0.9822,0.9202,0.8439,0.7426,0.5892,0.4556,0.3294,0.1887,0.0859,0.0544,0.0221,0.0,0.0,0.0,0.0,0.0,0.0,0.0,0.0,0.0,0.0,0.0,0.0,-0.0404,-0.1077,-0.2181,-0.3015,0.0,0.0,0.0,0.0,0.0,0.0,0.0,0.0,0.0,0.0,0.0,0.0,0.0,0.0,0.0,0.0,0.0,0.0,0.0,0.0,0.0,0.0,0.0,0.0,0.0,0.0,0.0,0.0,0.0,0.0,0.0,0.0,0.0,3.8805,4.0088,4.1304,4.248,4.2921,4.3406,0.0,4.4213,4.4617,4.4985,4.4976,4.5519,4.6455,4.6831,4.8052,4.9757,4.9853,5.0459,5.1372,5.1398,5.132,5.115,5.0855,5.0246,4.9466,4.8394,4.7181,4.586,4.4142,4.2045,3.9446,3.5344,3.3269,3.172,2.8541,2.6644,2.5049,2.3095,2.1086,1.8835,1.6509,1.4966,1.4009,1.4009,1.354,1.2946,1.2101,1.1507,1.0789,0.994,0.9822,0.9822,0.9822,0.9833,0.9548,0.8556,0.7691,0.6469,0.4987,0.3224,0.1826,0.1156,0.0421,0.0,0.0,0.0,0.0,0.0,0.0,0.0,0.0,0.0,0.0,0.0,0.0,-0.0269,-0.0673,-0.15,-0.2058,0.0,0.0,0.0,0.0,0.0,0.0,0.0,0.0,0.0,0.0,0.0,0.0,0.0,0.0,0.0,0.0,0.0,0.0,0.0,0.0,0.0,0.0,0.0,0.0,0.0,0.0,0.0,0.0,0.0,0.0,0.0,3.5888,3.7034,3.777,3.9776,4.1292,4.2247,4.3101,4.3707,4.4154,4.453,4.491,4.5302,4.5321,4.5688,4.629,4.6386,4.7249,4.86,4.869,4.9515,5.0778,5.0743,5.092,5.1178,5.0924,5.0339,4.9456,4.8229,4.715,4.6059,4.4678,4.2569,3.991,3.5981,3.3629,3.1547,2.8096,2.6426,2.5351,2.3549,2.203,2.0472,1.8642,1.675,1.5553,1.5553,1.4852,1.4028,1.2937,1.2105,1.1152,0.994,0.9822,0.9822,0.9822,1.0019,0.9837,0.9123,0.8535,0.7593,0.6127,0.4412,0.307,0.2373,0.1379,0.0851,0.0874,0.0903,0.0817,0.0724,0.0498,0.0383,0.0,0.0,0.0,0.0,0.0,-0.0135,-0.0269,-0.0687,-0.0971,0.0,0.0,0.0,0.0,0.0,0.0,0.0,0.0,0.0,0.0,0.0,0.0,0.0,0.0,0.0,0.0,0.0,0.0,0.0,0.0,0.0,0.0,0.0,0.0,0.0,0.0,0.0,0.0,0.0,0.0,3.3034,3.466,3.589,3.6439,3.9118,4.0921,4.1685,4.2938,4.3819,4.4374,4.4808,4.5197,4.5513,4.5568,4.5654,4.5715,4.5789,4.6403,4.7308,4.7399,4.8476,5.0098,5.0009,5.0465,5.1146,5.0962,5.0358,4.9484,4.8083,4.7054,4.6192,4.4998,4.2872,4.013,3.6422,3.3879,3.1583,2.7889,2.6567,2.5809,2.393,2.2847,2.1737,1.9815,1.8175,1.6985,1.6985,1.6166,1.5105,1.366,1.2346,1.1152,0.994,0.9822,0.9822,0.9822,0.9951,0.9871,0.9477,0.901,0.8358,0.7225,0.5788,0.4506,0.381,0.2822,0.2251,0.2292,0.225,0.2193,0.1765,0.1457,0.1,0.0257,0.013,0.0,0.0,0.0,0.0,0.0,0.0,0.0,0.0,0.0,0.0,0.0,0.0,0.0,0.0,0.0,0.0,0.0,0.0,0.0,0.0,0.0,0.0,0.0,0.0,0.0,0.0,0.0,0.0,0.0,0.0,0.0,0.0,0.0,0.0,0.0,0.0,0.0,3.1478,3.2672,3.388,3.5137,3.7202,3.926,4.1174,4.2321,4.3471,4.4572,4.5201,4.5532,4.5586,4.5605,4.5671,4.58,4.5866,4.646,4.7388,4.7462,4.8522,5.0092,4.9962,5.0403,5.1081,5.0887,5.0287,4.9419,4.8085,4.7054,4.6192,4.4998,4.3026,4.0463,3.7112,3.4921,3.2851,2.9613,2.8121,2.7084,2.5064,2.3462,2.1957,1.9931,1.9243,1.901,1.901,1.8071,1.6644,1.4728,1.2097,1.0065,0.9819,0.9822,0.9822,0.9822,0.9951,0.9995,0.9717,0.9928,0.9686,0.8567,0.7548,0.657,0.5717,0.4658,0.4171,0.4137,0.4213,0.409,0.34,0.2664,0.1988,0.1265,0.0385,0.0,0.0,0.0,0.0,0.0,0.0,0.0,0.0,0.0,0.0,0.0,0.0,0.0,0.0,0.0,0.0,0.0,0.0,0.0,0.0,0.0,0.0,0.0,0.0,0.0,0.0,0.0,0.0,0.0,0.0,0.0,0.0,0.0,0.0,0.0,0.0,3.123,3.1346,3.2472,3.351,3.4369,3.6816,3.8696,3.986,4.1935,4.3649,4.4943,4.54,4.5622,4.5657,4.5654,4.57,4.5805,4.5868,4.6213,4.6722,4.6791,4.7826,4.9348,4.9185,4.9918,5.1017,5.0825,5.0237,4.937,4.8049,4.7054,4.6192,4.4998,4.3103,4.0727,3.7638,3.5548,3.3605,3.0521,2.9005,2.7812,2.5604,2.3861,2.2184,1.9931,1.9366,1.9366,1.9366,1.8428,1.6767,1.4262,1.1989,1.0425,1.0668,1.0789,1.091,1.091,1.0974,1.0871,1.0679,1.0631,1.0287,0.9392,0.8582,0.7757,0.7116,0.6214,0.5693,0.5675,0.5834,0.5592,0.5056,0.4066,0.3279,0.2713,0.0911,0.0,0.0,0.0,0.0,0.0,0.0,0.0,0.0,0.0,0.0,0.0,0.0,0.0,0.0,0.0,0.0,0.0,0.0,0.0,0.0,0.0,0.0,0.0,0.0,0.0,0.0,0.0,0.0,0.0,0.0,0.0,0.0,0.0,0.0,0.0,0.0,3.1291,3.1559,3.2524,3.33,3.3781,3.6177,3.7717,3.8321,4.1405,4.3615,4.4935,4.538,4.564,4.569,4.5726,4.5785,4.5847,4.593,4.6055,4.6211,4.6264,4.7299,4.8782,4.858,4.9489,5.0928,5.0664,5.0043,4.9189,4.7924,4.692,4.5979,4.4691,4.2876,4.064,3.7784,3.6004,3.4372,3.1587,3.0133,2.8808,2.6511,2.4654,2.2854,2.0493,1.9815,1.9591,1.901,1.7824,1.6053,1.3799,1.2113,1.1265,1.1752,1.223,1.247,1.247,1.247,1.235,1.1989,1.1579,1.1155,1.026,0.9423,0.8772,0.8395,0.7819,0.7383,0.7471,0.7506,0.7363,0.6796,0.5794,0.5016,0.4471,0.2376,0.1059,0.0397,0.0268,0.0269,0.0135,0.0,0.0,0.0,0.0,0.0,0.0,0.0,0.0,0.0,0.0,0.0,0.0,0.0,0.0,0.0,0.0,0.0,0.0,0.0,0.0,0.0,0.0,0.0,0.0,0.0,0.0,0.0,0.0,0.0,0.0,0.0,3.1223,3.1752,3.2197,3.2705,3.3208,3.4451,3.5634,3.6812,4.0621,4.3077,4.4173,4.513,4.5637,4.57,4.5772,4.5854,4.5984,4.606,4.6133,4.6211,4.6264,4.7299,4.8782,4.858,4.9442,5.0758,5.0303,4.9673,4.8822,4.7496,4.6433,4.5407,4.3848,4.2157,4.014,3.7604,3.6348,3.5313,3.3208,3.1863,3.0451,2.8354,2.6263,2.4061,2.1949,2.106,2.0026,1.8064,1.6155,1.449,1.3803,1.2831,1.2337,1.2942,1.3894,1.4485,1.4485,1.4485,1.4252,1.3665,1.3027,1.2316,1.1538,1.0667,1.0066,0.9915,0.9754,0.9667,0.9674,0.9811,0.9522,0.891,0.8124,0.7338,0.6695,0.5587,0.3889,0.1479,0.1211,0.0808,0.0404,0.0139,0.0,0.0,0.0,0.0,0.0,0.0,0.0,0.0,0.0,0.0,0.0,0.0,0.0,0.0,0.0,0.0,0.0,0.0,0.0,0.0,0.0,0.0,0.0,0.0,0.0,0.0,0.0,0.0,0.0,0.0,0.0,3.1841,3.2249,3.2654,3.3068,3.4248,3.612,3.8658,4.0267,4.2144,4.423,4.4589,4.5115,4.5765,4.5835,4.5935,4.6074,4.6127,4.6171,4.6216,4.6276,4.6969,4.7947,4.7747,4.8503,4.964,4.8933,4.8527,4.8163,4.6877,4.5667,4.4436,4.2829,4.106,3.9223,3.6954,3.6184,3.5856,3.4404,3.3374,3.223,2.9922,2.7844,2.5673,2.3063,2.1836,2.0802,1.9319,1.6962,1.5198,1.4981,1.4143,1.366,1.4614,1.5322,1.5795,1.5795,1.5795,1.5618,1.4937,1.3976,1.2996,1.2073,1.1086,1.0354,1.0209,1.0148,1.0117,1.0117,1.0168,0.9986,0.9688,0.8874,0.8304,0.7985,0.7224,0.5635,0.3358,0.2553,0.1747,0.1211,0.0415,0.0,0.0,0.0,0.0,0.0,0.0,0.0,0.0,0.0,0.0,0.0,0.0,0.0,0.0,0.0,0.0,0.0,0.0,0.0,0.0,0.0,0.0,0.0,0.0,0.0,0.0,0.0,0.0,0.0,0.0,0.0,3.1841,3.2162,3.2603,3.3142,3.4091,3.5889,3.8523,3.9184,4.0699,4.3015,4.3607,4.4418,4.5404,4.5757,4.5983,4.6138,4.6192,4.624,4.6235,4.6289,4.6749,4.7449,4.7256,4.7948,4.8911,4.8048,4.7757,4.7678,4.6358,4.5027,4.363,4.1868,4.0108,3.8297,3.6124,3.5782,3.5908,3.497,3.4253,3.3254,3.1073,2.871,2.6345,2.3966,2.262,2.1593,2.0357,1.8015,1.6026,1.6042,1.5564,1.5327,1.6279,1.6985,1.7461,1.7461,1.7461,1.7203,1.6386,1.5012,1.3672,1.2746,1.1379,1.0531,1.0436,1.0429,1.0429,1.0429,1.0429,1.034,1.0303,0.978,0.9425,0.9253,0.8851,0.7774,0.6166,0.4293,0.3089,0.2286,0.1246,0.0564,0.0,0.0,0.0,0.0,0.0,0.0,0.0,0.0,0.0,0.0,0.0,0.0,0.0,0.0,0.0,0.0,0.0,0.0,0.0,0.0,0.0,0.0,0.0,0.0,0.0,0.0,0.0,0.0,0.0,3.1244,3.1808,3.2039,3.2515,3.3382,3.3808,3.4689,3.6083,3.7335,3.8815,4.0543,4.2236,4.3567,4.4634,4.5485,4.5986,4.6201,4.6268,4.63,4.6308,4.6304,4.6719,4.7339,4.7217,4.7852,4.8713,4.7627,4.7335,4.727,4.5915,4.4572,4.3048,4.1012,3.9249,3.7534,3.5346,3.5168,3.5506,3.4893,3.436,3.3662,3.1882,2.8886,2.5863,2.465,2.3416,2.2184,2.106,1.8842,1.7091,1.7109,1.6979,1.7208,1.7812,1.8765,1.9366,1.9366,1.9366,1.8998,1.7961,1.6235,1.4596,1.3687,1.1934,1.0721,1.0721,1.0721,1.0721,1.0721,1.0721,1.0721,1.0721,1.0721,1.0721,1.0721,1.0721,1.0316,0.9646,0.6435,0.4564,0.3899,0.2766,0.1848,0.919,0.0,0.0,0.0,0.0,0.0,0.0,0.0,0.0,0.0,0.0,0.0,0.0,0.0,0.0,0.0,0.0,0.0,0.0,0.0,0.0,0.0,0.0,0.0,0.0,0.0,0.0,0.0,3.155,3.223,3.2565,3.2876,3.3262,3.3743,3.4096,3.4915,3.6235,3.6838,3.8304,4.066,4.1137,4.2525,4.468,4.497,4.5509,4.6211,4.628,4.6307,4.6287,4.6197,4.628,4.6434,4.6259,4.6761,4.7429,4.6182,4.6114,4.6507,4.5267,4.3789,4.2029,3.9895,3.8106,3.6341,3.4178,3.4172,3.4893,3.4713,3.4666,3.4017,3.1666,2.9398,2.7413,2.6209,2.4633,2.3167,2.1957,2.0134,1.8648,1.8064,1.7812,1.7812,1.8519,1.9004,1.9366,1.9366,1.9366,1.9194,1.8586,1.6853,1.5548,1.4919,1.3308,1.2161,1.2161,1.2161,1.2165,1.1912,1.1648,1.1383,1.1118,1.085,1.0721,1.0721,1.0721,1.0452,1.0054,0.8035,0.6833,0.604,0.4558,0.3264,0.0,0.0,0.0,0.0,0.0,0.0,0.0,0.0,0.0,0.0,0.0,0.0,0.0,0.0,0.0,0.0,0.0,0.0,0.0,0.0,0.0,0.0,0.0,0.0,0.0,0.0,0.0,3.0729,3.1744,3.2565,3.302,3.3255,3.3542,3.3919,3.4248,3.4849,3.5806,3.6138,3.7257,3.9161,3.9509,4.0897,4.3144,4.394,4.4814,4.5721,4.6122,4.6285,4.6249,4.6072,4.6035,4.6044,4.5853,4.6299,4.6898,4.5577,4.5653,4.624,4.4998,4.3545,4.1805,3.9841,3.8047,3.6225,3.4358,3.4446,3.5175,3.4996,3.4442,3.3289,3.1289,2.9544,2.796,2.6871,2.5177,2.3495,2.2297,2.0723,1.9249,1.8894,1.8655,1.8648,1.9004,1.9243,1.9366,1.9366,1.9366,1.9292,1.8778,1.7474,1.6425,1.6141,1.4766,1.4021,1.4101,1.411,1.3853,1.3473,1.2816,1.2161,1.1637,1.0982,1.0721,1.0721,1.0721,1.0588,1.0455,0.9108,0.8064,0.7175,0.5917,0.4782,1.164,1.191,0.0,0.0,0.0,0.0,1.2681,1.2977,0.0,0.0,0.0,0.0,0.0,0.0,0.0,0.0,0.0,0.0,0.0,0.0,0.0,0.0,0.0,0.0,0.0,2.8252,2.9269,3.0576,3.1581,3.2477,3.3283,3.332,3.3562,3.4091,3.437,3.4697,3.5128,3.5474,3.6087,3.7023,3.7807,3.9146,4.0974,4.2695,4.4018,4.5055,4.5919,4.6265,4.6175,4.5969,4.5941,4.5975,4.5761,4.6223,4.6864,4.5561,4.5653,4.624,4.4998,4.3604,4.2093,4.038,3.869,3.7035,3.54,3.5325,3.582,3.5494,3.3815,3.1972,3.1062,2.9544,2.796,2.6871,2.5177,2.3495,2.2297,2.0723,1.9366,1.9482,1.9482,1.9482,1.9482,1.9482,1.9482,1.9482,1.9366,1.9232,1.8915,1.7973,1.7318,1.732,1.6355,1.5808,1.6162,1.6177,1.5789,1.5149,1.3975,1.3066,1.2421,1.1244,1.0721,1.0721,1.0721,1.0721,1.0721,0.9785,0.8781,0.7947,0.726,0.6395,1.176,1.2598,1.3181,0.0,0.0,0.0,0.0,1.2484,0.0,0.0,0.0,0.0,0.0,0.0,0.0,0.0,0.0,0.0,0.0,0.0,0.0,0.0,0.0,0.0,0.0,2.7934,2.9267,2.987,3.1356,3.26,3.3412,3.345,3.3866,3.4788,3.4958,3.5163,3.5423,3.5654,3.6212,3.7081,3.73,3.8694,4.1104,4.216,4.3508,4.5046,4.5914,4.6265,4.6175,4.5969,4.5917,4.5886,4.5696,4.6194,4.6835,4.5563,4.5653,4.624,4.4998,4.3739,4.2425,4.0829,3.942,3.8028,3.6434,3.6117,3.6173,3.535,3.3458,3.154,3.0976,2.9544,2.796,2.6871,2.5177,2.3495,2.2297,2.0723,1.9597,2.0046,2.0162,2.0162,2.0162,2.0162,2.0046,1.9815,1.9591,1.9356,1.9173,1.8476,1.8064,1.8339,1.7634,1.7356,1.7613,1.7636,1.7249,1.6208,1.4903,1.3726,1.2684,1.1376,1.0721,1.0721,1.0721,1.0721,1.0721,1.0452,1.0394,1.0264,0.9443,0.8743,1.3196,1.3565,1.3705,1.3043,0.0,0.0,0.0,0.0,0.0,0.0,0.0,0.0,0.0,0.0,0.0,0.0,0.0,0.0,0.0,0.0,0.0,0.0,0.0,0.0,0.0,2.6967,2.8256,2.9421,3.1115,3.2286,3.2683,3.3541,3.4241,3.4724,3.5213,3.5507,3.5646,3.5786,3.6084,3.6561,3.6594,3.7741,3.9906,4.1211,4.2721,4.4427,4.5722,4.6265,4.6175,4.5969,4.5905,4.5873,4.5684,4.6173,4.6854,4.5563,4.5653,4.624,4.4998,4.3889,4.2724,4.1351,4.0071,3.881,3.7482,3.6681,3.6182,3.5504,3.3637,3.1836,3.1465,3.0276,2.8814,2.7726,2.6045,2.4386,2.3191,2.1623,2.05,2.1288,2.1623,2.1623,2.106,2.0938,2.0823,2.0263,1.9707,1.9419,1.9331,1.8991,1.8909,1.9197,1.8875,1.8865,1.9019,1.9037,1.859,1.7579,1.59,1.453,1.3341,1.1641,1.0721,1.0721,1.0721,1.0721,1.0721,1.0721,1.0758,1.0833,1.0293,0.9585,0.0,0.0,0.0,0.0,0.0,1.3371,0.0,0.0,0.0,0.0,0.0,0.0,0.0,0.0,0.0,0.0,0.0,0.0,0.0,0.0,0.0,0.0,0.0,0.0,0.0,2.5881,2.7005,2.8937,3.024,3.1149,3.1661,3.3016,3.4023,3.4507,3.5156,3.5611,3.5844,3.589,3.5947,3.6001,3.5999,3.6914,3.8652,4.0234,4.1953,4.3789,4.5371,4.6109,4.6175,4.5969,4.5905,4.5873,4.5684,4.6173,4.6854,4.5563,4.5653,4.624,4.4998,4.3964,4.3019,4.1901,4.0644,3.9391,3.8248,3.7088,3.6079,3.5763,3.4141,3.242,3.2353,3.1403,3.0162,2.8976,2.7327,2.5791,2.4514,2.2966,2.1957,2.2733,2.3407,2.3519,2.2176,2.1828,2.1593,2.0938,2.0162,1.9591,1.9591,1.9591,1.9706,1.9885,1.98,1.992,2.0207,2.0234,1.9743,1.8781,1.6872,1.5189,1.4128,1.2037,1.0721,1.0721,1.0721,1.0721,1.0721,1.0721,1.0721,1.0721,1.0455,0.9996,0.0,0.0,0.0,0.0,1.4327,0.0,0.0,0.0,0.0,0.0,0.0,0.0,0.0,0.0,0.0,0.0,0.0,0.0,0.0,0.0,0.0,0.0,0.0,0.0,0.0,0.0,2.6333,2.81,2.7757,2.8469,3.0808,3.1106,3.2259,3.4516,3.4672,3.5125,3.5963,3.5986,3.5988,3.6001,3.5993,3.6914,3.8633,3.9609,4.1387,4.375,4.4726,4.5543,4.6175,4.5969,4.5905,4.5873,4.5684,4.6173,4.6854,4.5563,4.5653,4.624,4.4998,4.4138,4.3383,4.2252,4.0758,3.9265,3.8427,3.726,3.617,3.5982,3.4338,3.2724,3.3244,3.2767,3.1735,3.0379,2.8961,2.7456,2.6009,2.4599,2.3718,2.4283,2.516,2.5278,2.3528,2.2741,2.2176,2.1616,2.0723,2.0162,2.0162,2.0162,2.0164,2.0233,2.0037,1.992,2.0207,2.0234,1.9865,1.915,1.7382,1.5962,1.4772,1.2425,1.0982,1.0721,1.0721,1.0721,1.0721,1.0721,1.0721,1.0721,1.0721,1.0668,0.0,0.0,0.0,0.0,0.0,0.0,0.0,0.0,1.3378,0.0,0.0,0.0,0.0,0.0,0.0,0.0,0.0,0.0,0.0,0.0,0.0,0.0,0.0,0.0,0.0,0.0,0.0,0.0,0.0,2.6149,2.7752,2.9754,3.136,3.2412,3.3896,3.4855,3.5245,3.5757,3.5994,3.5992,3.5996,3.6641,3.7891,3.9277,4.0762,4.2344,4.4199,4.5191,4.5512,4.5794,4.5905,4.5873,4.5684,4.6214,4.6911,4.5842,4.599,4.6618,4.5546,4.4669,4.3739,4.2141,4.06,3.9265,3.8427,3.755,3.6606,3.6254,3.4967,3.3755,3.4219,3.3784,3.2967,3.1757,3.0244,2.874,2.7542,2.6054,2.5084,2.5626,2.6182,2.63,2.5423,2.4181,2.3063,2.2523,2.1608,2.1045,2.106,2.1045,2.0867,2.0561,2.0007,1.9599,1.972,1.9733,1.9561,1.9148,1.7444,1.5713,1.3979,1.2553,1.1505,1.0721,1.0721,1.0721,1.0721,1.0721,1.0721,1.0721,1.0721,1.0755,1.5593,0.0,0.0,0.0,0.0,0.0,0.0,0.0,0.0,0.0,0.0,0.0,0.0,0.0,0.0,0.0,0.0,0.0,0.0,0.0,0.0,0.0,0.0,0.0,0.0,0.0,0.0,0.0,0.0,0.0,2.5624,2.8555,3.041,3.0879,3.3144,3.4453,3.4707,3.5566,3.5996,3.5996,3.5996,3.6465,3.7344,3.8867,4.0156,4.1328,4.3633,4.4781,4.5043,4.5658,4.5905,4.5873,4.5684,4.6275,4.7095,4.6126,4.6376,4.7096,4.6147,4.5003,4.3639,4.1949,4.0478,3.9294,3.8631,3.7799,3.7071,3.6704,3.5736,3.4731,3.5173,3.4993,3.4385,3.3201,3.1724,3.014,2.9071,2.7501,2.6545,2.6971,2.7196,2.7206,2.6881,2.5296,2.395,2.3536,2.2733,2.2047,2.2063,2.1941,2.1601,2.0945,1.9931,1.9366,1.9366,1.9366,1.926,1.9088,1.7742,1.5949,1.3984,1.3206,1.2161,1.0986,1.085,1.0853,1.0721,1.0721,1.0721,1.0721,1.0721,1.0721,0.0,0.0,0.0,1.3287,0.0,0.0,0.0,0.0,1.4461,0.0,0.0,0.0,0.0,0.0,0.0,0.0,0.0,0.0,0.0,0.0,0.0,0.0,0.0,0.0,0.0,0.0,0.0,0.0,0.0,0.0,2.5562,2.7402,2.916,3.0859,3.2559,3.3848,3.4687,3.5566,3.5996,3.5996,3.5996,3.6465,3.7324,3.8223,3.957,4.1289,4.3008,4.4215,4.5043,4.5658,4.5905,4.5873,4.5684,4.6356,4.7359,4.6345,4.6743,4.7652,4.672,4.4869,4.2797,4.1837,4.0531,3.9384,3.9171,3.8139,3.7154,3.7444,3.6573,3.5574,3.6219,3.6358,3.5966,3.4678,3.3254,3.1836,3.0578,2.9237,2.8184,2.8291,2.8291,2.8077,2.7431,2.5854,2.4735,2.477,2.3983,2.3303,2.3311,2.2854,2.2184,2.1288,2.0162,1.9366,1.9366,1.9366,1.926,1.8728,1.8265,1.7125,1.5434,1.4399,1.3223,1.178,1.138,1.0986,1.0721,1.0721,1.0721,1.0721,1.0721,1.0721,0.0,0.0,1.4838,1.4455,0.0,0.0,0.0,0.0,0.0,0.0,0.0,0.0,0.0,0.0,0.0,0.0,0.0,0.0,0.0,0.0,0.0,0.0,0.0,0.0,0.0,0.0,0.0,0.0,2.0089,0.0,0.0,2.6188,2.7969,2.9141,3.1914,3.3535,3.3848,3.5273,3.5996,3.5996,3.5996,3.6152,3.6465,3.7344,3.8379,3.9609,4.1855,4.3336,4.422,4.5405,4.5905,4.5873,4.5684,4.6455,4.7586,4.6713,4.7185,4.8004,4.6553,4.5061,4.3597,4.2518,4.1327,4.0298,3.9995,3.9208,3.8471,3.8498,3.7821,3.7037,3.707,3.7028,3.6534,3.5463,3.3981,3.2577,3.171,3.038,2.9353,2.9237,2.9026,2.8601,2.8077,2.6971,2.6091,2.5762,2.5406,2.5067,2.4659,2.3855,2.295,2.1964,2.0385,1.9366,1.9366,1.972,1.99,1.9728,1.9519,1.8786,1.7485,1.6333,1.4777,1.2808,1.2157,1.1505,1.0721,1.0721,1.0721,1.0721,1.0721,1.0721,1.5201,1.5172,0.0,1.4754,1.4126,0.0,1.3413,0.0,0.0,0.0,0.0,0.0,0.0,0.0,0.0,0.0,0.0,0.0,0.0,0.0,0.0,0.0,0.0,0.0,0.0,0.0,1.7382,1.864,1.9312,0.0,0.0,0.0,2.6934,2.7812,3.1172,3.3105,3.3398,3.5137,3.5996,3.5996,3.5996,3.6152,3.6484,3.7363,3.8398,3.9624,4.1882,4.3349,4.422,4.5423,4.5899,4.5854,4.5668,4.6493,4.7713,4.6994,4.7444,4.8155,4.6791,4.556,4.4385,4.3337,4.2189,4.118,4.1168,4.0469,3.9852,3.9885,3.9248,3.8509,3.8187,3.7821,3.7256,3.6213,3.4763,3.34,3.2711,3.1699,3.0671,3.037,2.9838,2.9323,2.8804,2.8057,2.7314,2.6645,2.6518,2.6291,2.5771,2.4744,2.3727,2.2636,2.106,1.9931,1.9707,2.0132,2.0355,2.0234,2.0283,1.982,1.8908,1.7759,1.6078,1.4115,1.3206,1.2297,1.1118,1.0986,1.0853,1.0721,1.0721,1.0721]},{"header":{"parameterUnit":"m.s-1","parameterCategory":1,"la1":30.6,"la2":29.2853,"lo1":-89.7004,"lo2":-87.6739,"dy":0.0162,"dx":0.0183,"nx":112,"ny":82,"refTime":"2026-03-19T12:00:00:Z","depth":0,"parameterNumber":3,"parameterNumberName":"V-component_of_WINDS"},"data":[0.0,0.0,0.0,0.0,0.0,0.0,0.0,0.0,0.0,0.0,0.0,0.0,0.0,0.0,0.0,0.0,0.0,0.0,0.0,0.0,0.0,0.0,0.0,0.0,0.0,0.0,0.0,0.0,0.0,0.0,0.0,0.0,0.0,0.0,0.0,0.0,0.0,0.0,0.0,0.0,0.0,0.0,0.0,0.0,0.0,0.0,0.0,0.0,0.0,0.0,0.0,0.0,0.0,0.0,0.0,0.0,0.0,0.0,0.0,0.0,0.0,0.0,0.0,0.0,0.0,0.0,0.0,0.0,0.0,0.0,0.0,0.0,0.0,0.0,0.0,0.0,0.0,0.0,0.0,0.0,0.0,0.0,0.0,0.0,0.0,0.0,0.0,0.0,0.0,0.0,0.0,2.3808,2.5547,2.6035,2.4902,2.2461,2.0195,1.8317,0.0,0.0,0.0,0.0,0.0,0.0,0.0,0.0,0.0,0.0,0.0,0.0,0.0,0.0,0.0,0.0,0.0,0.0,0.0,0.0,0.0,0.0,0.0,0.0,0.0,0.0,0.0,0.0,0.0,0.0,0.0,0.0,0.0,0.0,0.0,0.0,0.0,0.0,0.0,0.0,0.0,0.0,0.0,0.0,0.0,0.0,0.0,0.0,0.0,0.0,0.0,0.0,0.0,0.0,0.0,0.0,0.0,0.0,0.0,0.0,0.0,0.0,0.0,0.0,0.0,0.0,0.0,0.0,0.0,0.0,0.0,0.0,0.0,0.0,0.0,0.0,0.0,0.0,0.0,0.0,0.0,0.0,0.0,0.0,0.0,0.0,0.0,0.0,0.0,0.0,0.0,0.0,0.0,0.0,0.0,0.0,0.0,0.0,0.0,0.0,0.0,0.0,0.0,0.0,2.4093,2.8183,2.9512,2.916,2.6816,2.4277,2.1758,1.9256,0.0,0.0,0.0,0.0,0.0,0.0,0.0,0.0,0.0,0.0,0.0,0.0,0.0,0.0,0.0,0.0,0.0,0.0,0.0,0.0,0.0,0.0,0.0,0.0,0.0,0.0,0.0,0.0,0.0,0.0,0.0,0.0,0.0,0.0,0.0,0.0,0.0,0.0,0.0,0.0,0.0,0.0,0.0,0.0,0.0,0.0,0.0,0.0,0.0,0.0,0.0,0.0,0.0,0.0,0.0,0.0,0.0,0.0,0.0,0.0,0.0,0.0,0.0,0.0,0.0,0.0,0.0,0.0,0.0,0.0,0.0,0.0,0.0,0.0,0.0,0.0,0.0,0.0,0.0,0.0,0.0,0.0,0.0,0.0,0.0,0.0,0.0,0.0,0.0,0.0,0.0,0.0,0.0,0.0,0.0,0.0,0.0,0.0,0.0,0.0,0.0,0.0,0.0,2.3293,2.7049,2.998,3.1074,3.0547,2.793,2.5332,2.2558,1.9491,1.6031,0.0,0.0,0.0,0.0,0.0,0.0,0.0,0.0,0.0,0.0,0.0,0.0,0.0,0.0,0.0,0.0,0.0,0.0,0.0,0.0,0.0,0.0,0.0,0.0,0.0,0.0,0.0,0.0,0.0,0.0,0.0,0.0,0.0,0.0,0.0,0.0,0.0,0.0,0.0,0.0,0.0,0.0,0.0,0.0,0.0,0.0,0.0,0.0,0.0,0.0,0.0,0.0,0.0,0.0,0.0,0.0,0.0,0.0,0.0,0.0,0.0,0.0,0.0,0.0,0.0,0.0,0.0,0.0,0.0,0.0,0.0,0.0,0.0,0.0,0.0,0.0,0.0,0.0,0.0,0.0,0.0,0.0,0.0,0.0,0.0,0.0,0.0,0.0,0.0,0.0,0.0,0.0,0.0,0.0,0.0,0.0,0.0,0.0,0.0,0.0,0.0,0.0,2.6755,2.9492,3.1035,3.2344,3.1875,2.8867,2.6406,2.3477,1.9844,1.6132,0.0,0.0,0.0,0.0,0.0,0.0,0.0,0.0,0.0,0.0,0.0,0.0,0.0,0.0,0.0,0.0,0.0,0.0,0.0,0.0,0.0,0.0,0.0,0.0,0.0,0.0,0.0,0.0,0.0,0.0,0.0,0.0,0.0,0.0,0.0,0.0,0.0,0.0,0.0,0.0,0.0,0.0,0.0,0.0,0.0,0.0,0.0,0.0,0.0,0.0,0.0,0.0,0.0,0.0,0.0,0.0,0.0,0.0,0.0,0.0,0.0,0.0,0.0,0.0,0.0,0.0,0.0,0.0,0.0,0.0,0.0,0.0,0.0,0.0,0.0,0.0,0.0,0.0,0.0,0.0,0.0,0.0,0.0,0.0,0.0,0.0,0.0,0.0,0.0,0.0,0.0,0.0,0.0,0.0,0.0,0.0,0.0,0.0,0.0,0.0,0.0,0.0,2.8551,3.1074,3.2012,3.4277,3.4043,2.9863,2.7851,2.5019,2.0781,1.6484,0.0,0.0,0.0,0.0,0.0,0.0,0.0,0.0,0.0,0.0,0.0,0.0,0.0,0.0,0.0,0.0,0.0,0.0,0.0,0.0,0.0,0.0,0.0,0.0,0.0,0.0,0.0,0.0,0.0,0.0,0.0,0.0,0.0,0.0,0.0,0.0,0.0,0.0,0.0,0.0,0.0,0.0,0.0,0.0,0.0,0.0,0.0,0.0,0.0,0.0,0.0,0.0,0.0,0.0,0.0,0.0,0.0,0.0,0.0,0.0,0.0,0.0,0.0,0.0,0.0,0.0,0.0,0.0,0.0,0.0,0.0,0.0,0.0,0.0,0.0,0.0,0.0,0.0,0.0,0.0,0.0,0.0,0.0,0.0,0.0,0.0,0.0,0.0,0.0,0.0,0.0,0.0,0.0,0.0,0.0,0.0,0.0,0.0,0.0,0.0,0.0,0.0,2.8747,3.1426,0.0,3.4785,3.4473,3.0723,2.8301,2.5176,2.0879,0.0,0.0,0.0,0.0,0.0,0.0,0.0,0.0,0.0,0.0,0.0,0.0,0.0,0.0,0.0,0.0,0.0,0.0,0.0,0.0,0.0,0.0,0.0,0.0,0.0,0.0,0.0,0.0,0.0,0.0,0.0,0.0,0.0,0.0,0.0,0.0,0.0,0.0,0.0,0.0,0.0,0.0,0.0,0.0,0.0,0.0,0.0,0.0,0.0,0.0,0.0,0.0,0.0,0.0,0.0,0.0,0.0,0.0,0.0,0.0,0.0,0.0,0.0,0.0,0.0,0.0,0.0,0.0,0.0,0.0,0.0,0.0,0.0,0.0,0.0,0.0,0.0,0.0,0.0,0.0,0.0,0.0,0.0,0.0,0.0,0.0,0.0,0.0,0.0,0.0,0.0,0.0,0.0,0.0,0.0,0.0,0.0,0.0,0.0,0.0,0.0,0.0,2.4608,2.8336,3.1133,0.0,3.4805,3.4492,3.0801,2.834,2.5176,2.0879,0.0,0.0,0.0,0.0,0.0,0.0,0.0,0.0,0.0,0.0,0.0,0.0,0.0,0.0,0.0,0.0,0.0,0.0,0.0,0.0,0.0,0.0,0.0,0.0,0.0,0.0,0.0,0.0,0.0,0.0,0.0,0.0,0.0,0.0,0.0,0.0,0.0,0.0,0.0,0.0,0.0,0.0,0.0,0.0,0.0,0.0,0.0,0.0,0.0,0.0,0.0,0.0,0.0,0.0,0.0,0.0,0.0,0.0,0.0,0.0,0.0,0.0,0.0,0.0,0.0,0.0,0.0,0.0,0.0,0.0,0.0,0.0,0.0,0.0,0.0,0.0,0.0,0.0,0.0,0.0,0.0,0.0,0.0,0.0,0.0,0.0,0.0,0.0,0.0,0.0,0.0,0.0,0.0,0.0,0.0,0.0,0.0,0.0,0.0,0.0,0.0,0.0,2.3714,2.7439,3.0254,3.1992,3.4453,3.4238,2.9961,2.7988,2.5156,0.0,0.0,0.0,0.0,0.0,0.0,0.0,0.0,0.0,0.0,0.0,0.0,0.0,0.0,0.0,0.0,0.0,0.0,0.0,0.0,0.0,0.0,0.0,0.0,0.0,0.0,0.0,0.0,0.0,0.0,0.0,0.0,0.0,0.0,0.0,0.0,0.0,0.0,0.0,0.0,0.0,0.0,0.0,0.0,0.0,0.0,0.0,0.0,0.0,0.0,0.0,0.0,0.0,0.0,0.0,0.0,0.0,0.0,0.0,0.0,0.0,0.0,0.0,0.0,0.0,0.0,0.0,0.0,0.0,0.0,0.0,0.0,0.0,0.0,0.0,0.0,0.0,0.0,0.0,0.0,0.0,0.0,0.0,0.0,0.0,0.0,0.0,0.0,0.0,0.0,0.0,0.0,0.0,0.0,0.0,0.0,0.0,0.0,0.0,0.0,0.0,0.0,0.0,2.2892,2.6521,2.9355,3.1094,3.2519,3.2305,2.9805,2.7441,2.4512,2.082,0.0,0.0,0.0,0.0,0.0,0.0,0.0,0.0,0.0,0.0,0.0,0.0,0.0,0.0,0.0,0.0,0.0,0.0,0.0,0.0,0.0,0.0,0.0,0.0,0.0,0.0,0.0,0.0,0.0,0.0,0.0,0.0,0.0,0.0,0.0,0.0,0.0,0.0,0.0,0.0,0.0,0.0,0.0,0.0,0.0,0.0,0.0,0.0,0.0,0.0,0.0,0.0,0.0,0.0,0.0,0.0,0.0,0.0,0.0,0.0,0.0,0.0,0.0,0.0,0.0,0.0,0.0,0.0,0.0,0.0,0.0,0.0,0.0,0.0,0.0,0.0,0.0,0.0,0.0,0.0,0.0,0.0,0.0,0.0,0.0,0.0,0.0,0.0,0.0,0.0,0.0,0.0,0.0,0.0,0.0,0.0,0.0,0.0,0.0,0.0,0.0,0.0,2.2014,2.5623,2.832,2.9707,3.0957,3.0684,2.8242,2.6289,2.3711,2.0293,0.0,0.0,0.0,0.0,0.0,0.0,0.0,0.0,0.0,0.0,0.0,0.0,0.0,0.0,0.0,0.0,0.0,0.0,0.0,0.0,0.0,0.0,0.0,0.0,0.0,0.0,0.0,0.0,0.0,0.0,0.0,0.0,0.0,0.0,0.0,0.0,0.0,0.0,0.0,0.0,0.0,0.0,0.0,0.0,0.0,0.0,0.0,0.0,0.0,0.0,0.0,0.0,0.0,0.0,0.0,0.0,0.0,0.0,0.0,0.0,0.0,0.0,0.0,0.0,0.0,0.0,0.0,0.0,0.0,0.0,0.0,0.0,0.0,0.0,0.0,0.0,0.0,0.0,0.0,0.0,0.0,0.0,0.0,0.0,0.0,0.0,0.0,0.0,0.0,0.0,0.0,0.0,0.0,0.0,0.0,0.0,0.0,0.0,0.0,0.0,0.0,0.0,2.1253,2.4842,2.7305,2.8086,2.9668,2.9355,2.6094,2.4863,2.293,1.9726,0.0,0.0,0.0,0.0,0.0,0.0,0.0,0.0,0.0,0.0,0.0,0.0,0.0,0.0,0.0,0.0,0.0,0.0,0.0,0.0,0.0,0.0,0.0,0.0,0.0,0.0,0.0,0.0,0.0,0.0,0.0,0.0,0.0,0.0,0.0,0.0,0.0,0.0,0.0,0.0,0.0,0.0,0.0,0.0,0.0,0.0,0.0,0.0,0.0,0.0,0.0,0.0,0.0,0.0,0.0,0.0,0.0,0.0,0.0,0.0,0.6893,0.0,0.0,0.0,0.0,0.0,0.0,0.0,0.0,0.0,0.0,0.0,0.0,0.0,0.0,0.0,0.0,0.0,0.0,0.0,0.0,0.0,0.0,0.0,0.0,0.0,0.0,0.0,0.0,0.0,0.0,0.0,0.0,0.0,0.0,0.0,0.0,0.0,0.0,0.0,0.0,0.0,2.1329,2.4841,2.707,2.7265,2.8222,2.8279,2.6831,2.4661,2.2764,2.1357,0.0,0.0,0.0,0.0,0.0,0.0,0.0,0.0,0.0,0.0,0.0,0.0,0.0,0.0,0.0,0.0,0.0,0.0,0.0,0.0,0.0,0.0,0.0,0.0,0.0,0.0,0.0,0.0,0.0,0.0,0.0,0.0,0.0,0.0,0.0,0.0,0.0,0.0,0.0,0.0,0.0,0.0,0.0,0.0,0.0,0.0,0.0,0.0,0.0,0.0,0.0,0.0,0.0,0.0,0.0,0.0,0.0,0.0,0.0,0.0,0.0,0.7311,0.0,0.0,0.0,0.0,0.0,0.0,0.0,0.0,0.0,0.0,0.0,0.0,0.0,0.0,0.0,0.0,0.0,0.0,0.0,0.0,0.0,0.0,0.0,0.0,0.0,0.0,0.0,0.0,0.0,0.0,0.0,0.0,0.0,0.0,0.0,0.0,0.0,0.0,0.0,0.0,2.1349,2.4489,2.6387,2.6385,2.7124,2.7097,2.5815,2.4436,2.2903,2.1224,1.9077,0.0,0.0,0.0,0.0,0.0,0.0,0.0,0.0,0.0,0.0,0.0,0.0,0.0,0.0,0.0,0.0,0.0,0.0,0.0,0.0,0.0,0.0,0.0,0.0,0.0,0.0,0.0,0.0,0.0,0.0,0.0,0.0,0.0,0.0,0.0,0.0,0.0,0.0,0.0,0.0,0.0,0.0,0.0,0.0,0.0,0.0,0.0,0.0,0.0,0.0,0.0,0.0,0.0,-0.0542,-0.0398,-0.0649,-0.0354,0.0298,0.1456,0.5391,0.6066,0.4395,0.0,0.0,0.0,0.0,0.0,0.0,0.0,0.0,0.0,0.0,0.0,0.0,0.0,0.0,0.0,0.0,0.0,0.0,0.0,0.0,0.0,0.0,0.0,0.0,0.0,2.6217,2.5403,0.0,0.0,0.0,0.0,0.0,0.0,0.0,0.0,0.0,0.0,0.0,0.0,2.1624,2.4314,2.5879,2.572,2.6566,2.6412,2.467,2.4477,2.3402,2.0983,1.9886,1.8304,0.0,0.0,0.0,0.0,0.0,0.0,0.0,0.0,0.0,0.0,0.0,0.0,0.0,0.0,0.0,0.0,0.0,0.0,0.0,0.0,0.0,0.0,0.0,0.0,0.0,0.0,0.0,0.0,0.0,0.0,0.0,0.0,-0.448,-0.4655,0.0,0.0,0.0,0.0,0.0,0.0,0.0,0.0,0.0,0.0,0.0,0.0,0.0,-0.3051,-0.264,-0.1859,-0.1387,-0.1164,-0.1238,-0.1211,-0.1272,-0.1201,-0.0424,0.0991,0.3413,0.0,0.5885,0.8552,0.0,0.0,0.0,0.0,0.0,0.0,0.0,0.0,0.0,0.0,0.0,0.0,0.0,0.0,0.0,0.0,0.0,0.0,0.0,0.0,0.0,0.0,2.9702,2.9713,3.029,3.0873,0.0,2.8727,2.6477,2.5674,2.4159,0.0,0.0,0.0,0.0,0.0,0.0,0.0,2.2664,2.5213,2.6542,2.5774,2.7098,2.7324,2.558,2.5376,2.4542,2.2687,2.1092,1.9738,1.8631,1.7763,0.0,0.0,0.0,0.0,0.0,0.0,0.0,0.0,0.0,0.0,0.0,0.0,0.0,0.0,0.0,0.0,0.0,0.0,0.0,0.0,0.0,0.0,0.0,0.0,0.0,0.0,0.0,0.0,0.0,-0.4158,-0.4442,-0.5068,-0.5125,-0.5302,0.0,0.0,0.0,0.0,0.0,0.0,0.0,0.0,0.0,-0.4803,-0.4516,-0.4134,-0.3613,-0.3421,-0.3269,-0.3233,-0.3526,-0.3714,-0.371,-0.3678,-0.2791,-0.1148,0.0495,0.2516,0.4785,0.766,0.7954,0.6622,0.0,0.0,0.0,0.0,1.1427,1.4357,1.747,1.9073,0.0,2.0598,0.0,0.0,0.0,0.0,0.0,0.0,0.0,0.0,0.0,0.0,0.0,3.316,3.3564,3.4038,3.4793,3.3689,3.2072,0.0,2.8641,2.6515,2.3666,0.0,0.0,0.0,0.0,0.0,2.3605,2.5253,2.6308,2.6413,2.702,2.7103,2.6345,2.6184,2.5395,2.3674,2.2894,2.1876,2.0511,2.008,1.9263,0.0,0.0,0.0,0.0,0.0,0.0,0.0,0.0,0.0,0.0,0.0,0.0,0.0,0.0,0.0,0.0,0.0,0.0,0.0,0.0,0.0,0.0,0.0,0.0,0.0,0.0,0.0,0.0,-0.4412,-0.4639,-0.5596,-0.5519,-0.5757,0.0,0.0,0.0,0.0,0.0,0.0,-0.6551,-0.604,-0.5743,-0.5728,-0.5792,-0.5624,-0.5269,-0.5574,-0.5781,-0.5824,-0.6244,-0.6514,-0.6464,-0.6477,-0.5525,-0.3803,-0.2439,-0.0265,0.2616,0.6051,0.7343,0.7097,0.6558,0.7558,0.9546,1.1558,1.4521,1.8125,2.1867,2.369,2.456,2.5868,0.0,2.3276,2.3076,0.0,0.0,0.0,0.0,2.8914,3.1424,3.3601,3.5391,3.6276,3.6642,3.6978,3.7709,3.7938,3.7161,0.0,3.2513,3.0505,2.7559,0.0,0.0,0.0,0.0,2.3688,2.5193,2.6152,2.7028,2.7886,2.8043,2.7913,2.7481,2.7325,2.6428,2.4524,2.4206,2.3417,2.1908,2.1831,2.1043,1.9377,0.0,0.0,0.0,0.0,0.0,0.0,0.0,0.0,0.0,0.0,0.0,0.0,0.0,0.0,0.0,0.0,0.0,0.0,0.0,0.0,0.0,0.0,0.0,0.0,0.0,0.0,0.0,0.0,0.0,-0.6154,-0.6401,0.0,0.0,0.0,0.0,-0.8349,-0.8503,-0.8514,-0.8365,-0.7852,-0.7603,-0.7752,-0.7394,-0.7377,-0.783,-0.8173,-0.8482,-0.8599,-0.8979,-0.9169,-0.9246,-0.9163,-0.8244,-0.6572,-0.5158,-0.3152,-0.0453,0.4846,0.7143,0.7324,0.7504,0.9087,1.1518,1.4297,1.7941,2.2035,2.5821,2.8099,2.948,3.0381,2.9468,2.7831,2.7049,2.6289,0.0,0.0,3.0814,3.3087,3.4358,3.6255,3.8027,3.8892,3.9681,4.0454,4.118,4.1839,4.1151,0.0,3.5713,3.4295,3.1969,0.0,2.8515,2.6962,2.6732,2.7068,2.7988,2.8865,2.9713,3.0509,3.1236,3.0975,2.9321,2.9051,2.7909,2.5399,2.4524,2.3687,2.2774,2.2735,2.1947,2.0273,1.9338,0.0,0.0,0.0,0.0,0.0,0.0,0.0,0.0,0.0,0.0,0.0,0.0,0.0,0.0,0.0,0.0,0.0,0.0,0.0,0.0,0.0,0.0,0.0,0.0,0.0,0.0,0.0,0.0,-0.6753,-0.7289,0.0,0.0,-0.8796,-0.9097,-0.9635,-0.9563,-0.9429,-0.9266,-0.8789,-0.8587,-0.8821,-0.9171,-0.985,-1.0977,-1.1864,-1.2499,-1.285,-1.3117,-1.3205,-1.33,-1.3361,-1.2312,-1.0432,-0.8207,-0.5751,-0.3029,0.0735,0.4226,0.7293,0.7631,0.9456,1.2315,1.5444,1.9364,2.3675,2.8035,3.0455,3.1851,3.2823,3.2866,3.2448,3.1893,3.1655,3.1927,3.3797,3.528,3.6607,3.7847,3.8892,3.9681,3.9988,4.0719,4.1242,4.0946,4.1013,4.0746,3.9461,3.9283,3.8662,3.6455,3.4749,3.3103,3.1385,3.0195,2.9805,3.0642,3.1465,3.2506,3.3874,3.4639,3.438,3.2656,3.1449,2.9698,2.714,2.5659,2.4736,2.4428,2.4409,2.362,2.1947,2.1043,1.935,0.0,0.0,0.0,0.0,0.0,0.0,0.0,0.0,0.0,0.0,0.0,0.0,0.0,0.0,0.0,0.0,0.0,0.0,0.0,0.0,0.0,0.0,0.0,0.0,0.0,0.0,-0.6856,-0.7842,-0.8423,-0.8999,-0.9767,-0.9904,-1.0177,-1.0762,-1.0926,-1.0854,-1.0587,-1.0226,-1.0216,-1.0516,-1.12,-1.2356,-1.3988,-1.5256,-1.6229,-1.6763,-1.7086,-1.7251,-1.7085,-1.7103,-1.6078,-1.4004,-1.1743,-0.8983,-0.5848,-0.3132,0.0657,0.5005,0.7473,1.0213,1.3131,1.6644,2.0655,2.497,2.9822,3.2616,3.4181,3.5032,3.5824,3.6404,3.616,3.6262,3.6774,3.8095,3.8925,3.9665,4.0602,4.0882,4.1008,4.1296,4.1816,4.1992,4.113,4.0639,4.0425,4.0602,4.0745,4.0306,3.8676,3.7304,3.5859,3.4101,3.2637,3.2148,3.3273,3.4101,3.5221,3.69,3.7674,3.7269,3.5314,3.3275,3.1025,2.8467,2.6409,2.5303,2.5303,2.5303,2.4505,2.2831,2.1389,1.9542,1.7292,0.0,0.0,0.0,0.0,0.0,0.0,0.0,0.0,0.0,0.0,0.0,0.0,0.0,0.0,0.0,0.0,0.0,0.0,0.0,0.0,0.0,0.0,0.0,-0.7273,-0.7787,-0.8546,-0.9496,-0.985,-1.028,-1.0952,-1.1047,-1.1299,-1.185,-1.2531,-1.2822,-1.2382,-1.2269,-1.2465,-1.3094,-1.3527,-1.4782,-1.6781,-1.8437,-1.9608,-2.0254,-2.0864,-2.0953,-2.0622,-2.0459,-1.9248,-1.7294,-1.5765,-1.2874,-0.9112,-0.6352,-0.3349,0.0291,0.7139,1.1365,1.3938,1.7861,2.186,2.6028,3.1273,3.4539,3.6525,3.7034,3.8252,3.9546,3.9559,3.9938,4.0437,4.0983,4.1614,4.2157,4.2392,4.2163,4.2047,4.2874,4.3104,4.2893,4.1989,4.1143,4.0569,4.0668,3.9962,3.9157,3.8558,3.7836,3.6758,3.5039,3.4023,0.0,3.5847,3.6742,3.7864,3.9539,4.0331,3.97,3.714,3.4501,3.1872,2.9294,2.6717,2.5303,2.5303,2.5303,2.4505,2.2831,2.0358,1.8261,1.658,0.0,0.0,0.0,0.0,0.0,0.0,0.0,0.0,0.0,0.0,0.0,0.0,0.0,0.0,0.0,0.0,0.0,0.0,0.0,0.0,0.0,0.0,-1.0001,-0.9229,-1.0043,-1.0975,-1.1776,-1.2622,-1.3024,-1.2862,-1.28,-1.2894,-1.3364,-1.393,-1.4253,-1.4388,-1.4208,-1.4405,-1.5018,-1.5636,-1.7053,-1.9375,-2.135,-2.2877,-2.406,-2.4672,-2.4724,-2.432,-2.3806,-2.2562,-2.0775,-1.8993,-1.6164,-1.2756,-0.9135,-0.5709,-0.2068,0.3774,0.8168,1.1727,1.581,2.1738,2.8053,3.1414,3.3893,3.583,3.7431,3.8873,4.0169,4.0971,4.1303,4.1486,4.2028,4.2156,4.2025,4.1708,4.2183,4.2643,4.2258,4.3085,4.3566,4.2124,4.1604,4.1305,4.0804,4.0577,4.0252,3.9535,3.8756,3.7871,3.6758,3.5312,0.0,3.7502,3.8973,4.0429,4.2097,4.3448,4.2941,3.9754,3.6603,3.343,3.0237,2.7052,2.5303,2.5303,2.5303,2.4505,2.2831,2.1485,1.9985,0.0,0.0,0.0,0.0,0.0,0.0,0.0,0.0,0.0,0.0,0.0,0.0,0.0,0.0,0.0,0.0,0.0,0.0,0.0,0.0,0.0,0.0,-1.1921,-1.2838,-1.294,-1.2925,-1.3149,-1.3674,-1.4426,-1.4727,-1.4372,-1.4029,-1.4065,-1.4542,-1.5024,-1.536,-1.5753,-1.5807,-1.6187,-1.6852,-1.7641,-1.9165,-2.1541,-2.3684,-2.5289,-2.6557,-2.7345,-2.7531,-2.7026,-2.6323,-2.5065,0.0,-2.1545,-1.8848,-1.5551,-1.2341,-0.9056,0.0,0.0,0.0,0.0,0.0,2.1522,2.716,2.9945,3.226,3.4435,3.6685,3.8537,4.0089,4.1042,4.1205,4.1034,4.1102,4.0603,4.014,4.0644,4.1398,4.2066,4.2297,4.3355,4.3835,4.2162,4.1508,4.1151,4.0765,4.051,0.0,3.9853,3.9442,3.8711,3.748,3.6133,3.6034,3.8222,3.9851,4.1451,4.3121,4.4693,4.4355,4.1296,3.8277,0.0,0.0,0.0,2.6063,2.5322,2.4986,0.0,0.0,0.0,0.0,0.0,0.0,0.0,0.0,2.3719,2.4929,0.0,0.0,0.0,0.0,0.0,0.0,0.0,0.0,0.0,0.0,0.0,0.0,0.0,0.0,0.0,0.0,-1.4502,-1.5811,-1.7117,-1.6158,-1.5362,-1.5527,-1.579,-1.5901,-1.5789,-1.5185,-1.5068,-1.5605,-1.5921,-1.6303,-1.6738,0.0,0.0,0.0,0.0,-2.123,-2.3339,-2.5536,-2.7107,-2.8194,-2.9211,-2.9459,-2.9032,-2.8309,-2.6966,-2.5109,-2.3682,-2.1137,-1.7864,-1.5787,-1.2673,-0.847,0.03,0.548,0.8912,1.6116,2.1085,2.4703,2.7658,0.0,0.0,3.5664,3.7971,3.9814,4.0604,4.0488,4.0024,3.9478,3.8396,3.7813,3.9715,4.0556,4.1335,4.2989,4.4008,4.4162,4.2566,4.1546,4.0954,4.0978,4.0548,4.0163,4.0087,3.9988,3.9316,3.7559,3.6562,3.662,3.828,3.9851,4.1451,4.3121,0.0,0.0,4.2162,3.9604,3.6738,3.3391,2.9948,2.7294,2.5649,2.4909,2.4476,2.4379,2.4514,2.4905,2.5604,2.8267,3.0377,3.1803,2.9393,2.9477,0.0,0.0,0.0,0.0,0.0,0.0,0.0,0.0,0.0,0.0,0.0,0.0,0.0,0.0,0.0,-1.4698,-1.6175,-1.7327,-1.7948,-1.8849,-1.9149,-1.8445,-1.8295,-1.818,-1.802,-1.7189,-1.6818,-1.7082,-1.6786,-1.7021,-1.8105,-1.8746,0.0,-2.0807,-2.1919,-2.3156,-2.4619,-2.6854,-2.8393,-2.9268,0.0,0.0,-3.0396,-2.9689,-2.8538,-2.7053,-2.5643,-2.3408,-2.0639,-1.8254,-1.5053,-1.0523,-0.1137,0.5047,0.9299,1.452,1.9336,2.3754,2.7006,3.0077,3.3111,3.6259,3.8922,4.1026,4.1858,4.181,0.0,4.0977,3.9974,3.9317,4.0571,4.2181,4.3748,4.4802,4.5723,4.6124,4.5086,4.4182,4.3404,4.2911,4.3296,4.3303,4.2036,4.075,3.9316,3.7559,3.6562,3.662,3.828,3.9851,4.1451,4.3121,4.4693,4.4855,4.3008,4.0508,3.7892,3.518,3.1141,2.8429,2.7448,2.7255,2.6832,2.612,2.7382,2.802,2.8037,3.1887,3.4491,3.5918,3.4339,3.4527,0.0,0.0,0.0,0.0,0.0,0.0,0.0,0.0,0.0,0.0,0.0,-1.173,0.0,0.0,-1.4938,-1.6581,-1.8214,-1.9443,-1.9864,-2.0889,-2.1126,-1.9831,-1.9597,-1.9522,-1.9553,-1.8638,-1.8201,-1.8374,-1.7851,-1.8121,-1.9546,-2.0058,-2.1138,-2.2775,-2.3796,-2.511,-2.6789,-2.8503,-2.9849,-3.0741,-3.1797,-3.2059,-3.1722,-3.1186,-3.0114,-2.8677,-2.725,-2.5176,-2.2628,-1.9278,-1.6257,-1.2995,-0.5667,0.1259,0.7798,1.3545,1.8236,2.2308,2.5816,2.9117,3.2319,3.5681,3.8686,4.11,4.1877,4.158,4.0872,4.0504,3.9256,3.8496,4.0443,4.2129,4.3809,4.563,4.6493,4.6778,4.6336,4.5566,4.4867,4.4592,4.4955,4.4803,4.3226,4.196,4.043,3.8262,3.6836,3.662,3.828,3.9468,4.0966,4.3063,4.4287,4.4605,4.3778,4.0989,3.8373,3.6238,3.2891,3.0641,2.9833,2.9348,2.8683,2.7816,2.9813,3.0967,3.1208,3.5002,3.8074,4.0409,4.0228,4.0557,0.0,0.0,0.0,0.0,0.0,0.0,0.0,0.0,-1.0829,-1.2633,-1.3084,-1.3623,-1.5323,-1.6019,-1.6875,-1.8489,-2.0174,-2.1339,-2.164,-2.2234,-2.2092,-2.0767,-2.0351,-2.038,-2.0708,-1.9938,-1.9515,-1.9753,-1.9276,-1.9617,-2.1103,-2.1654,-2.2857,-2.4681,-2.5811,-2.7188,-2.8803,-3.0135,-3.1193,-3.1988,-3.2719,-3.2982,-3.2797,-3.2351,-3.1436,-2.9975,-2.8164,-2.6023,-2.3645,-2.0063,-1.7661,-1.5713,-1.1103,-0.4159,0.4015,1.1508,1.676,2.0629,2.4351,2.783,3.1304,3.4896,3.8177,4.0877,4.1697,4.1498,4.0865,4.0507,3.9265,3.8579,4.1091,4.2593,4.4064,4.6483,4.7222,4.7394,4.7394,4.6701,4.608,4.6027,4.6108,4.5596,4.3877,4.2912,4.1582,3.9219,3.7519,3.7049,3.8553,3.9331,4.0655,4.3044,4.4056,4.4624,4.4797,4.2008,3.9527,3.7796,3.5295,3.3526,3.2718,3.161,3.0689,2.9947,3.2061,3.3629,3.4624,3.7907,4.1119,4.425,4.5395,4.5824,-1.3392,-1.2989,0.0,-1.2768,-1.2552,-1.2499,0.0,0.0,-1.3333,-1.5187,-1.5643,-1.6245,-1.8031,-1.8495,-1.9001,-2.0166,-2.1286,-2.1985,-2.1744,-2.2194,-2.2402,-2.1788,-2.1096,-2.0878,-2.1614,-2.1093,-2.1096,-2.1835,-2.137,-2.1666,-2.3086,-2.419,-2.517,-2.6142,-2.8237,-2.9437,-2.9624,-3.1254,-3.2068,-3.2131,-3.2805,-3.3068,-3.3068,-3.2982,-3.2155,-3.0572,-2.7434,-2.498,-2.3024,-2.1705,-2.0342,-1.8783,-1.5287,-1.0103,-0.3524,0.6034,1.3414,1.9089,2.3144,2.69,3.0553,3.4526,3.8085,4.104,4.2512,4.3444,4.396,4.3731,4.3336,4.3311,4.4699,4.5965,4.7172,4.8445,4.8928,4.9125,4.9125,4.8432,4.7622,4.6986,4.6978,4.6299,4.3915,4.2893,4.1793,4.0019,3.8926,3.8631,3.9549,4.0234,4.1325,4.3102,4.4596,4.5759,4.6547,4.4855,4.3028,4.1335,3.8834,3.7046,3.618,3.4553,3.3547,3.3271,3.4238,3.578,3.7888,4.065,4.3403,4.6129,4.7751,4.809,-1.4813,0.0,0.0,0.0,-1.474,-1.4904,-1.5839,-1.6007,-1.6463,-1.8016,-1.8645,-1.9293,-2.0529,-2.1034,-2.1464,0.0,-2.2713,-2.2961,-2.264,-2.2565,-2.2443,-2.2089,-2.0917,-2.0673,-2.1836,-2.1873,-2.2051,-2.2614,-2.2554,-2.3094,-2.4554,-2.5168,-2.6334,-2.8149,-2.9262,-3.0244,-3.1198,-3.1876,-3.239,-3.2717,-3.2968,-3.3081,-3.3081,-3.3081,-3.2141,-3.0395,-2.8269,-2.6151,-2.4231,-2.2758,-2.1123,-1.9184,-1.5151,-1.0849,-0.5656,0.4132,1.188,1.8067,2.1428,2.5063,2.8869,3.2957,3.6628,3.989,4.2113,4.3751,4.4974,4.524,4.5184,4.5303,4.6517,4.736,4.8211,4.9371,4.9518,4.9394,4.9394,4.8721,4.8026,4.7745,4.7787,4.7241,4.5288,4.3883,4.2477,4.0832,3.9022,3.7967,3.83,3.8928,4.0335,4.2908,4.419,4.5393,4.6778,4.5778,4.4759,4.4066,4.2104,4.0585,3.97,3.845,3.7206,3.602,3.7813,3.9162,4.0037,4.2759,4.5445,4.7977,4.8659,4.8967,-1.5861,0.0,0.0,-1.6198,-1.6619,-1.6973,-1.792,-1.8254,-1.8741,-2.0114,-2.0743,-2.1276,-2.2183,-2.2821,0.0,-2.3455,-2.3808,-2.3941,-2.3564,-2.3165,-2.2776,-2.2224,-2.1,-2.063,-2.1843,-2.2231,-2.2653,-2.342,-2.3784,-2.4546,-2.5822,-2.6306,-2.7495,-2.9484,-3.014,-3.1022,-3.2202,-3.2365,-3.2667,-3.3081,-3.3081,-3.3081,-3.3081,-3.2995,-3.1989,-3.0429,-2.9246,-2.7662,-2.5761,-2.3773,-2.1626,-1.9133,-1.4792,-1.135,-0.7719,0.1751,0.9615,1.6045,1.9679,2.3499,2.7519,3.1798,3.5631,3.9152,4.1756,4.3885,4.5552,4.6141,4.64,4.6691,4.7694,4.8253,4.8815,4.9789,4.987,4.9702,4.974,4.924,4.8759,4.8598,4.8601,4.8062,4.6286,4.4803,4.3227,4.1381,3.9136,3.7655,3.7639,3.8429,4.0128,4.3099,4.4162,4.5451,4.7432,4.6797,4.6394,4.6624,4.5086,4.3855,4.3239,4.2078,4.0784,3.9375,4.1169,4.229,4.2661,4.4932,4.7237,4.9541,4.9433,4.9624,0.0,0.0,-1.652,-1.7258,-1.789,-1.8467,-1.8964,-1.9173,-1.9669,-2.1152,-2.1363,-2.1591,-2.2489,-2.3426,-2.397,-2.3735,-2.4404,-2.478,-2.4312,-2.4042,-2.3513,-2.2535,-2.1613,-2.1217,0.0,-2.2065,-2.2965,-2.4605,-2.5206,-2.6063,-2.7193,-2.8199,-2.9139,-2.9767,-3.1323,-3.2164,-3.2215,-3.2767,-3.3056,-3.3081,-3.3081,-3.3081,-3.3068,-3.2649,-3.1989,-3.1134,-3.0158,-2.8888,-2.7295,-2.4916,-2.2163,-1.9162,-1.5082,-1.3073,-1.1198,-0.2213,0.5715,1.2705,1.775,2.2498,2.6962,3.1539,3.5599,3.9249,4.1789,4.4215,4.6161,4.6717,4.7403,4.8038,4.8477,4.8897,4.9356,4.973,5.0155,5.0483,5.0544,5.0586,5.0394,4.9604,4.9461,4.8709,4.6305,4.5267,4.3922,4.1468,3.9642,3.8534,3.8478,3.9789,4.1635,4.4023,4.5028,4.6567,4.9106,4.8529,4.8375,4.9221,4.7721,4.6778,4.6759,4.5034,4.3982,4.3711,4.3843,4.4722,4.6328,4.7331,4.8815,5.0664,5.0377,5.0406,0.0,0.0,-1.8212,-1.9328,-2.0102,-2.0703,-2.1142,-2.1657,-2.2124,-2.2212,-2.2526,-2.293,-2.3453,-2.4408,-2.5139,-2.5341,-2.5712,-2.5877,-2.5542,-2.4789,-2.4136,-2.3609,-2.2353,0.0,0.0,0.0,0.0,-2.4695,-2.531,-2.6251,-2.7745,-2.8185,-2.9151,-3.0796,-3.1386,-3.2026,-3.278,-3.298,-3.3081,-3.3081,-3.2896,-3.2723,-3.2649,-3.23,-3.1837,-3.1181,-3.0385,-2.9268,-2.7851,-2.4878,-2.1829,-1.8522,-1.4338,-1.1869,-0.9743,-0.1775,0.6074,1.3264,1.6847,2.1312,2.6245,3.091,3.5292,3.9098,4.147,4.382,4.58,4.6358,4.7053,4.7715,4.8135,4.8639,4.9126,4.9521,4.991,5.0268,5.0438,5.0584,5.0625,5.0337,5.0297,4.9714,4.7865,4.6422,4.4143,4.0068,3.8476,3.7917,3.8376,3.8852,4.0269,4.3239,4.3805,4.5197,4.8279,4.7778,4.7663,4.849,4.8009,4.7471,4.6932,4.6839,4.6436,4.5704,4.6337,4.6912,4.7427,4.8353,4.947,5.0683,5.0416,5.0444,0.0,-1.922,-1.9803,-2.0933,-2.1756,-2.2244,-2.2207,-2.2673,-2.2917,-2.2338,-2.2264,-2.2467,-2.2995,-2.3896,-2.476,-2.5464,-2.5988,-2.6303,-2.6308,-2.5844,-2.5187,-2.4434,-2.3513,0.0,0.0,0.0,0.0,-2.413,-2.4908,-2.605,-2.772,-2.8185,-2.9315,-3.1323,-3.1587,-3.2139,-3.3068,-3.3081,-3.3081,-3.3081,-3.2736,-3.2363,-3.2001,-3.1837,-3.156,-3.127,-3.0566,-2.9726,-2.838,-2.5131,-2.1486,-1.777,-1.3597,-1.0769,-0.8063,-0.1111,0.6533,1.3661,1.6342,2.0788,2.5953,3.0799,3.52,3.9113,4.1373,4.3639,4.5477,4.6035,4.6735,4.7421,4.7879,4.8477,4.9034,4.945,4.983,5.0197,5.0374,5.0563,5.0702,5.0702,5.0702,5.0297,4.9038,4.7256,4.4533,4.0174,3.9041,3.8617,3.8424,3.8629,3.9927,4.2878,4.3168,4.438,4.7413,4.7201,4.724,4.8048,4.8105,4.8009,4.7798,4.8279,4.8394,4.8067,4.8663,4.9085,4.9333,4.9931,5.0682,5.1587,5.1315,5.1338,-2.0195,-2.0885,-2.1423,-2.2141,-2.2917,-2.3209,-2.2308,-2.2265,-2.2203,-2.155,-2.0686,-2.0304,0.0,0.0,-2.2969,-2.4164,-2.5295,-2.6184,-2.6686,-2.7072,-2.6785,0.0,0.0,0.0,0.0,0.0,0.0,-2.3138,0.0,-2.5548,-2.7243,-2.8323,-2.9654,-3.1336,-3.1901,-3.2466,-3.3068,-3.3081,-3.3081,-3.3068,-3.2649,-3.1913,-3.1134,-3.1193,-3.1181,-3.1134,-3.0734,-3.0091,-2.9109,-2.5382,-2.1336,-1.7016,-1.3179,-0.9779,-0.6495,-0.0667,0.6421,1.332,1.6125,2.0728,2.6138,3.1021,3.5388,3.9194,4.15,4.3564,4.5283,4.5837,4.6489,4.7178,4.7738,4.8421,4.9108,4.948,4.9895,5.0236,5.0438,5.0584,5.0702,5.0702,5.0721,5.047,4.973,4.7797,4.5211,4.1894,4.1386,4.0698,3.8775,3.9252,4.0668,4.302,4.3272,4.4253,4.6682,4.6913,4.724,4.8048,4.8144,4.8548,4.9375,4.9433,4.9856,5.0683,5.0702,5.1087,5.1856,5.1895,5.2337,5.3145,5.2905,5.2935,-2.1969,-2.3234,-2.4312,-2.4106,-2.4808,-2.5171,-2.3685,-2.2871,-2.2034,-2.0719,-1.9696,-1.9298,0.0,0.0,0.0,-2.3522,-2.4894,0.0,-2.7193,-2.7899,0.0,0.0,0.0,-2.6167,-2.5029,-2.4099,0.0,0.0,-2.4418,-2.5724,-2.7783,-2.816,-2.9264,-3.1323,-3.1524,-3.2077,-3.3068,-3.3081,-3.3081,-3.3081,-3.245,-3.1613,-3.0676,-3.0554,-3.0374,-3.0158,-2.9658,-2.9279,-2.8659,-2.5334,-2.2012,-1.8619,-1.4893,-1.1038,-0.7103,-0.3216,0.2318,0.8484,1.3235,1.9456,2.5933,3.07,3.5186,3.9028,4.1094,4.3147,4.4886,4.5389,4.6067,4.6728,4.7488,4.8291,4.9034,4.942,4.983,5.0178,5.0374,5.0563,5.0702,5.0702,5.0776,5.0616,4.9877,4.8822,4.7142,4.4433,4.4023,4.3143,4.0726,4.0569,4.1583,4.3982,4.4195,4.4901,4.674,4.6913,4.724,4.8048,4.8702,4.9163,4.9394,5.001,5.0471,5.0702,5.0702,5.0798,5.101,5.1606,5.201,5.224,5.2663,5.306,-2.3425,-2.4739,-2.5808,-2.5372,-2.5863,-2.594,-2.4037,-2.288,-2.1768,-2.0187,-1.8842,0.0,0.0,0.0,0.0,0.0,0.0,0.0,-2.6812,-2.7824,-2.834,0.0,-2.7595,0.0,-2.5962,-2.497,-2.4456,0.0,-2.477,-2.5674,-2.7645,-2.821,-2.9365,-3.1336,-3.1625,-3.2177,-3.3068,-3.3081,-3.3081,-3.3081,-3.2264,-3.1258,-3.0045,-2.9726,-2.9268,-2.8795,0.0,-2.8351,-2.8028,-2.5383,-2.2746,-2.0076,-1.6774,-1.3245,-0.9551,-0.5943,-0.1207,0.4049,0.9496,1.5823,2.2556,2.8633,3.3509,3.7521,4.0183,4.2548,4.4423,4.5123,4.5868,4.6618,4.7409,4.8347,4.9145,4.955,5.0221,5.0803,5.0996,5.1429,5.1798,5.1798,5.1929,5.1814,5.1033,5.0307,4.8996,4.6503,4.6133,4.5468,4.3629,4.2689,4.2961,4.4958,4.4793,4.5191,4.6777,4.6913,4.7413,4.8606,4.9125,4.9721,5.0471,5.0971,5.1414,5.1779,5.1414,5.1414,5.1798,5.1875,5.2299,5.3049,5.3379,5.376,-2.4667,-2.5625,-2.6399,-2.6083,-2.6343,-2.6075,-2.3767,-2.2485,-2.1309,-1.9515,0.0,0.0,-1.7453,0.0,-1.8952,-2.0887,0.0,-2.4376,-2.5786,-2.7144,-2.7852,-2.7605,-2.7311,-2.6936,-2.6462,-2.555,-2.5222,-2.5674,-2.5297,-2.5724,-2.7306,-2.8373,-2.9639,-3.1367,-3.1955,-3.2397,-3.2896,-3.2896,-3.2896,-3.2896,-3.1925,-3.0722,-2.9315,-2.8702,-2.806,-2.74,0.0,0.0,-2.7295,-2.5431,-2.3385,-2.1208,-1.844,-1.5575,-1.2554,-0.8764,-0.4375,0.0436,0.5907,1.1496,1.763,2.5382,3.0894,3.5237,3.8811,4.1709,4.3931,4.4889,4.5749,4.66,4.7458,4.8476,4.937,4.9881,5.0855,5.1705,5.1947,5.2623,5.3203,5.3203,5.3454,5.3441,5.2764,5.2099,5.083,4.8456,4.8008,4.7637,4.6758,4.5226,4.4733,4.6111,4.5548,4.562,4.695,4.7182,4.7894,4.9471,4.9663,5.0433,5.201,5.2087,5.2433,5.3203,5.2472,5.2452,5.3203,5.2568,5.3029,5.4491,5.4479,5.47,-2.5895,-2.628,-2.6411,-2.6135,-2.6564,-2.6266,-2.344,-2.1769,0.0,0.0,0.0,-1.5016,-1.6118,0.0,0.0,-1.9391,0.0,0.0,0.0,0.0,-2.7072,0.0,0.0,0.0,0.0,0.0,0.0,0.0,0.0,-2.6703,-2.7896,-2.8574,-2.9658,-3.1427,-3.1835,-3.1991,-3.1925,-3.1925,-3.1925,-3.1925,-3.0937,-2.9909,-2.8773,-2.7872,-2.702,-2.634,-2.6167,0.0,-2.6244,-2.459,-2.2976,-2.1415,-1.854,-1.5801,-1.3023,-1.1463,-0.7329,-0.1552,0.4823,0.9661,1.4531,2.2235,2.821,3.3047,3.6942,4.0551,4.3604,4.4524,4.5579,4.66,4.7524,4.8598,4.974,5.0783,5.1461,5.2046,5.2797,5.3106,5.3203,5.3203,5.3898,5.4483,5.4458,5.3892,5.2821,5.1014,5.0176,4.9433,4.8555,4.751,4.7153,4.796,4.787,4.7782,4.7874,4.8548,4.9394,5.0414,5.1106,5.1933,5.2933,5.2972,5.3049,5.3203,5.3049,5.3049,5.3203,5.378,5.4203,5.4511,5.51,5.5351,-2.5333,-2.6001,-2.6351,-2.5441,-2.5726,-2.5477,-2.2606,0.0,0.0,0.0,0.0,-1.4415,-1.4867,0.0,0.0,0.0,0.0,0.0,0.0,0.0,0.0,0.0,0.0,0.0,0.0,0.0,0.0,0.0,0.0,0.0,-2.8047,-2.921,-3.0298,-3.1267,-3.1292,-3.0968,-3.0531,-3.0531,-3.0531,-3.0531,-2.9806,-2.898,-2.8132,-2.7115,-2.5954,-2.4865,-2.4707,0.0,-2.4777,-2.3601,-2.2449,-2.1366,-1.849,-1.6567,-1.5148,-1.2692,-1.1313,-0.9206,0.0113,0.7809,1.4449,2.0059,2.6194,3.2388,3.6767,4.0867,4.4207,4.5253,4.6495,4.7652,4.8645,4.9732,5.0813,5.1668,5.2571,5.3491,5.4318,5.4491,5.4491,5.4491,5.4978,5.5417,5.5547,5.4632,5.3328,5.1659,5.0723,4.9883,4.9004,4.8879,4.9108,4.9789,4.978,4.9838,5.0067,5.0471,5.1279,5.2587,5.3049,5.3626,5.4472,5.4491,5.4491,5.4491,5.4087,5.3876,5.3876,5.3837,5.4068,5.4511,5.4874,5.5234,-2.4159,-2.5144,-2.5768,-2.4475,-2.4469,-2.4099,-2.1521,-1.9864,0.0,0.0,0.0,0.0,0.0,0.0,0.0,0.0,0.0,0.0,0.0,0.0,0.0,0.0,0.0,0.0,0.0,0.0,0.0,0.0,0.0,0.0,-2.8411,-2.9856,-3.0798,-3.1009,-3.0598,-2.9863,-2.9143,-2.9143,-2.9143,-2.905,-2.8598,-2.8038,-2.74,-2.635,-2.4982,-2.3493,-2.352,0.0,0.0,-2.2391,-2.161,-2.0585,-1.7908,-1.6561,-1.5737,-1.2223,-1.2942,-1.4134,-0.3181,0.6948,1.5606,1.9101,2.5105,3.186,3.6727,4.1143,4.4707,4.5929,4.721,4.85,4.9531,5.0614,5.1694,5.2615,5.3824,5.4934,5.5549,5.5703,5.5703,5.5703,5.5866,5.6036,5.6178,5.4924,5.3328,5.1659,5.0723,4.9824,4.8769,4.9643,5.0644,5.1343,5.135,5.1532,5.2146,5.2203,5.2856,5.4395,5.4491,5.4857,5.5665,5.5703,5.5703,5.5703,5.5068,5.4761,5.4761,5.4068,5.4087,5.4761,5.4761,5.5088,-2.3027,-2.3698,-2.3912,-2.3555,-2.3061,-2.217,-2.0207,0.0,0.0,0.0,-1.3527,-1.2555,-1.3092,0.0,0.0,0.0,0.0,0.0,0.0,0.0,0.0,0.0,0.0,0.0,0.0,0.0,0.0,0.0,0.0,0.0,-2.9578,-3.0126,-3.0457,-3.0551,-2.9909,-2.9106,-2.8175,-2.8175,-2.8175,-2.8081,-2.76,-2.7231,-2.6945,-2.5606,-2.4313,-2.2985,-2.2719,0.0,0.0,-2.1081,-2.0002,-1.8669,-1.5846,-1.3798,-1.2051,-0.9493,-0.9092,-0.8594,-0.0806,0.822,1.6797,2.0626,2.5582,3.0951,3.566,4.0455,4.4377,4.5447,4.675,4.8014,4.9234,5.0263,5.1528,5.3785,5.497,5.5607,5.5684,5.5703,5.5703,5.5703,5.5866,5.6036,5.6178,5.4924,5.3328,5.1659,5.0723,4.9609,4.793,4.98,5.1561,5.2283,5.231,5.253,5.3126,5.3167,5.3552,5.4434,5.4491,5.4857,5.5665,5.5703,5.5703,5.5703,5.5626,5.5588,5.5588,5.5511,5.5511,5.5588,5.5588,5.5626,-2.0459,-2.1678,-2.2477,-2.1525,-2.1317,-2.0889,-1.8989,0.0,0.0,-1.4417,-1.297,-1.1951,-1.2156,0.0,0.0,0.0,0.0,0.0,0.0,0.0,0.0,0.0,0.0,0.0,0.0,0.0,0.0,0.0,0.0,0.0,-2.8845,-2.9736,-3.0091,-2.9829,-2.8991,-2.7987,-2.6678,-2.6582,-2.6582,-2.6582,-2.639,-2.6304,-2.611,-2.4922,-2.3601,-2.2165,-2.1709,0.0,0.0,-1.9228,-1.7921,-1.6367,-1.3296,-1.087,-0.8729,-0.5926,-0.4365,-0.2809,0.2627,1.0315,1.834,2.1324,2.6565,3.254,3.7097,4.1703,4.5633,4.6781,4.8277,4.9767,5.0904,5.2247,5.3629,5.4937,5.5472,5.5703,5.5703,5.5703,5.5703,5.5703,5.5866,5.6036,5.6178,5.4924,5.3328,5.1659,5.0273,4.8984,4.7754,4.8943,5.0596,5.2429,5.3432,5.4213,5.481,5.4861,5.4959,5.5203,5.5222,5.5376,5.5684,5.5703,5.5703,5.5703,5.5703,5.5703,5.5703,5.5703,5.5703,5.5703,5.5703,5.5703,-1.8095,-1.9707,-2.0927,-1.9878,-1.987,-1.9686,0.0,0.0,-1.4455,-1.3804,-1.2491,-1.1518,-1.1684,-1.2527,-1.3406,0.0,0.0,0.0,0.0,0.0,0.0,0.0,0.0,0.0,0.0,0.0,0.0,0.0,0.0,0.0,0.0,-2.8796,-2.9167,-2.8978,-2.8172,-2.7146,-2.5732,-2.5742,-2.5742,-2.5742,-2.5635,-2.5538,-2.544,-2.4233,-2.2902,-2.1464,0.0,0.0,0.0,-1.7562,-1.615,-1.4484,-1.1376,-0.902,-0.673,-0.336,-0.0112,0.3145,0.6625,1.2711,1.964,2.2484,2.7925,3.4176,3.8572,4.2851,4.6507,4.7834,4.9689,5.1567,5.2553,5.3861,5.508,5.5577,5.5703,5.5703,5.5703,5.5703,5.5703,5.5703,5.5866,5.6036,5.6178,5.4924,5.3328,5.1659,4.9961,4.8496,4.7363,4.8203,4.9783,5.206,5.3727,5.5025,5.5889,5.5935,5.5847,5.5724,5.5703,5.5703,5.5703,5.5703,5.5703,5.5703,5.5703,5.5703,5.5703,5.5703,5.5703,5.5703,5.5703,5.5838,-1.643,-1.7996,-1.9088,-1.8944,-1.8845,-1.8493,0.0,-1.5108,-1.3272,-1.3141,-1.1942,-1.1124,-1.1861,-1.216,-1.2675,0.0,0.0,0.0,0.0,0.0,0.0,0.0,0.0,0.0,0.0,0.0,0.0,0.0,0.0,0.0,0.0,-2.7533,-2.7704,-2.7938,-2.7441,-2.6764,-2.5732,-2.5742,-2.5742,-2.5742,-2.543,-2.5137,-2.4833,-2.3529,-2.2207,0.0,0.0,0.0,0.0,-1.6187,-1.4669,-1.3342,-1.0425,-0.8481,-0.6619,-0.2238,0.336,0.9055,1.0902,1.5247,2.067,2.4386,2.9625,3.527,3.9412,4.3268,4.6491,4.7975,5.0488,5.2976,5.3766,5.4543,5.5186,5.5599,5.5703,5.5703,5.5703,5.5703,5.5703,5.5703,5.5866,5.6036,5.6178,5.4924,5.3328,5.1659,4.9961,4.8262,4.6543,4.7832,4.9551,5.123,5.2914,5.4495,5.5974,5.604,5.5903,5.5705,5.5703,5.5703,5.5703,5.5703,5.5703,5.5703,5.5703,5.5703,5.5703,5.5703,5.5703,5.5703,5.5703,5.6145,-1.433,-1.5815,-1.7113,-1.6834,-1.7005,-1.6888,-1.5656,-1.4137,-1.2866,-1.2273,-1.1323,-1.0748,-1.1096,-1.2091,-1.2942,-1.3178,0.0,0.0,0.0,0.0,0.0,0.0,0.0,0.0,0.0,0.0,0.0,0.0,0.0,0.0,0.0,-2.5969,-2.6325,-2.7211,-2.6765,-2.6259,-2.5732,-2.5742,-2.5742,-2.5732,-2.5235,-2.4726,-2.3998,-2.2902,0.0,0.0,0.0,0.0,0.0,-1.4793,-1.3275,-1.1633,-0.9563,-0.8152,-0.6614,-0.134,0.6717,1.4722,1.3999,1.7728,2.3078,2.5792,3.0373,3.576,3.9714,4.3454,4.6806,4.9826,5.1946,5.3535,5.4481,5.5031,5.5369,5.564,5.5703,5.5703,5.5703,5.5703,5.5703,5.5703,5.5827,5.5968,5.6117,5.486,5.328,5.165,4.9978,4.8261,4.6523,4.7305,4.8672,5.0391,5.208,5.3916,5.5994,5.6107,5.5956,5.5724,5.5703,5.5703,5.5703,5.5703,5.5703,5.5703,5.5703,5.5703,5.5703,5.5703,5.5703,5.5703,5.6299,5.7049,0.0,-1.4037,-1.5104,-1.502,-1.5246,-1.525,-1.4265,-1.3144,-1.217,-1.1602,-1.0832,-1.0402,-1.0878,-1.1887,-1.2768,-1.3151,0.0,0.0,0.0,0.0,0.0,0.0,0.0,0.0,0.0,0.0,0.0,0.0,0.0,0.0,0.0,-2.458,-2.4958,-2.5952,-2.5898,-2.5844,-2.5732,-2.5742,-2.5742,-2.5732,-2.503,-2.4313,-2.3384,-2.2089,0.0,0.0,0.0,0.0,0.0,-1.3398,-1.2096,-1.0566,-0.8799,-0.7715,-0.6502,-0.1115,0.7268,1.5853,1.4765,1.8101,2.3279,2.6693,3.2121,3.8114,4.1902,4.5101,4.8061,5.1106,5.2902,5.4108,5.5069,5.5418,5.5551,5.5662,5.5703,5.5703,5.5703,5.5703,5.5703,5.5703,5.5808,5.5938,5.6001,5.5019,5.3677,5.2058,5.0418,4.8726,4.7011,4.7266,4.8262,5.0019,5.142,5.3181,5.5567,5.5998,5.602,5.5787,5.5745,5.5724,5.5703,5.5703,5.5703,5.5703,5.5703,5.5703,5.5703,5.5703,5.5857,5.6203,5.7069,5.7934,0.0,-1.2634,-1.3204,-1.3416,-1.3637,-1.3676,-1.3085,-1.2133,0.0,-1.1056,-1.043,-1.016,-1.0964,-1.1574,-1.2316,0.0,0.0,0.0,0.0,0.0,0.0,0.0,0.0,0.0,0.0,0.0,0.0,0.0,0.0,0.0,0.0,-2.3351,-2.3624,-2.4336,-2.4962,-2.5415,-2.5732,-2.5742,-2.5742,-2.5732,-2.4833,-2.3917,-2.2785,-2.1183,0.0,0.0,0.0,0.0,0.0,-1.2105,-1.0911,-0.9923,-0.8257,-0.7385,-0.6614,-0.1449,0.5904,1.3312,1.375,1.6906,2.1814,2.7464,3.4612,4.1729,4.5144,4.7716,4.9913,5.1863,5.3405,5.4689,5.5489,5.5703,5.5703,5.5703,5.5703,5.5703,5.5703,5.5703,5.5703,5.5703,5.5787,5.5885,5.591,5.5345,5.4382,5.2831,5.121,4.9614,4.7988,4.7734,4.834,5.0019,5.0915,5.2384,5.4811,5.5697,5.6054,5.5904,5.5827,5.5766,5.5703,5.5703,5.5703,5.5703,5.5761,5.578,5.578,5.5838,5.6299,5.7107,5.7973,5.88,-0.9529,0.0,-1.2504,-1.2202,-1.2595,-1.279,0.0,-1.1329,-1.099,0.0,0.0,0.0,0.0,0.0,0.0,0.0,0.0,0.0,0.0,0.0,0.0,0.0,0.0,0.0,0.0,0.0,0.0,0.0,0.0,0.0,0.0,-2.2439,-2.2598,-2.3353,-2.3395,-2.4143,-2.5723,-2.5742,-2.5742,-2.5645,-2.4637,-2.3402,-2.1954,-2.0246,0.0,0.0,0.0,0.0,-1.1655,-1.0903,-1.0033,-0.9047,-0.782,-0.7276,-0.65,-0.0667,0.6543,1.3421,1.4554,1.8077,2.3272,3.1179,3.7022,4.1729,4.5144,4.7716,4.9913,5.1863,5.3405,5.4689,5.5489,5.5703,5.5703,5.5703,5.5703,5.5703,5.5703,5.5703,5.5703,5.5703,5.5766,5.5847,5.5901,5.5335,5.4587,5.3635,5.2113,5.0725,4.9726,4.9004,4.9004,5.0098,5.0917,5.216,5.4018,5.4863,5.5462,5.5872,5.5901,5.5827,5.5684,5.5703,5.5703,5.5703,5.6338,5.6684,5.6684,5.7357,5.78,5.8011,5.8838,5.9319,-0.8798,-1.0144,-1.1249,-1.1228,-1.156,-1.1669,-1.1013,0.0,0.0,0.0,0.0,0.0,0.0,0.0,0.0,0.0,0.0,0.0,0.0,0.0,0.0,0.0,0.0,0.0,0.0,0.0,0.0,0.0,0.0,0.0,0.0,-2.1748,-2.175,-2.2258,-2.2117,-2.2898,-2.4735,-2.4745,-2.484,-2.4932,-2.3827,-2.2601,-2.1269,-1.942,-1.7331,0.0,0.0,0.0,-1.068,-0.9915,-0.9147,-0.838,-0.7041,-0.6831,-0.6393,-0.0111,0.6874,1.349,1.4926,1.9795,2.6526,3.311,3.794,4.1982,4.5388,4.8002,5.0186,5.1926,5.3405,5.4689,5.5489,5.5703,5.5703,5.5703,5.5703,5.5703,5.5703,5.5703,5.5703,5.5703,5.5724,5.5766,5.5808,5.5589,5.5292,5.4938,5.3559,5.2409,5.1992,5.0508,4.9824,5.0664,5.1133,5.2088,5.3802,5.4689,5.5392,5.5985,5.6017,5.5921,5.5787,5.5766,5.5917,5.628,5.6761,5.7203,5.7588,5.8069,5.8492,5.8858,5.93,5.9704,-0.8663,-0.9416,-1.0031,-1.0556,-1.0819,-1.0931,-1.0856,0.0,0.0,0.0,0.0,0.0,0.0,0.0,0.0,0.0,0.0,0.0,0.0,0.0,0.0,0.0,0.0,0.0,0.0,0.0,0.0,0.0,0.0,0.0,0.0,-2.1129,-2.1089,-2.1096,-2.1063,-2.1719,-2.2943,-2.3157,-2.3383,-2.3628,-2.2693,-2.17,-2.0672,-1.8708,-1.6599,0.0,0.0,0.0,-0.9923,-0.9144,-0.8484,-0.7937,-0.6482,-0.65,-0.6624,0.0,0.71,1.3593,1.5737,2.1965,2.9661,3.3655,3.7944,4.2164,4.5492,4.8304,5.0594,5.212,5.3497,5.4701,5.5489,5.5703,5.5703,5.5703,5.5703,5.5703,5.5703,5.5703,5.5703,5.5703,5.5703,5.5703,5.5703,5.5982,5.623,5.6364,5.5178,5.4309,5.4394,5.2285,5.0996,5.1543,5.1719,5.2383,5.3867,5.4801,5.5567,5.6212,5.6175,5.613,5.6097,5.6134,5.6517,5.7184,5.7319,5.7742,5.8492,5.8627,5.9031,5.9704,5.9704,6.0089,-0.8123,-0.9152,-1.0031,-1.0556,-1.145,-1.2027,0.0,0.0,0.0,0.0,0.0,0.0,0.0,0.0,0.0,0.0,0.0,0.0,0.0,0.0,0.0,0.0,0.0,0.0,0.0,0.0,0.0,0.0,0.0,0.0,0.0,0.0,-2.0619,-2.0193,-2.0155,-2.0113,-2.0058,-2.102,-2.1632,-2.1691,-2.1334,-2.0672,-1.9738,-1.7969,-1.5843,0.0,0.0,-1.0688,-0.9047,-0.8377,-0.839,-0.8631,-0.7059,-0.7413,-0.7877,-0.1114,0.6428,1.3996,1.9005,2.3899,2.87,3.2524,3.7123,4.1781,4.525,4.8235,5.0936,5.2714,5.389,5.476,5.5512,5.5703,5.5703,5.5703,5.5703,5.5703,5.5703,5.5703,5.5703,5.5703,5.5703,5.5703,5.5703,5.6483,5.7137,5.72,5.653,5.6065,5.6171,5.457,5.3183,5.2578,5.3164,5.3711,5.3984,5.4803,5.5636,5.6406,5.6336,5.6486,5.6984,5.7578,5.7953,5.8107,5.8781,5.9184,5.9319,6.005,6.0473,6.0589,6.0589,6.0666,-0.8424,-0.9303,-1.0106,-1.0973,-1.1814,-1.2341,0.0,0.0,0.0,0.0,0.0,0.0,0.0,0.0,0.0,0.0,0.0,0.0,0.0,0.0,0.0,0.0,0.0,0.0,0.0,0.0,0.0,0.0,0.0,0.0,0.0,0.0,-2.0144,-1.902,-1.9249,-1.9084,-1.848,-1.9143,-1.9963,-2.0751,-2.0225,-1.9683,-1.9124,-1.745,-1.5423,-1.3264,0.0,-1.0582,-0.883,-0.8048,-0.7946,-0.8072,-0.6274,-0.6177,-0.5837,0.4096,1.0393,1.4674,1.959,2.4172,2.8484,3.231,3.7229,4.2297,4.5926,4.8867,5.1339,5.3178,5.4171,5.4857,5.5531,5.5703,5.5703,5.5703,5.5703,5.5703,5.5703,5.5703,5.5703,5.5703,5.5703,5.5838,5.6319,5.6889,5.7641,5.8651,5.8226,5.7841,5.7988,5.6484,5.4883,5.3555,5.418,5.4707,5.4707,5.5937,5.6829,5.7124,5.7029,5.7269,5.7973,5.8297,5.8663,5.9106,5.943,5.9832,6.025,6.0631,6.08,6.08,6.08,6.08,-0.8798,-0.9403,-1.0018,-1.1274,0.0,-1.263,-1.2768,0.0,0.0,0.0,0.0,0.0,0.0,0.0,0.0,0.0,0.0,0.0,0.0,0.0,0.0,0.0,0.0,0.0,0.0,0.0,0.0,0.0,0.0,0.0,0.0,0.0,-1.9929,-1.8547,-1.8938,-1.8812,-1.8056,-1.8214,-1.8839,-1.9842,-1.9305,-1.8804,-1.8407,-1.6903,-1.5108,-1.3264,-1.21,-1.0582,-0.8826,-0.7937,-0.7502,-0.7399,-0.5152,-0.381,-0.1788,0.9201,1.3743,1.5045,1.9184,2.3639,2.8043,3.1964,3.7044,4.2464,4.6405,4.937,5.1777,5.3535,5.4446,5.4981,5.5554,5.5703,5.5703,5.5703,5.5703,5.5703,5.5703,5.5703,5.5703,5.5703,5.5703,5.5972,5.6838,5.7332,5.8128,5.9755,5.96,5.9338,5.9451,5.7968,5.623,5.4492,5.4902,5.5293,5.5293,5.6894,5.7946,5.8041,5.8109,5.841,5.9018,5.9172,5.9523,6.0111,6.0036,6.0304,6.0916,6.0846,6.08,6.08,6.08,6.08,-0.8798,-0.9138,-0.9554,-1.1173,0.0,0.0,-1.3858,0.0,0.0,0.0,0.0,0.0,0.0,0.0,0.0,0.0,0.0,0.0,0.0,0.0,0.0,0.0,0.0,0.0,0.0,0.0,0.0,0.0,0.0,0.0,0.0,0.0,0.0,-1.9545,-1.9971,-1.982,-1.9063,-1.9104,-1.8847,-1.8252,-1.8289,-1.7981,-1.7291,-1.6305,-1.5013,-1.3264,-1.21,-1.0582,-0.8826,-0.7712,-0.7276,-0.6956,-0.4032,-0.0112,0.4576,1.0903,1.364,1.4635,1.8352,2.2435,2.6575,3.041,3.5818,4.1656,4.6016,4.936,5.2073,5.3917,5.4758,5.5157,5.5596,5.5703,5.5703,5.5703,5.5703,5.5703,5.5703,5.5703,5.5703,5.5703,5.5703,5.5972,5.6838,5.7794,5.8757,5.9832,6.0066,6.0157,6.0298,5.8844,5.7147,5.539,5.5254,5.5293,5.5293,5.6894,5.8241,5.9039,5.9671,6.0035,6.0086,6.0728,6.1104,6.1094,6.0971,6.0943,6.1002,6.0853,6.08,6.08,6.08,6.08,-0.9391,-0.9592,-0.9905,-1.1249,0.0,0.0,0.0,0.0,0.0,0.0,0.0,0.0,0.0,0.0,0.0,0.0,0.0,0.0,0.0,0.0,0.0,0.0,0.0,0.0,0.0,0.0,0.0,0.0,0.0,0.0,0.0,0.0,0.0,-2.028,-2.0784,-2.0799,-2.0494,-2.0257,-1.9687,-1.897,-1.8446,-1.7879,-1.7161,-1.6293,-1.4905,-1.3264,-1.21,-1.0582,-0.8826,-0.7709,-0.7165,-0.6842,-0.2688,0.123,0.5248,1.1131,1.3532,1.4319,1.7843,2.2067,2.6435,3.0387,3.5805,4.1655,4.6143,4.9279,5.161,5.3228,5.4183,5.4817,5.5531,5.5703,5.5703,5.5703,5.5703,5.5703,5.5703,5.5703,5.5703,5.5703,5.5703,5.6145,5.755,5.8179,5.8916,6.0389,6.0767,6.0731,6.0324,5.8847,5.6985,5.4726,5.4004,5.4336,5.5976,5.7715,5.9062,5.9883,6.0181,6.0544,6.1049,6.1339,6.1461,6.139,6.1253,6.119,6.1186,6.1061,6.096,6.092,6.0897,6.0853,-0.9705,-0.978,-0.9956,0.0,0.0,0.0,0.0,0.0,0.0,0.0,0.0,0.0,0.0,0.0,0.0,0.0,0.0,0.0,0.0,0.0,0.0,0.0,0.0,0.0,0.0,0.0,0.0,0.0,0.0,0.0,0.0,0.0,0.0,0.0,-2.1469,-2.1526,-2.1311,-2.0808,-2.0076,-1.9239,-1.8333,-1.7563,-1.6881,-1.6037,-1.4673,-1.3057,-1.1972,-1.0498,-0.8759,-0.7695,-0.6601,-0.538,-0.1569,0.1791,0.5248,1.1131,1.3423,1.4003,1.7331,2.1378,2.5882,2.9713,3.5202,4.1084,4.5824,4.8787,5.0839,5.2298,5.3345,5.4161,5.4962,5.5412,5.564,5.5703,5.5703,5.5703,5.5703,5.5703,5.5703,5.5703,5.5703,5.6165,5.7646,5.7944,5.8491,5.9995,6.0573,6.0701,6.0266,5.9026,5.7106,5.4296,5.2968,5.3125,5.5195,5.7226,5.8613,5.918,5.9957,6.0769,6.1603,6.1631,6.1607,6.1556,6.1432,6.1359,6.1363,6.1229,6.1128,6.1058,6.0983,6.0942,-0.9617,-0.9504,0.0,0.0,0.0,0.0,0.0,0.0,0.0,0.0,0.0,0.0,0.0,0.0,0.0,0.0,0.0,0.0,0.0,0.0,0.0,0.0,0.0,0.0,0.0,0.0,0.0,0.0,0.0,0.0,0.0,0.0,0.0,0.0,-2.2087,-2.1909,-2.1356,-2.0645,-1.982,-1.8796,-1.7823,-1.7029,-1.6279,-1.5482,-1.4163,-1.2505,-1.159,-1.0202,-0.8615,-0.7656,-0.5367,-0.2464,-0.0672,0.1791,0.5248,1.1126,1.332,1.3696,1.6605,2.032,2.4482,2.8233,3.372,3.9728,4.4709,4.772,4.9777,5.1249,5.2357,5.3252,5.3851,5.4751,5.5527,5.5682,5.5703,5.5703,5.5703,5.5703,5.5703,5.5703,5.5703,5.5972,5.6838,5.7076,5.7408,5.8356,5.9295,5.9939,6.0135,5.947,5.7679,5.4331,5.2421,5.1738,5.2598,5.5058,5.6562,5.6582,5.8984,6.0781,6.164,6.1699,6.1698,6.1709,6.1564,6.1504,6.1506,6.1373,6.1272,6.1206,6.1065,6.0982,-0.9705,0.0,0.0,0.0,0.0,0.0,0.0,0.0,0.0,0.0,0.0,0.0,0.0,0.0,0.0,0.0,0.0,0.0,0.0,0.0,0.0,0.0,0.0,0.0,0.0,0.0,0.0,0.0,0.0,0.0,0.0,0.0,0.0,0.0,-2.252,-2.198,-2.1311,-2.043,-1.9347,-1.7963,-1.7029,-1.6251,-1.5699,-1.4666,-1.3443,-1.2005,-1.1072,-0.9885,-0.8615,-0.7561,-0.5375,-0.2464,-0.0672,0.1567,0.4465,0.957,1.21,1.3367,1.6274,1.9993,2.4207,2.7768,3.3015,3.8823,4.337,4.6503,4.8889,5.0431,5.1646,5.2608,5.3215,5.4067,5.4952,5.5554,5.5703,5.5703,5.5703,5.5703,5.5703,5.5703,5.5703,5.5972,5.6838,5.7014,5.7324,5.8231,5.8645,5.8482,5.7507,5.6725,5.5201,5.2462,5.0642,4.998,5.0879,5.2734,5.4375,5.5605,5.8125,5.9922,6.0742,6.1367,6.1698,6.1695,6.1603,6.1564,6.1562,6.1522,6.148,6.1401,6.1266,6.1205,-0.9968,0.0,0.0,0.0,0.0,0.0,0.0,0.0,0.0,0.0,0.0,0.0,0.0,0.0,0.0,0.0,0.0,0.0,0.0,0.0,0.0,0.0,0.0,0.0,0.0,0.0,0.0,0.0,0.0,0.0,0.0,0.0,0.0,0.0,-2.2082,-2.1516,-2.0764,-1.9604,-1.8419,-1.7124,-1.59,-1.4942,-1.424,-1.3596,-1.2455,-1.1051,-1.002,-0.8913,-0.7957,-0.7402,-0.5458,-0.2464,-0.0672,0.1231,0.346,0.8008,1.087,1.292,1.6131,1.9791,2.3607,2.6948,3.1729,3.6942,4.1083,4.4505,4.7255,4.9008,5.047,5.17,5.2368,5.325,5.4246,5.5256,5.5527,5.5551,5.5551,5.5551,5.5596,5.5618,5.564,5.5835,5.6395,5.6472,5.6646,5.7184,5.7947,5.8005,5.6834,5.5726,5.4385,5.2572,5.0264,4.9218,5.0117,5.1426,5.2637,5.3672,5.6523,5.8379,5.8867,6.0703,6.1699,6.1698,6.1656,6.1631,6.1645,6.1635,6.1618,6.1582,6.1792,6.1888,0.0,0.0,0.0,0.0,0.0,0.0,0.0,0.0,0.0,0.0,0.0,0.0,0.0,0.0,0.0,0.0,0.0,0.0,0.0,0.0,0.0,0.0,0.0,0.0,0.0,0.0,0.0,0.0,0.0,0.0,0.0,0.0,0.0,-2.1674,-2.1094,-2.0503,-1.9712,-1.8234,-1.703,0.0,-1.4472,-1.3221,-1.215,-1.2145,-1.1277,-0.9739,-0.8711,-0.77,-0.6756,-0.7103,-0.5408,-0.2353,-0.0448,0.112,0.2569,0.6561,0.964,1.2464,1.6187,1.9641,2.288,2.5989,3.0122,3.4653,3.8379,4.2061,4.5243,4.7328,4.9131,5.0645,5.1454,5.2412,5.3477,5.4779,5.5157,5.521,5.521,5.5288,5.5364,5.5437,5.5527,5.5596,5.5703,5.5703,5.5703,5.5703,5.7293,5.82,5.7373,5.6058,5.483,5.3864,5.0844,4.9192,4.9899,5.0624,5.1113,5.1289,5.4414,5.6348,5.6582,5.9746,6.1504,6.1582,6.1582,6.1621,6.1699,6.1699,6.1698,6.1729,6.2462,6.2779,0.0,0.0,0.0,0.0,0.0,0.0,0.0,0.0,0.0,0.0,0.0,0.0,0.0,0.0,0.0,0.0,0.0,0.0,0.0,0.0,0.0,0.0,0.0,0.0,0.0,0.0,0.0,0.0,0.0,0.0,0.0,0.0,0.0,-2.0416,-1.9878,-1.9151,-1.8141,-1.7124,-1.5798,0.0,-1.3307,-1.1955,-1.0489,-1.0694,-0.9987,-0.861,-0.7942,-0.6967,-0.5999,-0.6785,-0.497,-0.1233,0.1683,0.3589,0.4925,0.7374,0.9995,1.2793,1.5958,1.9302,2.2615,2.5614,2.9577,3.384,3.7408,4.1267,4.4883,4.7266,4.9073,5.0517,5.1269,5.219,5.3189,5.3997,5.4425,5.4659,5.4659,5.4817,5.4981,5.5153,5.532,5.5504,5.5662,5.5703,5.5703,5.5703,5.7228,5.783,5.6405,5.651,5.57,5.3008,5.0894,4.9224,4.817,4.8299,4.9004,5.0371,5.2402,5.4453,5.6523,5.8613,6.0039,6.0664,6.0683,6.1015,6.1699,6.1699,6.1698,6.1715,6.2501,6.2876,0.0,0.0,0.0,0.0,0.0,0.0,0.0,0.0,0.0,0.0,0.0,0.0,0.0,0.0,0.0,0.0,0.0,0.0,0.0,0.0,0.0,0.0,0.0,0.0,0.0,0.0,0.0,0.0,0.0,0.0,0.0,-2.0098,-1.9795,-1.9141,-1.8866,-1.8277,-1.7176,-1.6115,-1.4943,-1.3499,-1.2349,-1.0886,-0.9217,-0.9221,-0.8674,-0.7746,-0.7762,-0.7061,-0.5967,-0.706,-0.4986,-0.0554,0.4216,0.5802,0.5605,0.7838,1.0127,1.2675,1.602,1.917,2.234,2.5149,2.8713,3.2463,3.5668,3.9549,4.3421,4.6074,4.8168,4.9754,5.0502,5.1587,5.2644,5.3381,5.3944,5.424,5.424,5.4476,5.4735,5.4943,5.5172,5.5432,5.5662,5.5703,5.5703,5.5703,5.6819,5.7247,5.602,5.627,5.5794,5.3773,5.1726,5.0199,4.9396,4.8613,4.8742,5.007,5.175,5.3509,5.5288,5.7029,5.8534,5.9805,6.0195,6.0625,6.1074,6.1504,6.1699,6.1738,6.2984,6.3567,0.0,0.0,0.0,0.0,0.0,0.0,0.0,0.0,0.0,0.0,0.0,0.0,0.0,0.0,0.0,0.0,0.0,0.0,0.0,0.0,0.0,0.0,0.0,0.0,0.0,0.0,0.0,0.0,0.0,0.0,-1.9072,-1.9212,-1.8783,-1.7871,-1.7827,-1.7265,-1.6211,-1.5311,-1.4238,-1.2829,-1.138,-0.9813,-0.8333,-0.8137,-0.764,-0.7138,-0.7662,-0.7038,-0.5913,-0.6978,-0.4774,-0.0,0.603,0.7205,0.5714,0.7844,1.0131,1.2567,1.6088,1.925,2.2156,2.4815,2.7974,3.1213,3.4113,3.7958,4.1913,4.4848,4.7197,4.9054,4.989,5.1016,5.2155,5.2999,5.3542,5.387,5.387,5.4142,5.4468,5.4787,5.5119,5.5432,5.5662,5.5703,5.5703,5.5703,5.6434,5.6706,5.5882,5.6097,5.5922,5.4878,5.2848,5.1502,5.1265,4.9705,4.9108,4.9986,5.1533,5.2865,5.3916,5.5625,5.7315,5.8925,5.9765,6.0332,6.0625,6.1348,6.1699,6.1738,6.3496,6.4297,0.0,0.0,0.0,0.0,0.0,0.0,0.0,0.0,0.0,0.0,0.0,0.0,0.0,0.0,0.0,0.0,0.0,0.0,0.0,0.0,0.0,0.0,0.0,0.0,0.0,0.0,0.0,0.0,0.0,0.0,-1.8174,-1.7924,-1.7356,-1.6292,-1.6273,-1.5862,-1.519,-1.4469,-1.3394,-1.2047,-0.9608,-0.8336,-0.8038,-0.8041,-0.754,-0.6845,-0.7059,-0.622,-0.4667,-0.5093,-0.2968,0.0765,0.5031,0.6189,0.5594,0.7152,0.9889,1.3126,1.6206,1.925,2.2156,2.4815,2.7808,3.0909,3.371,3.7777,4.2048,4.474,4.7267,4.9367,5.027,5.1187,5.2042,5.2955,5.323,5.3314,5.3314,5.3619,5.4017,5.449,5.5134,5.566,5.5684,5.5703,5.5703,5.5703,5.6434,5.6684,5.5821,5.7033,5.7114,5.4862,5.371,5.256,5.1166,4.9508,4.8904,4.9789,5.0704,5.1968,5.3662,5.5463,5.6918,5.7974,5.8885,6.0078,6.1523,6.164,6.1699,6.1738,6.3496,6.4297,0.0,0.0,0.0,0.0,0.0,0.0,0.0,0.0,0.0,0.0,0.0,0.0,0.0,0.0,0.0,0.0,0.0,0.0,0.0,0.0,0.0,0.0,0.0,0.0,0.0,0.0,0.0,0.0,0.0,-1.794,-1.7735,-1.7266,-1.6525,-1.5482,-1.5438,-1.4951,-1.4115,-1.3525,-1.231,-1.0583,-0.8825,-0.7942,-0.7743,-0.764,-0.7238,-0.6539,-0.6651,-0.5367,-0.3267,-0.2452,-0.073,0.1616,0.4953,0.6129,0.6151,0.7709,1.0335,1.346,1.6311,1.925,2.2156,2.4815,2.7725,3.069,3.3299,3.6972,4.0766,4.3387,4.597,4.8173,4.9184,5.0593,5.1946,5.2955,5.3206,5.3206,5.3206,5.3518,5.4,5.4654,5.5217,5.5573,5.5527,5.5504,5.548,5.548,5.5806,5.5926,5.5585,5.6668,5.689,5.5381,5.4959,5.4332,5.3158,5.1541,5.0952,5.1819,5.2214,5.3203,5.5022,5.6377,5.7739,5.9176,5.9641,6.0234,6.0976,6.1465,6.1699,6.1738,6.3496,6.4297,0.0,0.0,0.0,0.0,0.0,0.0,0.0,0.0,0.0,0.0,0.0,0.0,0.0,0.0,0.0,0.0,0.0,0.0,0.0,0.0,0.0,0.0,0.0,0.0,0.0,0.0,0.0,0.0,0.0,-1.7794,-1.7314,-1.6661,-1.5794,-1.4688,-1.4525,-1.4008,-1.3008,-1.2265,-1.1077,-0.9449,-0.8513,-0.7842,-0.7543,-0.7447,-0.6945,-0.6239,-0.6353,-0.4841,-0.2321,-0.0707,0.0722,0.213,0.5106,0.6406,0.6705,0.8706,1.1324,1.4105,1.6853,1.9675,2.255,2.5285,2.8111,3.0903,3.3429,3.6638,3.989,4.23,4.4886,4.7241,4.8323,4.9994,5.1633,5.2698,5.2999,5.3103,5.3314,5.366,5.4196,5.4833,5.521,5.5369,5.5288,5.5164,5.5111,5.5111,5.5111,5.5138,5.5217,5.6282,5.6726,5.6041,5.6307,5.6175,5.5343,5.3928,5.3378,5.4017,5.4268,5.4998,5.6369,5.7541,5.881,6.0166,6.0481,6.0655,6.0721,6.1386,6.1698,6.1738,6.3496,6.4297,0.0,0.0,0.0,0.0,0.0,0.0,0.0,0.0,0.0,0.0,0.0,0.0,0.0,0.0,0.0,0.0,0.0,0.0,0.0,0.0,0.0,0.0,0.0,0.0,0.0,0.0,0.0,0.0,0.0,-1.7755,-1.6706,-1.5965,-1.4991,-1.384,-1.3311,-1.2706,-1.1784,-1.0411,-0.9451,-0.8987,-0.8364,-0.7739,-0.7238,-0.7762,-0.7263,-0.5952,-0.6268,-0.4849,-0.2321,-0.0707,0.0722,0.213,0.5106,0.6619,0.736,1.0006,1.2615,1.5394,1.8351,2.1038,2.3638,2.6607,2.9109,3.1644,3.4157,3.7312,4.0444,4.2314,4.4878,4.7341,4.8377,4.9654,5.1017,5.2024,5.2454,5.2857,5.36,5.4104,5.4554,5.4852,5.5028,5.508,5.4962,5.4708,5.4535,5.4535,5.4535,5.4616,5.4806,5.6426,5.7325,5.6709,5.7555,5.7822,5.6956,5.6032,5.5532,5.557,5.6359,5.6904,5.7062,5.8738,5.9766,5.992,6.0798,6.1381,6.1623,6.1687,6.1694,6.1737,6.3496,6.4297,0.0,0.0,0.0,0.0,0.0,0.0,0.0,0.0,0.0,0.0,0.0,0.0,0.0,0.0,0.0,0.0,0.0,0.0,0.0,0.0,0.0,0.0,0.0,0.0,0.0,0.0,0.0,0.0,0.0,0.0,-1.6664,-1.5903,-1.5054,-1.4122,-1.3404,-1.2261,-1.0721,-0.9389,-0.8574,-0.8497,-0.8063,-0.755,-0.6942,-0.726,-0.6456,-0.4843,-0.5256,-0.4853,-0.3739,-0.1111,0.0615,0.1989,0.4808,0.6709,0.8196,1.1185,1.4144,1.7055,1.9778,2.252,2.514,2.7681,3.0244,3.2621,3.4915,3.7634,4.0173,4.155,4.3889,4.6244,4.7423,4.8717,5.0115,5.1497,5.2072,5.2472,5.3078,5.3795,5.434,5.4482,5.4685,5.4787,5.4541,5.4326,5.419,5.419,5.419,5.4465,5.5263,5.6581,5.7435,5.7416,5.839,5.8723,5.7896,5.755,5.7376,5.7376,5.7665,5.8113,5.8678,5.9379,6.0034,6.0648,6.1039,6.1324,6.151,6.1549,6.1596,6.1687,6.3475,6.4297,0.0,0.0,0.0,0.0,0.0,0.0,0.0,0.0,0.0,0.0,0.0,0.0,0.0,0.0,0.0,0.0,0.0,0.0,0.0,0.0,0.0,0.0,0.0,0.0,0.0,0.0,0.0,0.0,0.0,0.0,-1.6664,-1.6035,-1.5117,-1.3897,-1.2831,-1.1402,-0.9784,-0.8418,-0.7727,-0.7875,-0.7787,-0.7333,-0.6583,-0.6736,-0.5646,-0.3732,-0.4448,-0.4147,-0.2929,-0.0101,0.1633,0.259,0.5175,0.7273,0.9286,1.2426,1.5517,1.8421,2.1249,2.3941,2.6476,2.8909,3.1336,3.3733,3.5967,3.8204,4.0232,4.1126,4.3256,4.5561,4.6724,4.8258,4.981,5.1105,5.1714,5.2131,5.2688,5.3452,5.4102,5.4158,5.4277,5.4345,5.4088,5.387,5.3738,5.3738,5.3738,5.4149,5.5319,5.6517,5.7498,5.8091,5.9229,5.9723,5.9184,5.9146,5.9146,5.9146,5.9146,5.94,5.9961,6.0049,6.0362,6.1001,6.1041,6.1109,6.1233,6.1393,6.1504,6.1618,6.3425,6.4587,0.0,0.0,0.0,0.0,0.0,0.0,0.0,0.0,0.0,0.0,0.0,0.0,0.0,0.0,0.0,0.0,0.0,0.0,0.0,0.0,0.0,0.0,0.0,0.0,0.0,0.0,0.0,0.0,0.0,-1.7677,-1.6558,-1.6149,-1.5076,-1.315,-1.1476,-1.0111,-0.8913,-0.7426,-0.6844,-0.7058,-0.7352,-0.7095,-0.6174,-0.6291,-0.4935,-0.2522,-0.4048,-0.2832,0.0202,0.2427,0.3574,0.4142,0.6007,0.8115,1.0465,1.3882,1.6878,1.9701,2.2767,2.5217,2.7557,3.0209,3.2498,3.4696,3.7084,3.9059,4.0665,4.1217,4.3196,4.5285,4.6389,4.8312,5.0215,5.0822,5.1381,5.1946,5.2454,5.3208,5.3796,5.3851,5.3851,5.3758,5.3623,5.3359,5.3206,5.3206,5.3206,5.3649,5.4869,5.6157,5.7472,5.8699,5.9996,6.08,6.08,6.08,6.08,6.08,6.08,6.08,6.08,6.08,6.08,6.08,6.08,6.0831,6.0901,6.1225,6.1413,6.1537,6.3357,6.513,-0.7643,0.0,0.0,0.0,0.0,0.0,0.0,0.0,0.0,0.0,0.0,0.0,0.0,0.0,0.0,0.0,0.0,0.0,0.0,0.0,0.0,0.0,0.0,0.0,0.0,0.0,0.0,0.0,-1.6249,-1.572,-1.5013,-1.4466,-1.3608,-1.2365,-1.0914,-0.9601,-0.8449,-0.6911,-0.6238,-0.6349,-0.6332,-0.5882,-0.5189,-0.602,-0.4984,-0.2321,-0.1616,-0.0404,0.1414,0.5161,0.5785,0.4778,0.681,0.9089,1.1606,1.5117,1.8398,2.144,2.4196,2.6703,2.9157,3.145,3.3713,3.6026,3.8294,4.001,4.1217,4.1369,4.3001,4.5142,4.6726,4.8208,4.9453,5.008,5.0786,5.1429,5.2042,5.2795,5.34,5.36,5.3623,5.3623,5.3404,5.3295,5.3206,5.3206,5.3206,5.3829,5.5547,5.6444,5.7525,5.9284,6.0027,6.0449,6.0449,6.0449,6.0468,6.0578,6.0629,6.068,6.0729,6.0757,6.08,6.08,6.08,6.0827,6.0894,6.1036,6.1162,6.1324,6.3195,6.4996,0.0,0.0,0.0,0.0,0.0,0.0,0.0,0.0,0.0,0.0,0.0,0.0,0.0,0.0,0.0,0.0,0.0,0.0,0.0,0.0,0.0,0.0,0.0,0.0,0.0,0.0,0.0,-1.4004,-1.3885,-1.3656,-1.3425,-1.31,-1.2458,-1.1514,-1.0226,-0.9013,-0.7774,-0.6616,-0.5984,-0.594,-0.5728,-0.5384,-0.5202,-0.6469,-0.5701,-0.3297,-0.1006,0.0606,0.1918,0.5555,0.6163,0.4941,0.6751,0.9314,1.2347,1.5693,1.891,2.2055,2.4815,2.721,2.9545,3.1549,3.3809,3.6225,3.8159,3.9801,4.1003,4.1156,4.3106,4.5608,4.705,4.8211,4.9168,4.975,5.0497,5.1258,5.1897,5.2608,5.3248,5.3355,5.3418,5.34,5.3295,5.323,5.3206,5.3206,5.3206,5.3731,5.5318,5.5845,5.6814,5.87,5.9222,5.9543,5.9885,5.9924,6.0004,6.015,6.0293,6.0449,6.0572,6.0734,6.08,6.08,6.08,6.0823,6.0846,6.0944,6.1249,6.1772,6.2886,6.4354,-0.9767,-0.9993,0.0,0.0,0.0,0.0,-1.0223,-1.0323,0.0,0.0,0.0,0.0,0.0,0.0,0.0,0.0,0.0,0.0,0.0,0.0,0.0,0.0,0.0,0.0,0.0,-1.3627,-1.2424,-1.1356,-1.1339,-1.1501,-1.1623,-1.1636,-1.123,-1.0341,-0.937,-0.825,-0.6908,-0.6335,-0.5877,-0.5451,-0.5061,-0.5067,-0.5394,-0.6858,-0.648,-0.4239,-0.1303,0.0606,0.1814,0.4528,0.5336,0.5035,0.6431,0.9194,1.2777,1.5799,1.891,2.2055,2.4815,2.7115,2.9201,3.0985,3.3191,3.5453,3.7141,3.889,4.031,4.0831,4.3476,4.6303,4.7153,4.8211,4.9168,4.975,5.0497,5.1258,5.1897,5.2608,5.3206,5.3164,5.3164,5.3164,5.3164,5.3164,5.3164,5.3164,5.3206,5.3566,5.4548,5.4907,5.5772,5.7548,5.7992,5.8487,5.9282,5.9338,5.9443,5.9649,5.9935,6.018,6.0376,6.0666,6.08,6.08,6.08,6.08,6.08,6.0918,6.1505,6.2465,6.2509,6.3507,-0.9868,-1.0571,-1.106,0.0,0.0,0.0,0.0,-0.9493,0.0,0.0,0.0,0.0,0.0,0.0,0.0,0.0,0.0,0.0,0.0,0.0,0.0,0.0,0.0,0.0,0.0,-1.0723,-0.9722,-0.8495,-0.8548,-0.8659,-0.8719,-0.8729,-0.8522,-0.8031,-0.7351,-0.6517,-0.5452,-0.509,-0.4607,-0.3897,-0.3017,-0.2706,-0.2964,-0.4338,-0.3998,-0.2164,-0.0601,0.0606,0.1814,0.4528,0.5536,0.5634,0.7135,0.9819,1.3099,1.5911,1.891,2.2055,2.4815,2.6935,2.8751,3.0489,3.2352,3.4241,3.596,3.74,3.8961,4.1573,4.38,4.5677,4.7023,4.8211,4.9168,4.975,5.0497,5.1258,5.1897,5.2608,5.3121,5.2912,5.2868,5.2868,5.2868,5.2868,5.2912,5.2999,5.3103,5.3542,5.452,5.4822,5.5596,5.7292,5.7677,5.8128,5.8989,5.9064,5.9178,5.9451,5.9772,6.0053,6.0321,6.0641,6.08,6.08,6.08,6.08,6.08,6.0827,6.1293,6.2166,6.2256,6.3207,-1.1073,-1.1332,-1.1348,-1.08,0.0,0.0,0.0,0.0,0.0,0.0,0.0,0.0,0.0,0.0,0.0,0.0,0.0,0.0,0.0,0.0,0.0,0.0,0.0,0.0,0.0,-0.7988,-0.7045,-0.6254,-0.626,-0.6276,-0.6279,-0.6368,-0.6346,-0.6201,-0.5893,-0.5544,-0.501,-0.5268,-0.4831,-0.3601,-0.1838,-0.0988,-0.1132,-0.1799,-0.1679,-0.0775,-0.02,0.0606,0.1814,0.4528,0.5636,0.5734,0.7338,0.992,1.3104,1.5911,1.891,2.2055,2.4815,2.6764,2.8412,3.0044,3.1731,3.3441,3.4952,3.6681,3.8631,4.157,4.3639,4.5256,4.6649,4.7754,4.8673,4.9256,5.0033,5.0841,5.1482,5.2203,5.2717,5.2361,5.2203,5.2203,5.2454,5.2481,5.2527,5.2787,5.306,5.3353,5.3842,5.4004,5.4529,5.5752,5.6006,5.6381,5.7256,5.7311,5.7643,5.8408,5.8826,5.9381,6.0179,6.0591,6.08,6.08,6.08,6.08,6.08,6.08,6.1012,6.1435,6.1508,6.2274,0.0,0.0,0.0,0.0,0.0,-0.9939,0.0,0.0,0.0,0.0,0.0,0.0,0.0,0.0,0.0,0.0,0.0,0.0,0.0,0.0,0.0,0.0,0.0,0.0,0.0,-0.5619,-0.4762,-0.4454,-0.4317,-0.4308,-0.4309,-0.4347,-0.4328,-0.439,-0.4394,-0.4373,-0.4401,-0.5364,-0.4972,-0.3308,-0.11,0.0,0.0,0.0,0.0,0.0,0.0,0.0604,0.1814,0.4528,0.5636,0.5734,0.7338,0.992,1.3104,1.5911,1.891,2.2055,2.4815,2.6678,2.807,2.9476,3.1187,3.2907,3.4288,3.613,3.8353,4.0959,4.2921,4.4622,4.5991,4.6997,4.7803,4.8463,4.93,5.0077,5.0822,5.1583,5.2042,5.1665,5.1363,5.1312,5.1928,5.2054,5.2131,5.2481,5.2868,5.3103,5.3103,5.3103,5.3414,5.4264,5.4399,5.473,5.5519,5.5592,5.6141,5.7375,5.7884,5.8732,6.0,6.0514,6.08,6.08,6.08,6.08,6.08,6.08,6.08,6.08,6.0846,6.1379,0.0,0.0,0.0,0.0,-1.0747,0.0,0.0,0.0,0.0,0.0,0.0,0.0,0.0,0.0,0.0,0.0,0.0,0.0,0.0,0.0,0.0,0.0,0.0,0.0,0.0,0.0,-0.3175,-0.3015,-0.2917,-0.2867,-0.2831,-0.2312,-0.2044,-0.2262,-0.2272,-0.2225,-0.2278,-0.3465,-0.3228,-0.1572,-0.0471,0.0,0.0,0.0,0.0,0.0,0.0,0.0596,0.1814,0.4528,0.5636,0.5734,0.7338,0.992,1.3104,1.5911,1.891,2.2055,2.4815,2.639,2.7505,2.9039,3.1134,3.324,3.4147,3.5359,3.6967,3.9613,4.1656,4.3426,4.5132,4.5937,4.6609,4.7457,4.8199,4.9027,4.9964,5.0716,5.1155,5.0911,5.0462,5.0425,5.1329,5.1683,5.1928,5.2185,5.2608,5.2868,5.2868,5.2868,5.3222,5.4115,5.4312,5.473,5.5519,5.5592,5.6098,5.7233,5.7753,5.8547,5.9804,6.0395,6.0734,6.08,6.08,6.08,6.08,6.08,6.08,6.08,6.08,6.1285,0.0,0.0,0.0,0.0,0.0,0.0,0.0,0.0,-0.7959,0.0,0.0,0.0,0.0,0.0,0.0,0.0,0.0,0.0,0.0,0.0,0.0,0.0,0.0,0.0,0.0,0.0,0.0,0.0,0.0,-0.1485,-0.109,-0.0844,-0.0684,-0.0778,-0.0814,-0.0761,-0.0769,-0.1327,-0.1257,-0.055,-0.0157,0.0,0.0,0.0,0.0,0.0,0.0,0.0592,0.1788,0.451,0.5636,0.5734,0.7338,0.9823,1.2899,1.5338,1.8232,2.1245,2.371,2.5401,2.6935,2.9235,3.1436,3.324,3.4147,3.5479,3.7251,3.9391,4.1488,4.3399,4.4595,4.5243,4.5794,4.6641,4.7474,4.8308,4.918,5.005,5.0587,5.0293,5.0028,4.9988,5.0439,5.0982,5.1497,5.1799,5.2167,5.2417,5.2454,5.2417,5.2636,5.3217,5.3511,5.3849,5.4179,5.4216,5.4859,5.6409,5.7959,5.916,5.9954,6.0349,6.0597,6.08,6.08,6.08,6.08,6.08,6.08,6.08,6.08,6.0993,-1.2019,0.0,0.0,0.0,0.0,0.0,0.0,0.0,0.0,0.0,0.0,0.0,0.0,0.0,0.0,0.0,0.0,0.0,0.0,0.0,0.0,0.0,0.0,0.0,0.0,0.0,0.0,0.0,0.0,0.0,-0.0168,-0.0062,0.0,0.0,0.0,0.0,0.0,0.0,0.0,0.0,0.0,0.0,0.0,0.0,0.0,0.0,0.0,0.0586,0.177,0.4497,0.5636,0.5734,0.7338,0.9625,1.2289,1.4654,1.7339,2.0112,2.2383,2.4562,2.6873,2.951,3.1625,3.3265,3.4328,3.587,3.756,3.9533,4.1474,4.3274,4.4021,4.4389,4.4812,4.5697,4.6592,4.7539,4.8383,4.9359,4.9924,4.9674,4.9573,4.959,4.9767,5.046,5.1069,5.1347,5.1665,5.194,5.1976,5.2006,5.2149,5.2499,5.2955,5.3206,5.3206,5.3206,5.4013,5.5831,5.8032,5.9521,5.9973,6.0189,6.0449,6.0753,6.0757,6.0777,6.08,6.08,6.08,6.08,6.08,6.08,0.0,0.0,0.0,-0.8836,0.0,0.0,0.0,0.0,-0.8391,0.0,0.0,0.0,0.0,0.0,0.0,0.0,0.0,0.0,0.0,0.0,0.0,0.0,0.0,0.0,0.0,0.0,0.0,0.0,0.0,0.0,-0.0446,-0.012,0.0,0.0,0.0,0.0,0.0,0.0,0.0,0.0,0.0,0.0,0.0,0.0,0.0,0.0,0.0,0.0579,0.177,0.4497,0.5636,0.5734,0.7338,0.9326,1.1479,1.3948,1.6324,1.8651,2.0923,2.4235,2.766,2.9567,3.1524,3.3341,3.4808,3.6192,3.7643,3.9804,4.1339,4.2584,4.3165,4.3329,4.363,4.4586,4.5561,4.6539,4.7538,4.842,4.9063,4.9001,4.9001,4.9124,4.9488,5.0198,5.0715,5.0785,5.114,5.1432,5.1449,5.1633,5.1946,5.2361,5.2868,5.3206,5.3206,5.3206,5.4013,5.5973,5.7931,5.9234,5.9677,5.9975,6.0266,6.0604,6.066,6.0753,6.08,6.08,6.08,6.08,6.08,6.08,0.0,0.0,-0.9961,-0.9477,0.0,0.0,0.0,0.0,0.0,0.0,0.0,0.0,0.0,0.0,0.0,0.0,0.0,0.0,0.0,0.0,0.0,0.0,0.0,0.0,0.0,0.0,0.0,0.0,-0.2067,0.0,0.0,-0.04,0.0,0.0,0.0,0.0,0.0,0.0,0.0,0.0,0.0,0.0,0.0,0.0,0.0,0.0,0.0,0.0567,0.1834,0.4472,0.5636,0.5734,0.7338,0.903,1.0768,1.3174,1.5445,1.7948,2.1338,2.4085,2.6455,2.8544,3.0441,3.2198,3.3858,3.5614,3.7313,3.9005,4.0735,4.2232,4.2644,4.2784,4.3155,4.3989,4.5095,4.6095,4.6791,4.7688,4.8373,4.842,4.8547,4.8798,4.9124,4.9674,5.0119,5.0289,5.0404,5.0552,5.0839,5.1157,5.1547,5.206,5.2761,5.3206,5.3206,5.4179,5.5048,5.5711,5.75,5.8688,5.9027,5.9397,5.9823,6.0255,6.043,6.0597,6.08,6.08,6.08,6.08,6.08,6.08,-1.0843,-1.0476,0.0,-0.9627,-0.887,0.0,-0.7783,0.0,0.0,0.0,0.0,0.0,0.0,0.0,0.0,0.0,0.0,0.0,0.0,0.0,0.0,0.0,0.0,0.0,0.0,0.0,-0.287,-0.1836,-0.1987,0.0,0.0,0.0,0.0,0.0,0.0,0.0,0.0,0.0,0.0,0.0,0.0,0.0,0.0,0.0,0.0168,0.0605,0.1005,0.1608,0.2608,0.4874,0.5839,0.6037,0.7437,0.8932,1.0468,1.2592,1.4959,1.7765,2.0955,2.3214,2.5112,2.7212,2.9131,3.1031,3.2893,3.4717,3.6358,3.8182,3.9939,4.1296,4.1673,4.2005,4.2482,4.3349,4.4495,4.5551,4.6072,4.6775,4.7455,4.7671,4.7983,4.8322,4.8656,4.909,4.953,4.9849,4.9873,4.9971,5.0307,5.0733,5.1173,5.175,5.2454,5.2955,5.306,5.4569,5.5548,5.5592,5.7276,5.8388,5.8628,5.9006,5.9486,5.9943,6.0189,6.0441,6.0729,6.0753,6.0777,6.08,6.08,6.08]}]]